Date StartTime U_cm/s V_cm/s W_cm/s Ustd_cm/s Vstd_cm/s Wstd_cm/s Uvar_(cm/s)^2 Vvar_(cm/s)^2 Wvar_(cm/s)^2 KE_(m/s)^2 TurbulentKE_(m/s)^2 HorizWindSpeed_cm/s FrictionSpeec_cm/s DragCoef SpeedOfSound_m/s SonicTemperature_C Pressure_mb 
08/04/2014  00:00:00      -65.803       53.115      -14.606       21.373       26.512       10.650      456.824      702.906      113.432        0.432        0.064       84.565        9.324        0.012      346.323       24.487      861.824
08/04/2014  00:01:00      -67.587       35.207      -11.045       29.808       25.958       18.508      888.492      673.840      342.538        0.392        0.095       76.208       15.134        0.039      346.358       24.550      861.823
08/04/2014  00:02:00      -75.688       48.036      -10.149       24.266       26.286       19.457      588.820      690.933      378.564        0.490        0.083       89.645       20.134        0.050      346.381       24.588      861.819
08/04/2014  00:03:00      -66.370       41.426       -4.278       35.028       24.648       19.586     1226.988      607.519      383.599        0.418        0.111       78.237       14.274        0.033      346.363       24.557      861.813
08/04/2014  00:04:00      -85.915       38.128      -10.556       22.455       18.108       12.214      504.226      327.914      149.189        0.496        0.049       93.995        7.352        0.006      346.428       24.667      861.820
08/04/2014  00:05:00      -94.456       48.183       -7.383       33.119       20.354       15.382     1096.863      414.273      236.598        0.652        0.087      106.036       13.578        0.016      346.400       24.620      861.827
08/04/2014  00:06:00      -76.802       34.792       -0.223       35.229       18.369       15.770     1241.075      337.423      248.679        0.447        0.091       84.315       16.547        0.039      346.385       24.594      861.838
08/04/2014  00:07:00      -65.510       49.549      -10.426       19.382       15.319       12.026      375.664      234.675      144.615        0.380        0.038       82.138       12.085        0.022      346.421       24.655      861.845
08/04/2014  00:08:00      -24.287       96.696      -10.399       22.936       45.902       17.415      526.062     2106.955      303.280        0.649        0.147       99.700       23.824        0.057      346.337       24.512      861.846
08/04/2014  00:09:00      -49.884      140.327      -19.358       32.274       56.250       23.728     1041.584     3164.039      563.009        1.366        0.238      148.930       29.796        0.040      346.329       24.498      861.832
08/04/2014  00:10:00      -36.163       35.191        2.189       38.389       33.639       20.884     1473.739     1131.615      436.134        0.280        0.152       50.460       17.821        0.125      346.280       24.413      861.837
08/04/2014  00:11:00       41.251       12.228       29.221       37.349       24.410       18.949     1394.944      595.872      359.066        0.253        0.117       43.025       11.804        0.075      346.330       24.499      861.858
08/04/2014  00:12:00       21.793      -76.275        0.589       26.415       46.426       19.188      697.754     2155.346      368.178        0.476        0.161       79.327       20.231        0.065      346.356       24.548      861.864
08/04/2014  00:13:00        9.882      -47.799      -12.603       23.596       17.864       18.978      556.794      319.125      360.157        0.189        0.062       48.810       12.378        0.064      346.326       24.493      861.878
08/04/2014  00:14:00      -16.625      -25.753        1.886       17.190       12.214       10.921      295.511      149.193      119.271        0.075        0.028       30.653        6.961        0.052      346.363       24.556      861.877
08/04/2014  00:15:00      -26.227       -9.364       -3.984        9.225        9.158        9.484       85.095       83.866       89.941        0.053        0.013       27.848        6.768        0.059      346.344       24.524      861.873
08/04/2014  00:16:00       -6.294       -2.403        6.716       11.870       13.515        8.889      140.903      182.658       79.013        0.025        0.020        6.737        7.485        1.234      346.350       24.535      861.873
08/04/2014  00:17:00      -25.123       30.416       -6.210       13.787        9.729        9.041      190.076       94.647       81.735        0.098        0.018       39.450        9.765        0.061      346.263       24.385      861.873
08/04/2014  00:18:00      -26.349       34.607       -7.072        7.125       10.793        5.382       50.770      116.494       28.971        0.107        0.010       43.496        3.481        0.006      346.268       24.390      861.864
08/04/2014  00:19:00       -6.298       48.799       -8.201       30.098       27.383       11.870      905.878      749.805      140.894        0.214        0.090       49.204       10.750        0.048      346.307       24.461      861.860
08/04/2014  00:20:00        0.435       85.923      -17.082       14.540       13.785        8.389      211.402      190.025       70.376        0.407        0.024       85.924        7.099        0.007      346.399       24.618      861.861
08/04/2014  00:21:00       21.142       61.410       -5.219       15.522       17.215       12.878      240.943      296.348      165.832        0.247        0.035       64.947        6.670        0.011      346.362       24.554      861.854
08/04/2014  00:22:00       12.970       67.868      -11.497       14.697       15.974        9.348      216.008      255.156       87.382        0.273        0.028       69.096        6.748        0.010      346.302       24.453      861.843
08/04/2014  00:23:00       16.659       35.679        6.152       26.592       22.159       17.082      707.118      491.007      291.803        0.154        0.074       39.376       12.010        0.093      346.246       24.357      861.836
08/04/2014  00:24:00       24.901       66.036       -5.538       25.330       23.944       21.486      641.607      573.321      461.629        0.334        0.084       70.575       19.492        0.076      346.189       24.258      861.828
08/04/2014  00:25:00       29.867       46.083       -7.026       19.714       19.623       13.798      388.648      385.062      190.376        0.201        0.048       54.916       11.235        0.042      346.217       24.305      861.823
08/04/2014  00:26:00       18.314       56.505       -5.576       20.715       37.917       16.394      429.093     1437.690      268.756        0.285        0.107       59.399       19.728        0.110      346.265       24.388      861.817
08/04/2014  00:27:00      -13.252      106.573      -19.080       19.598       15.891        9.074      384.089      252.537       82.342        0.631        0.036      107.394        7.432        0.005      346.324       24.490      861.809
08/04/2014  00:28:00      -36.394      107.285      -21.444       15.817       17.966       10.456      250.181      322.792      109.330        0.699        0.034      113.290        4.238        0.001      346.266       24.391      861.802
08/04/2014  00:29:00      -48.731       88.830      -10.520       22.754       31.249       16.710      517.749      976.471      279.213        0.607        0.089      101.319        9.513        0.009      346.256       24.372      861.793
08/04/2014  00:30:00      -99.833       74.169      -18.872       30.544       30.841       19.099      932.940      951.178      364.776        0.904        0.112      124.369       16.975        0.019      346.254       24.370      861.781
08/04/2014  00:31:00      -74.728       38.018       -6.181       24.272       24.773       18.338      589.116      613.716      336.278        0.430        0.077       83.843       16.128        0.037      346.232       24.330      861.764
08/04/2014  00:32:00      -69.750       36.852       -8.554       34.481       21.083       16.945     1188.920      444.508      287.144        0.411        0.096       78.887       11.560        0.021      346.223       24.314      861.756
08/04/2014  00:33:00      -15.276       44.274       -3.958       25.761       32.219       20.108      663.620     1038.043      404.331        0.216        0.105       46.836       21.384        0.208      346.194       24.266      861.756
08/04/2014  00:34:00      -21.438      154.042      -18.555       19.289       19.384       15.219      372.082      375.754      231.603        1.276        0.049      155.526        8.499        0.003      346.337       24.511      861.761
08/04/2014  00:35:00      -25.387      130.202      -17.134       20.778       49.754       23.145      431.728     2475.462      535.676        1.067        0.172      132.654       28.932        0.048      346.289       24.430      861.755
08/04/2014  00:36:00      -29.800      105.231      -12.979       18.430       36.162       19.461      339.667     1307.720      378.746        0.708        0.101      109.369       21.409        0.038      346.266       24.390      861.739
08/04/2014  00:37:00      -39.159      100.785      -16.066       35.052       34.992       17.551     1228.614     1224.448      308.049        0.735        0.138      108.125       17.164        0.025      346.269       24.394      861.730
08/04/2014  00:38:00      -41.234       26.013       -4.264       22.354       34.897       13.728      499.709     1217.811      188.446        0.215        0.095       48.753        7.178        0.022      346.239       24.344      861.727
08/04/2014  00:39:00      -81.213       62.386      -17.853       30.609       39.958       19.466      936.896     1596.615      378.928        0.686        0.146      102.409       16.403        0.026      346.303       24.453      861.727
08/04/2014  00:40:00      -82.705       41.008       -7.366       50.795       41.064       25.364     2580.163     1686.290      643.340        0.674        0.245       92.314       27.154        0.087      346.283       24.419      861.729
08/04/2014  00:41:00      -56.896       76.235       -7.531       26.362       40.682       25.412      694.949     1655.007      645.768        0.605        0.150       95.126       21.908        0.053      346.250       24.363      861.718
08/04/2014  00:42:00      -79.177      101.534      -22.545       41.606       33.119       24.513     1731.043     1096.871      600.904        1.026        0.171      128.756       25.818        0.040      346.310       24.467      861.709
08/04/2014  00:43:00      -42.856       47.350       -5.344       29.940       28.674       19.863      896.424      822.223      394.537        0.311        0.106       63.864       13.397        0.044      346.241       24.348      861.694
08/04/2014  00:44:00      -93.248       68.840      -15.613       22.248       26.078       18.248      494.994      680.041      333.001        0.759        0.075      115.906       13.581        0.014      346.268       24.393      861.684
08/04/2014  00:45:00      -93.396       37.703      -18.598       27.297       23.010       18.845      745.151      529.455      355.125        0.606        0.081      100.719       13.126        0.017      346.258       24.377      861.678
08/04/2014  00:46:00      -94.659       24.604      -10.381       26.191       27.034       20.562      685.991      730.863      422.792        0.576        0.092       97.805       13.983        0.020      346.265       24.387      861.671
08/04/2014  00:47:00      -69.153       -3.249       -5.574       33.374       29.319       16.019     1113.807      859.610      256.602        0.353        0.112       69.229       18.432        0.071      346.231       24.330      861.663
08/04/2014  00:48:00      -41.485       -2.471        1.105       18.651       20.836       14.149      347.842      434.147      200.201        0.136        0.049       41.559       12.218        0.086      346.227       24.323      861.658
08/04/2014  00:49:00      -72.317       16.903      -12.262       34.915       27.162       16.226     1219.044      737.748      263.279        0.394        0.111       74.266       19.444        0.069      346.256       24.373      861.655
08/04/2014  00:50:00      -44.983       12.457       -9.606       31.282       21.162       18.454      978.547      447.811      340.550        0.202        0.088       46.676       21.627        0.215      346.287       24.425      861.649
08/04/2014  00:51:00      -26.863        5.467       -4.272       23.602       11.345       14.208      557.068      128.709      201.860        0.083        0.044       27.413        8.586        0.098      346.246       24.356      861.646
08/04/2014  00:52:00      -26.296      -19.842       -4.362       25.286       17.068       14.127      639.370      291.301      199.584        0.112        0.057       32.942       11.025        0.112      346.170       24.226      861.650
08/04/2014  00:53:00      -47.080      -15.610       -6.247       37.211       26.007       15.907     1384.651      676.355      253.040        0.241        0.116       49.601       13.069        0.069      346.155       24.198      861.659
08/04/2014  00:54:00      -61.362        3.132       -6.845       23.324       20.353        8.539      544.014      414.242       72.911        0.243        0.052       61.442        7.610        0.015      346.088       24.085      861.674
08/04/2014  00:55:00      -97.453      -17.408       -7.275       22.504       25.992       18.165      506.413      675.597      329.977        0.568        0.076       98.995       16.586        0.028      346.101       24.104      861.679
08/04/2014  00:56:00      -93.532       17.022       -7.398       22.997       24.838       17.334      528.881      616.935      300.472        0.527        0.072       95.068       16.478        0.030      345.970       23.881      861.678
08/04/2014  00:57:00      -98.208      -48.681      -10.183       32.979       36.080       23.361     1087.586     1301.776      545.739        0.753        0.147      109.612       15.421        0.020      345.958       23.863      861.673
08/04/2014  00:58:00      -77.333      -60.431        7.566       35.545       34.724       22.645     1263.480     1205.743      512.815        0.634        0.149       98.144       17.668        0.032      345.872       23.712      861.673
08/04/2014  00:59:00      -86.046      -36.602       -3.778       31.314       30.408       22.978      980.565      924.616      527.987        0.560        0.122       93.507       19.022        0.041      345.856       23.686      861.676
08/04/2014  01:00:00      -74.726      -17.290        1.198       40.215       35.710       16.208     1617.249     1275.185      262.691        0.452        0.158       76.700       15.134        0.039      345.822       23.628      861.687
08/04/2014  01:01:00      -67.739      -45.904       -9.045       52.076       35.400       20.916     2711.882     1253.143      437.459        0.559        0.220       81.827       24.282        0.088      345.868       23.707      861.696
08/04/2014  01:02:00      -56.879       -6.091       -7.570       20.586       22.359       13.687      423.792      499.910      187.331        0.222        0.056       57.205        9.226        0.026      345.900       23.759      861.706
08/04/2014  01:03:00      -37.040       -4.528       -2.063       12.081       17.011       12.602      145.950      289.366      158.819        0.100        0.030       37.315        6.132        0.027      345.901       23.764      861.706
08/04/2014  01:04:00      -64.107        4.062       -5.276       17.100       12.831       11.761      292.418      164.645      138.315        0.237        0.030       64.236       10.634        0.027      345.927       23.808      861.712
08/04/2014  01:05:00      -82.746      -11.774       -9.173       23.691       15.991       12.110      561.285      255.696      146.656        0.402        0.048       83.580       10.286        0.015      345.949       23.845      861.722
08/04/2014  01:06:00      -45.923      -19.126        0.450       29.251       28.892       14.079      855.648      834.743      198.210        0.218        0.094       49.747       18.618        0.140      345.948       23.841      861.727
08/04/2014  01:07:00      -43.686      -17.971       -9.711       29.562       16.321        9.262      873.913      266.365       85.783        0.178        0.061       47.238        8.364        0.031      345.960       23.866      861.730
08/04/2014  01:08:00     -110.021       -6.452        1.134       39.783       26.165       22.900     1582.682      684.610      524.402        0.747        0.140      110.210       17.975        0.027      345.982       23.902      861.738
08/04/2014  01:09:00     -130.503      -11.320      -14.259       35.539       22.027       19.353     1263.009      485.177      374.537        0.974        0.106      130.993       16.993        0.017      346.035       23.993      861.738
08/04/2014  01:10:00      -94.940      -15.020       -6.590       33.721       22.218       15.715     1137.113      493.655      246.963        0.558        0.094       96.121       17.414        0.033      345.979       23.898      861.737
08/04/2014  01:11:00      -60.817      -31.750        2.526       31.947       25.093       21.516     1020.619      629.652      462.937        0.341        0.106       68.606       19.473        0.081      345.942       23.833      861.735
08/04/2014  01:12:00     -120.582      -29.795      -13.186       31.590       35.052       15.913      997.929     1228.625      253.234        0.904        0.124      124.209       14.915        0.014      345.992       23.919      861.744
08/04/2014  01:13:00      -97.224      -12.507       -5.362       43.398       36.699       21.613     1883.373     1346.797      467.106        0.667        0.185       98.025       15.121        0.024      345.977       23.895      861.739
08/04/2014  01:14:00      -51.958      -13.413        6.286       37.860       26.319       21.474     1433.383      692.689      461.138        0.275        0.129       53.661       25.166        0.220      345.966       23.875      861.742
08/04/2014  01:15:00      -12.527       -0.225        5.923       33.273       25.011       28.729     1107.065      625.541      825.352        0.137        0.128       12.529       23.119        3.405      345.963       23.868      861.748
08/04/2014  01:16:00     -103.503      -50.748       -1.378       63.977       40.524       21.370     4093.080     1642.208      456.671        0.974        0.310      115.274       24.479        0.045      345.909       23.779      861.757
08/04/2014  01:17:00      -95.948      -60.616        6.697       54.605       41.550       27.121     2981.709     1726.369      735.526        0.918        0.272      113.492       25.860        0.052      345.877       23.723      861.755
08/04/2014  01:18:00     -141.286      -89.820       -2.650       51.119       30.467       29.421     2613.176      928.259      865.593        1.622        0.220      167.420       19.502        0.014      345.901       23.763      861.750
08/04/2014  01:19:00      -77.431      -56.926        1.939       70.384       40.707       24.637     4953.894     1657.056      606.970        0.823        0.361       96.105       27.496        0.082      345.900       23.762      861.742
08/04/2014  01:20:00     -125.583      -42.521       -9.344       46.135       35.910       27.772     2128.473     1289.493      771.257        1.093        0.209      132.586       26.396        0.040      345.929       23.812      861.736
08/04/2014  01:21:00     -126.776      -44.418        0.209       53.954       41.199       24.856     2910.985     1697.333      617.844        1.163        0.261      134.332       21.900        0.027      345.894       23.752      861.721
08/04/2014  01:22:00     -124.006      -97.895        3.037       53.384       49.582       33.776     2849.831     2458.398     1140.834        1.571        0.322      157.990       23.524        0.022      345.980       23.898      861.702
08/04/2014  01:23:00     -158.885      -88.494       -9.191       50.338       40.973       31.241     2533.896     1678.788      976.002        1.917        0.259      181.867       18.171        0.010      346.010       23.947      861.683
08/04/2014  01:24:00     -100.197      -53.632       -2.830       69.589       48.815       26.593     4842.627     2382.904      707.201        1.043        0.397      113.647       30.854        0.074      345.990       23.915      861.669
08/04/2014  01:25:00      -83.234      -51.303        1.859       63.549       57.390       28.436     4038.416     3293.621      808.622        0.885        0.407       97.774       33.829        0.120      345.990       23.917      861.659
08/04/2014  01:26:00     -130.339      -76.887        4.654       58.411       45.687       28.742     3411.826     2087.284      826.088        1.462        0.316      151.327       28.972        0.037      345.991       23.917      861.651
08/04/2014  01:27:00     -113.407      -55.903       -3.005       39.727       42.281       24.928     1578.229     1787.667      621.388        0.999        0.199      126.437       22.624        0.032      345.963       23.869      861.650
08/04/2014  01:28:00     -119.814      -65.716        0.973       56.861       48.403       28.660     3233.189     2342.868      821.419        1.253        0.320      136.653       32.209        0.056      345.936       23.823      861.656
08/04/2014  01:29:00      -96.278      -58.793       -3.706       71.739       46.746       32.240     5146.414     2185.156     1039.386        1.055        0.419      112.810       29.007        0.066      345.998       23.930      861.660
08/04/2014  01:30:00     -134.192      -52.307      -10.050       55.139       50.671       28.319     3040.358     2567.566      801.993        1.363        0.320      144.026       19.857        0.019      345.981       23.901      861.656
08/04/2014  01:31:00     -146.137      -51.895       -6.162       39.634       35.365       24.889     1570.834     1250.711      619.447        1.376        0.172      155.077       18.993        0.015      345.939       23.828      861.660
08/04/2014  01:32:00     -141.031      -32.822       -3.071       56.837       45.275       30.071     3230.418     2049.802      904.279        1.358        0.309      144.800       28.658        0.039      345.957       23.859      861.651
08/04/2014  01:33:00     -100.234      -63.060       -7.238       58.991       39.556       29.491     3479.929     1564.675      869.743        0.999        0.296      118.420       14.697        0.015      345.961       23.868      861.641
08/04/2014  01:34:00      -19.494      -10.935       22.671       51.038       30.597       30.510     2604.851      936.165      930.832        0.274        0.224       22.351       28.457        1.621      345.967       23.875      861.620
08/04/2014  01:35:00     -137.790      -58.736       -2.177       54.051       48.308       25.843     2921.562     2333.663      667.863        1.418        0.296      149.787       27.031        0.033      345.916       23.789      861.616
08/04/2014  01:36:00      -89.934      -34.398        4.980       50.335       33.354       21.622     2533.661     1112.500      467.492        0.670        0.206       96.288       20.538        0.045      345.912       23.781      861.600
08/04/2014  01:37:00      -90.363      -45.842        2.289       67.983       38.510       34.900     4621.748     1482.989     1218.001        0.880        0.366      101.326       40.701        0.161      345.924       23.802      861.585
08/04/2014  01:38:00      -51.087      -42.728       -1.414       31.554       39.280       18.660      995.626     1542.931      348.208        0.366        0.144       66.600       19.758        0.088      345.943       23.834      861.572
08/04/2014  01:39:00      -98.727      -34.254       -2.434       24.941       30.495       19.771      622.037      929.920      390.902        0.643        0.097      104.501       14.302        0.019      345.942       23.832      861.559
08/04/2014  01:40:00     -102.290      -26.198        3.163       44.247       31.565       21.063     1957.764      996.330      443.665        0.728        0.170      105.592       20.330        0.037      345.891       23.745      861.565
08/04/2014  01:41:00      -55.438      -23.559        8.737       35.914       31.746       26.646     1289.802     1007.827      709.985        0.336        0.150       60.236       22.321        0.137      345.896       23.752      861.571
08/04/2014  01:42:00      -54.700      -49.618        4.774       60.089       44.405       33.321     3610.640     1971.789     1110.305        0.608        0.335       73.851       38.067        0.266      345.926       23.806      861.575
08/04/2014  01:43:00      -50.822      -13.195        0.439       33.820       33.773       25.077     1143.767     1140.628      628.841        0.283        0.146       52.507       23.206        0.195      345.910       23.780      861.571
08/04/2014  01:44:00      -29.234      -17.238        7.266       32.474       29.451       20.719     1054.548      867.335      429.286        0.178        0.118       33.937       15.774        0.216      345.904       23.770      861.565
08/04/2014  01:45:00     -101.857      -63.808        1.528       52.292       55.463       37.612     2734.488     3076.098     1414.642        1.084        0.361      120.193       36.481        0.092      345.927       23.807      861.559
08/04/2014  01:46:00     -211.303      -50.223      -14.729       90.835       55.920       42.775     8250.928     3127.041     1829.714        3.030        0.660      217.189       47.458        0.048      345.916       23.785      861.561
08/04/2014  01:47:00     -110.537      -45.132        0.066       54.056       48.027       28.735     2922.057     2306.640      825.703        1.015        0.303      119.395       25.909        0.047      345.896       23.754      861.547
08/04/2014  01:48:00     -105.503      -50.453       -1.493       56.983       35.364       22.820     3247.041     1250.600      520.738        0.935        0.251      116.946       21.558        0.034      345.886       23.738      861.529
08/04/2014  01:49:00     -129.576      -52.577        4.098       74.863       50.210       33.132     5604.421     2521.019     1097.703        1.440        0.461      139.837       34.142        0.060      345.893       23.748      861.505
08/04/2014  01:50:00      -80.570      -71.079       -3.414       62.298       52.162       31.902     3881.088     2720.893     1017.733        0.959        0.381      107.442       33.103        0.095      345.916       23.790      861.482
08/04/2014  01:51:00     -125.900      -97.422        0.496       60.842       68.952       42.004     3701.719     4754.378     1764.296        1.778        0.511      159.192       44.857        0.079      345.900       23.759      861.470
08/04/2014  01:52:00      -98.294      -69.629        2.950       48.493       52.648       29.796     2351.607     2771.829      887.824        1.026        0.301      120.457       26.201        0.047      345.884       23.733      861.475
08/04/2014  01:53:00      -79.694      -37.550       -0.684       58.130       43.721       25.630     3379.066     1911.543      656.910        0.685        0.297       88.097       29.143        0.109      345.892       23.746      861.479
08/04/2014  01:54:00     -118.529      -86.001       -7.051       52.304       47.353       29.318     2735.756     2242.292      859.539        1.367        0.292      146.442       23.030        0.025      345.940       23.828      861.485
08/04/2014  01:55:00     -127.288      -71.957       -1.704       38.951       38.961       23.104     1517.177     1517.954      533.777        1.248        0.178      146.219       21.252        0.021      345.922       23.797      861.488
08/04/2014  01:56:00      -82.462      -19.231        1.985       37.633       24.584       24.884     1416.271      604.394      619.207        0.491        0.132       84.675       11.704        0.019      345.926       23.806      861.484
08/04/2014  01:57:00      -98.371      -47.503       -4.203       63.063       45.716       26.108     3976.891     2089.927      681.630        0.935        0.337      109.240       28.233        0.067      345.951       23.849      861.486
08/04/2014  01:58:00     -114.898       -0.748       -0.054       42.587       49.406       30.765     1813.676     2440.947      946.468        0.920        0.260      114.900       26.267        0.052      345.944       23.836      861.491
08/04/2014  01:59:00      -22.574      -66.483        7.963       47.412       37.495       24.885     2247.905     1405.899      619.261        0.463        0.214       70.211       22.595        0.104      345.962       23.868      861.492
08/04/2014  02:00:00      -38.757      -15.882        6.359       36.571       36.377       23.920     1337.452     1323.296      572.172        0.251        0.162       41.885       21.173        0.256      345.940       23.830      861.506
08/04/2014  02:01:00      -15.178       -3.125       10.480       33.702       24.988       16.733     1135.843      624.393      279.982        0.119        0.102       15.497       13.303        0.737      345.920       23.795      861.509
08/04/2014  02:02:00      -56.673      -46.204       -3.429       29.489       30.947       15.693      869.622      957.729      246.269        0.372        0.104       73.121        8.618        0.014      345.963       23.873      861.520
08/04/2014  02:03:00      -60.755      -27.373       -1.722       36.278       19.117       17.550     1316.094      365.445      308.006        0.322        0.099       66.637       16.980        0.065      345.951       23.850      861.527
08/04/2014  02:04:00      -23.599      -44.812        7.345       24.668       31.173       11.962      608.501      971.740      143.101        0.217        0.086       50.646       13.074        0.067      345.979       23.901      861.544
08/04/2014  02:05:00       -4.973      -28.246       14.605       29.986       25.215       15.467      899.154      635.800      239.229        0.140        0.089       28.681       12.794        0.199      345.978       23.896      861.554
08/04/2014  02:06:00      -18.287        0.591        8.606       28.609       17.633       18.170      818.464      310.937      330.166        0.093        0.073       18.297       18.331        1.004      345.929       23.812      861.576
08/04/2014  02:07:00      -20.628      -19.179       11.877       26.100       36.440       13.798      681.204     1327.891      190.387        0.157        0.110       28.167       15.003        0.284      345.957       23.860      861.587
08/04/2014  02:08:00       10.506       -8.475       11.294       18.137       17.729       19.464      328.947      314.322      378.841        0.067        0.051       13.498       13.374        0.982      345.943       23.837      861.593
08/04/2014  02:09:00       32.811       35.824        0.430       29.864       26.120       15.715      891.856      682.273      246.958        0.209        0.091       48.579        5.777        0.014      345.877       23.721      861.603
08/04/2014  02:10:00       65.556       43.539       -3.665       43.514       26.720       25.034     1893.429      713.970      626.719        0.472        0.162       78.697       20.357        0.067      345.803       23.595      861.608
08/04/2014  02:11:00       46.724       32.181        3.168       33.816       21.879       22.562     1143.512      478.710      509.061        0.268        0.107       56.734       14.791        0.068      345.718       23.449      861.619
08/04/2014  02:12:00      119.139       48.126       20.031       36.217       33.987       30.182     1311.657     1155.150      910.959        1.014        0.169      128.492       18.134        0.020      345.717       23.447      861.629
08/04/2014  02:13:00      123.170       53.431       10.691       52.890       39.954       27.797     2797.309     1596.355      772.678        1.165        0.258      134.260       11.177        0.007      345.738       23.485      861.643
08/04/2014  02:14:00       81.317       41.248       16.982       44.532       29.079       22.842     1983.131      845.582      521.752        0.598        0.168       91.180       21.291        0.055      345.669       23.364      861.671
08/04/2014  02:15:00       98.061       61.211       12.480       19.908       17.415       13.629      396.348      303.265      185.743        0.720        0.044      115.598        7.678        0.004      345.702       23.421      861.704
08/04/2014  02:16:00       58.953       55.973       10.799       39.679       24.248       23.125     1574.387      587.983      534.743        0.471        0.135       81.293       16.611        0.042      345.672       23.372      861.718
08/04/2014  02:17:00       69.175       42.038        8.458       23.835       18.292       17.879      568.128      334.598      319.650        0.392        0.061       80.947       10.705        0.017      345.651       23.334      861.741
08/04/2014  02:18:00       82.311       62.698        1.685       52.203       39.849       30.467     2725.151     1587.926      928.242        0.797        0.262      103.470       25.566        0.061      345.693       23.405      861.751
08/04/2014  02:19:00       41.172       56.440       -1.402       39.356       23.194       19.080     1548.921      537.955      364.058        0.367        0.123       69.862       20.071        0.083      345.693       23.406      861.767
08/04/2014  02:20:00       21.482       80.569       -9.007       20.056       45.571       15.962      402.239     2076.710      254.799        0.488        0.137       83.384       18.344        0.048      345.672       23.371      861.782
08/04/2014  02:21:00       21.171       46.927      -11.467       15.477       28.910        8.689      239.524      835.780       75.506        0.197        0.058       51.482        6.936        0.018      345.704       23.427      861.792
08/04/2014  02:22:00        6.118       31.493      -10.488       14.704       17.338       10.088      216.206      300.595      101.761        0.088        0.031       32.081        4.745        0.022      345.666       23.355      861.781
08/04/2014  02:23:00       -6.869        4.900       -1.898        5.996        9.761        5.975       35.954       95.271       35.699        0.012        0.008        8.438        2.555        0.092      345.668       23.361      861.784
08/04/2014  02:24:00       -6.663        4.633        1.179        7.014        5.228        4.578       49.192       27.332       20.956        0.008        0.005        8.116        1.881        0.054      345.702       23.424      861.778
08/04/2014  02:25:00       -0.824      -35.323       -0.608        8.405       26.425       11.437       70.646      698.285      130.815        0.107        0.045       35.332        5.517        0.024      345.813       23.612      861.777
08/04/2014  02:26:00        1.636        4.043        5.952        8.872       13.529        8.340       78.704      183.025       69.548        0.019        0.017        4.361        5.923        1.845      345.809       23.606      861.782
08/04/2014  02:27:00       -0.358       20.394       -4.646       19.284       19.643       11.083      371.864      385.866      122.835        0.066        0.044       20.397        4.854        0.057      345.848       23.673      861.787
08/04/2014  02:28:00       28.008       31.627       12.076       29.976        9.885       13.864      898.585       97.721      192.211        0.156        0.059       42.246        6.653        0.025      345.850       23.672      861.782
08/04/2014  02:29:00       47.339       12.580       13.429       47.668       20.655       20.123     2272.208      426.637      404.925        0.284        0.155       48.982       26.228        0.287      345.808       23.604      861.778
08/04/2014  02:30:00       56.056       27.963        8.112       35.337       24.347       19.561     1248.684      592.767      382.632        0.311        0.111       62.643       11.350        0.033      345.770       23.539      861.774
08/04/2014  02:31:00       27.911       33.480       23.439       24.857       18.705       17.951      617.882      349.876      322.244        0.187        0.065       43.588       15.896        0.133      345.727       23.467      861.764
08/04/2014  02:32:00       17.403       27.726       45.707       33.598       32.982       20.362     1128.833     1087.843      414.609        0.290        0.132       32.735       18.782        0.329      345.768       23.536      861.752
08/04/2014  02:33:00       44.350       42.994       42.999       37.407       27.153       22.946     1399.274      737.267      526.500        0.416        0.133       61.769       19.895        0.104      345.787       23.566      861.732
08/04/2014  02:34:00       68.325       29.036       20.942       51.601       33.109       34.682     2662.621     1096.180     1202.841        0.545        0.248       74.239       28.726        0.150      345.817       23.619      861.727
08/04/2014  02:35:00       92.668       47.174       10.697       41.144       27.484       25.905     1692.801      755.390      671.079        0.702        0.156      103.984       13.878        0.018      345.641       23.318      861.733
08/04/2014  02:36:00       70.049       37.693       14.729       47.833       34.442       32.655     2288.011     1186.266     1066.337        0.554        0.227       79.547       12.078        0.023      345.582       23.214      861.723
08/04/2014  02:37:00       83.306       34.943       31.960       65.286       30.411       26.741     4262.237      924.834      715.099        0.754        0.295       90.337       28.095        0.097      345.763       23.526      861.714
08/04/2014  02:38:00      109.225       52.978       28.350       46.951       32.817       30.755     2204.422     1076.984      945.895        0.988        0.211      121.395       22.584        0.035      345.827       23.638      861.706
08/04/2014  02:39:00       51.466       36.751       24.986       66.612       52.824       37.053     4437.200     2790.335     1372.957        0.661        0.430       63.241       28.708        0.206      345.807       23.602      861.707
08/04/2014  02:40:00       71.127       43.698       40.855       39.722       34.354       22.973     1577.804     1180.173      527.765        0.596        0.164       83.478       16.170        0.038      345.788       23.568      861.712
08/04/2014  02:41:00        8.006        7.529       32.718       32.759       26.234       20.706     1073.158      688.238      428.720        0.169        0.110       10.990       21.274        3.747      345.715       23.446      861.711
08/04/2014  02:42:00      -61.140       -3.060       -0.751       29.872       34.588       18.180      892.342     1196.348      330.530        0.308        0.121       61.216       17.918        0.086      345.755       23.511      861.696
08/04/2014  02:43:00      -82.173      -35.253       -3.187       39.097       21.195       15.654     1528.612      449.231      245.043        0.511        0.111       89.416       10.054        0.013      345.643       23.319      861.690
08/04/2014  02:44:00      -86.891      -68.813       -1.568       50.769       32.488       27.495     2577.516     1055.460      755.956        0.834        0.219      110.839       28.387        0.066      345.677       23.380      861.685
08/04/2014  02:45:00      -95.862      -88.009        0.755       40.093       40.270       26.680     1607.443     1621.676      711.828        1.044        0.197      130.135       23.180        0.032      345.766       23.533      861.675
08/04/2014  02:46:00     -108.202     -113.443        0.244       52.896       69.136       25.335     2798.039     4779.784      641.860        1.640        0.411      156.770       30.232        0.037      345.936       23.820      861.678
08/04/2014  02:47:00      -94.163     -106.028        2.697       37.589       46.839       29.131     1412.949     2193.862      848.615        1.228        0.223      141.805       23.275        0.027      345.952       23.851      861.678
08/04/2014  02:48:00      -98.953      -98.322      -10.688       44.523       52.169       23.311     1982.341     2721.600      543.423        1.241        0.262      139.495       21.781        0.024      345.985       23.906      861.666
08/04/2014  02:49:00      -67.620      -37.762       -5.962       37.866       20.431       17.860     1433.797      417.435      318.970        0.410        0.109       77.449       17.276        0.050      345.952       23.852      861.683
08/04/2014  02:50:00      -57.765        5.040       -5.974       38.204       19.739       17.330     1459.541      389.635      300.333        0.277        0.107       57.985       21.601        0.139      345.899       23.760      861.690
08/04/2014  02:51:00      -75.380       18.386       -1.358       32.287       21.380       15.991     1042.465      457.085      255.705        0.389        0.088       77.590       18.616        0.058      345.906       23.771      861.678
08/04/2014  02:52:00      -33.594        5.277        2.566       20.145       13.351       16.940      405.829      178.260      286.971        0.102        0.044       34.006       10.816        0.101      345.927       23.807      861.680
08/04/2014  02:53:00      -60.328      -30.149       -1.782       54.838       41.607       12.225     3007.206     1731.138      149.460        0.472        0.244       67.442       15.394        0.052      345.940       23.831      861.666
08/04/2014  02:54:00     -166.139      -85.932        8.471       60.052       49.740       31.571     3606.267     2474.044      996.714        2.107        0.354      187.046       33.597        0.032      345.831       23.641      861.653
08/04/2014  02:55:00     -122.620      -60.118        1.304       55.409       40.197       28.972     3070.172     1615.789      839.400        1.209        0.276      136.565       28.545        0.044      345.833       23.646      861.648
08/04/2014  02:56:00      -99.341      -39.626       -9.275       21.491       20.310       18.005      461.852      412.476      324.164        0.636        0.060      106.952       13.717        0.016      345.814       23.615      861.631
08/04/2014  02:57:00     -120.984       23.479      -12.080       20.569       22.382       14.042      423.087      500.954      197.180        0.823        0.056      123.241       10.970        0.008      345.774       23.543      861.613
08/04/2014  02:58:00      -93.499        8.436      -10.348       28.291       14.993       14.704      800.367      224.789      216.197        0.508        0.062       93.879       13.058        0.019      345.751       23.507      861.604
08/04/2014  02:59:00      -77.295       -6.563       -6.923       33.366       36.076       13.267     1113.268     1301.477      176.011        0.433        0.130       77.574        8.729        0.013      345.694       23.406      861.593
08/04/2014  03:00:00     -113.434      -25.510       -7.809       28.651       24.335       20.394      820.903      592.212      415.930        0.770        0.091      116.267       11.467        0.010      345.607       23.259      861.581
08/04/2014  03:01:00      -96.151      -17.226       -6.527       25.072       16.897       14.419      628.611      285.495      207.896        0.535        0.056       97.682        7.442        0.006      345.596       23.238      861.580
08/04/2014  03:02:00      -63.166      -13.951       -5.896       18.339       13.711       11.708      336.333      187.996      137.081        0.244        0.033       64.689        7.483        0.013      345.593       23.232      861.593
08/04/2014  03:03:00      -95.271      -10.860      -13.109       16.801       18.859       10.779      282.283      355.672      116.179        0.506        0.038       95.888        5.002        0.003      345.604       23.250      861.594
08/04/2014  03:04:00      -77.669      -29.015       -4.657       22.285       21.449       14.334      496.643      460.057      205.457        0.403        0.058       82.912        9.447        0.013      345.592       23.231      861.586
08/04/2014  03:05:00      -52.204      -18.872       -2.408       18.954       19.772       11.567      359.246      390.934      133.795        0.199        0.044       55.510        8.008        0.021      345.630       23.296      861.594
08/04/2014  03:06:00      -21.222      -32.570       -8.667       40.713       18.860       15.137     1657.584      355.692      229.133        0.191        0.112       38.874       18.420        0.225      345.630       23.298      861.604
08/04/2014  03:07:00      -26.934      -25.377        8.476       50.741       26.419       15.848     2574.610      697.988      251.157        0.248        0.176       37.006       23.241        0.394      345.591       23.234      861.611
08/04/2014  03:08:00      -85.834      -53.657       -1.788       55.953       41.890       15.969     3130.742     1754.767      255.006        0.769        0.257      101.225       14.999        0.022      345.543       23.150      861.616
08/04/2014  03:09:00      -57.998      -43.979        0.656       43.592       36.617       25.620     1900.263     1340.815      656.386        0.460        0.195       72.787       23.752        0.106      345.526       23.118      861.622
08/04/2014  03:10:00      -49.040      -23.038       -4.635       54.165       28.752       24.535     2933.799      826.705      601.972        0.366        0.218       54.182       21.419        0.156      345.519       23.108      861.626
08/04/2014  03:11:00      -66.446      -14.663       -1.389       54.579       24.645       24.187     2978.899      607.379      585.034        0.440        0.209       68.044       15.409        0.051      345.551       23.160      861.628
08/04/2014  03:12:00      -68.264      -18.719        0.222       58.651       37.639       23.508     3439.984     1416.658      552.620        0.521        0.270       70.785       26.668        0.142      345.460       23.006      861.635
08/04/2014  03:13:00     -112.076      -25.136       -0.254       45.635       25.567       19.261     2082.596      653.651      371.005        0.815        0.155      114.860       22.125        0.037      345.416       22.927      861.638
08/04/2014  03:14:00      -72.346      -48.947        2.814       34.861       25.273       22.363     1215.289      638.703      500.096        0.500        0.118       87.348       18.976        0.047      345.381       22.872      861.637
08/04/2014  03:15:00      -97.185      -14.508        0.666       30.463       46.371       19.853      928.020     2150.235      394.129        0.656        0.174       98.262       15.261        0.024      345.394       22.892      861.638
08/04/2014  03:16:00     -105.894      -14.884       -4.778       55.318       44.796       21.631     3060.075     2006.650      467.909        0.850        0.277      106.935       23.007        0.046      345.362       22.838      861.640
08/04/2014  03:17:00     -190.263      -57.087       -7.537       47.074       40.811       24.029     2215.923     1665.552      577.395        2.199        0.223      198.642       21.765        0.012      345.390       22.884      861.643
08/04/2014  03:18:00     -125.085      -22.163       -8.542       49.821       42.893       20.823     2482.135     1839.845      433.604        1.048        0.238      127.033       14.686        0.013      345.482       23.044      861.634
08/04/2014  03:19:00     -202.613      -47.554        6.859       85.040       84.020       44.016     7231.736     7059.366     1937.364        2.979        0.811      208.119       47.776        0.053      345.668       23.360      861.626
08/04/2014  03:20:00     -188.723      -99.935       -0.407       61.696       57.685       36.957     3806.444     3327.576     1365.796        2.705        0.425      213.549       36.948        0.030      345.574       23.198      861.631
08/04/2014  03:21:00     -219.214      -96.241      -12.951       84.324       51.355       37.263     7110.549     2637.339     1388.529        3.431        0.557      239.410       38.525        0.026      345.625       23.286      861.634
08/04/2014  03:22:00     -111.747      -24.411       -7.174       63.330       47.747       38.987     4010.701     2279.783     1520.005        1.047        0.391      114.382       20.681        0.033      345.626       23.292      861.639
08/04/2014  03:23:00     -170.410      -33.388        0.506       63.868       55.280       33.122     4079.067     3055.933     1097.057        1.919        0.412      173.650       31.548        0.033      345.636       23.307      861.633
08/04/2014  03:24:00     -119.194      -35.630        0.493       69.334       50.890       30.577     4807.150     2589.815      934.964        1.190        0.417      124.406       32.532        0.068      345.610       23.261      861.632
08/04/2014  03:25:00     -187.540      -78.137       -2.303       58.476       45.907       34.290     3419.455     2107.479     1175.838        2.399        0.335      203.167       29.243        0.021      345.573       23.198      861.639
08/04/2014  03:26:00     -183.407      -42.177        1.720       86.253       49.998       31.284     7439.661     2499.764      978.693        2.317        0.546      188.195       38.215        0.041      345.556       23.168      861.629
08/04/2014  03:27:00     -244.108      -97.584       -4.314       58.547       90.156       37.422     3427.717     8128.078     1400.395        4.104        0.648      262.890       34.955        0.018      345.625       23.283      861.613
08/04/2014  03:28:00     -273.167      -89.501      -20.453       90.139       71.609       50.120     8125.108     5127.805     2512.060        4.940        0.788      287.455       43.026        0.022      345.598       23.238      861.592
08/04/2014  03:29:00     -151.478      -58.751        1.643      100.105       67.266       41.856    10021.041     4524.725     1751.951        2.135        0.815      162.473       38.600        0.056      345.553       23.164      861.580
08/04/2014  03:30:00     -198.422      -61.010       10.401      150.884      104.205       70.933    22766.047    10858.782     5031.526        4.092        1.933      207.589       77.013        0.138      345.543       23.145      861.573
08/04/2014  03:31:00     -201.687      -32.075       -5.171       92.802       87.714       47.950     8612.284     7693.690     2299.247        3.017        0.930      204.221       48.302        0.056      345.513       23.092      861.587
08/04/2014  03:32:00     -113.643      -20.818        6.333      100.874       75.614       42.960    10175.576     5717.407     1845.567        1.556        0.887      115.534       54.257        0.221      345.493       23.061      861.579
08/04/2014  03:33:00      -44.295      -56.152       23.979       98.022       62.483       45.026     9608.345     3904.083     2027.344        1.061        0.777       71.520       53.541        0.560      345.498       23.070      861.576
08/04/2014  03:34:00     -357.173      -49.812      -34.445      135.687       84.836       66.494    18410.921     7197.177     4421.413        8.063        1.501      360.630       64.791        0.032      345.471       23.021      861.572
08/04/2014  03:35:00     -331.891       15.721      -25.336       93.495       99.332       63.109     8741.273     9866.867     3982.690        6.681        1.130      332.263       49.012        0.022      345.446       22.979      861.552
08/04/2014  03:36:00     -324.092      -20.721      -18.331      142.588       77.914       60.755    20331.383     6070.616     3691.161        6.794        1.505      324.753       71.952        0.049      345.424       22.941      861.541
08/04/2014  03:37:00     -333.325     -107.345      -13.830      169.955      130.190       68.984    28884.613    16949.348     4758.850        8.670        2.530      350.184       75.656        0.047      345.426       22.942      861.516
08/04/2014  03:38:00     -151.860      -66.439        7.181      143.286      103.896       65.543    20530.906    10794.298     4295.942        3.157        1.781      165.758       62.453        0.142      345.418       22.933      861.507
08/04/2014  03:39:00     -271.200     -179.398      -13.059      159.026      114.810       75.310    25289.343    13181.369     5671.617        7.501        2.207      325.166       79.703        0.060      345.431       22.953      861.501
08/04/2014  03:40:00     -299.048      -89.487       -6.485      170.005      119.442       71.092    28901.624    14266.416     5054.139        7.284        2.411      312.150       74.037        0.056      345.437       22.964      861.499
08/04/2014  03:41:00     -190.516      -78.405        2.455      140.171       81.231       58.775    19648.031     6598.529     3454.523        3.607        1.485      206.019       63.536        0.095      345.415       22.927      861.500
08/04/2014  03:42:00     -261.628      -65.192      -12.783      230.334       91.635       70.864    53053.756     8396.888     5021.764        6.965        3.324      269.628       98.348        0.133      345.408       22.915      861.499
08/04/2014  03:43:00     -265.878     -142.655       -9.805      168.655      108.721       63.833    28444.515    11820.279     4074.605        6.773        2.217      301.731       62.484        0.043      345.396       22.893      861.481
08/04/2014  03:44:00     -323.284        1.029      -14.123      141.788      105.566       59.793    20103.724    11144.097     3575.220        6.976        1.741      323.286       67.815        0.044      345.371       22.851      861.498
08/04/2014  03:45:00     -269.121      -69.595       -0.120      192.806      164.517       78.018    37174.280    27065.876     6086.837        7.378        3.516      277.974       87.409        0.099      345.383       22.873      861.482
08/04/2014  03:46:00     -274.761      -46.002      -11.396      169.368      104.105       75.104    28685.557    10837.808     5640.634        6.144        2.258      278.585       92.907        0.111      345.381       22.870      861.494
08/04/2014  03:47:00     -268.974     -102.753      -17.770      121.087      102.477       64.876    14662.164    10501.497     4208.842        5.629        1.469      287.933       60.846        0.045      345.385       22.875      861.497
08/04/2014  03:48:00     -234.929     -129.898       -2.320      144.844      115.714       72.800    20979.677    13389.758     5299.826        5.586        1.983      268.449       72.238        0.072      345.388       22.879      861.499
08/04/2014  03:49:00     -328.621      -98.453      -19.259      138.105      130.337       58.450    19072.904    16987.818     3416.444        7.876        1.974      343.052       54.474        0.025      345.378       22.862      861.511
08/04/2014  03:50:00     -295.002     -169.351       -1.949      121.664      140.830       72.131    14802.142    19833.182     5202.825        7.777        1.992      340.155       48.170        0.020      345.360       22.831      861.497
08/04/2014  03:51:00     -187.533      -32.729       14.313      115.021      102.057       65.579    13229.746    10415.539     4300.552        3.219        1.397      190.368       64.178        0.114      345.358       22.827      861.488
08/04/2014  03:52:00     -285.717     -106.170      -12.686      159.414      120.421       71.318    25412.959    14501.218     5086.323        6.902        2.250      304.806       79.569        0.068      345.349       22.810      861.498
08/04/2014  03:53:00     -261.679     -110.648        7.161      144.511      119.968       74.183    20883.501    14392.421     5503.160        6.077        2.039      284.111       65.333        0.053      345.315       22.754      861.485
08/04/2014  03:54:00     -388.525     -185.143       -3.840      124.723      117.635       74.056    15555.720    13837.959     5484.289       11.005        1.744      430.383       60.772        0.020      345.302       22.732      861.466
08/04/2014  03:55:00     -301.953     -172.581      -11.119      128.542      115.845       68.457    16522.973    13420.032     4686.414        7.785        1.731      347.793       64.929        0.035      345.291       22.712      861.461
08/04/2014  03:56:00     -318.771     -171.924      -11.080      156.940      123.388       77.379    24630.075    15224.482     5987.503        8.856        2.292      362.179       82.875        0.052      345.274       22.684      861.459
08/04/2014  03:57:00     -393.495     -135.140       -7.483      153.816      116.374       72.019    23659.414    13542.819     5186.675       10.776        2.119      416.054       72.537        0.030      345.271       22.679      861.450
08/04/2014  03:58:00     -275.717     -158.900      -21.231      141.970      110.841       73.652    20155.409    12285.640     5424.597        6.979        1.893      318.228       60.948        0.037      345.279       22.692      861.435
08/04/2014  03:59:00     -317.315     -117.146      -14.115      170.271      103.575       58.523    28992.245    10727.693     3424.890        7.887        2.157      338.248       34.506        0.010      345.287       22.706      861.425
08/04/2014  04:00:00     -268.111      -39.393       -4.527      131.965      115.110       60.283    17414.871    13250.221     3633.985        5.387        1.715      270.990       58.496        0.047      345.285       22.704      861.434
08/04/2014  04:01:00     -305.078     -167.272      -15.509      146.756      100.611       71.940    21537.348    10122.662     5175.351        7.906        1.842      347.926       72.514        0.043      345.309       22.743      861.422
08/04/2014  04:02:00     -245.073     -156.567        4.887      151.846      131.775       78.426    23057.161    17364.548     6150.645        6.558        2.329      290.816       91.732        0.099      345.335       22.788      861.399
08/04/2014  04:03:00     -244.692     -180.612       -2.772      162.558      135.552       87.771    26424.996    18374.422     7703.793        7.249        2.625      304.130       93.456        0.094      345.356       22.824      861.382
08/04/2014  04:04:00     -274.947      -64.909        1.540      163.571      114.221       66.400    26755.568    13046.465     4408.934        6.200        2.211      282.504       74.295        0.069      345.375       22.856      861.387
08/04/2014  04:05:00     -272.632      -42.469       -4.617      154.358       83.937       52.073    23826.337     7045.468     2711.629        5.486        1.679      275.920       63.844        0.054      345.389       22.880      861.386
08/04/2014  04:06:00     -106.448      -51.399        0.721      107.778       77.095       56.373    11616.157     5943.601     3177.961        1.735        1.037      118.208       50.858        0.185      345.406       22.912      861.381
08/04/2014  04:07:00     -143.873      -70.450       15.380      153.533      118.171       65.485    23572.240    13964.465     4288.327        3.385        2.091      160.195       71.735        0.201      345.395       22.893      861.379
08/04/2014  04:08:00     -358.257     -117.799      -11.617      108.320      117.675       63.401    11733.239    13847.455     4019.629        8.597        1.480      377.127       61.385        0.026      345.364       22.837      861.391
08/04/2014  04:09:00      -95.753      -44.715       21.985      147.612      110.511       76.018    21789.395    12212.694     5778.723        2.571        1.989      105.679       73.023        0.477      345.377       22.862      861.383
08/04/2014  04:10:00     -150.777      -42.133        4.493      135.429       99.616       60.828    18340.953     9923.366     3700.039        2.824        1.598      156.554       76.539        0.239      345.368       22.846      861.392
08/04/2014  04:11:00      -87.140      -43.265       17.902      105.056       71.117       45.409    11036.679     5057.601     2061.951        1.397        0.908       97.290       46.448        0.228      345.335       22.790      861.411
08/04/2014  04:12:00     -158.611      -64.589       -3.330      127.470      106.056       55.432    16248.574    11247.843     3072.692        2.995        1.528      171.258       55.280        0.104      345.341       22.797      861.416
08/04/2014  04:13:00     -286.754      -27.508       -7.942      166.657      120.097       63.218    27774.440    14423.269     3996.562        6.461        2.310      288.071       71.046        0.061      345.334       22.786      861.418
08/04/2014  04:14:00     -269.711        0.709        7.233      141.586       93.087       72.553    20046.645     8665.137     5263.939        5.338        1.699      269.712       76.780        0.081      345.331       22.780      861.435
08/04/2014  04:15:00     -226.998      -18.469       -0.778      125.096       94.334       59.106    15648.978     8898.958     3493.524        3.995        1.402      227.749       56.555        0.062      345.324       22.768      861.445
08/04/2014  04:16:00     -383.265      -45.902      -15.216      130.067      127.102       61.088    16917.545    16154.931     3731.798        9.301        1.840      386.004       53.916        0.020      345.332       22.782      861.462
08/04/2014  04:17:00     -279.477      -59.482        0.906      179.274      110.776       72.875    32139.322    12271.367     5310.705        6.567        2.486      285.737       89.536        0.098      345.347       22.807      861.458
08/04/2014  04:18:00     -343.578     -130.806      -27.788      159.067      137.455       78.057    25302.280    18893.804     6092.852        9.310        2.514      367.636       71.969        0.038      345.349       22.813      861.471
08/04/2014  04:19:00     -224.844      -33.446       -3.384      149.224      104.626       53.121    22267.763    10946.703     2821.792        4.385        1.802      227.318       56.097        0.061      345.339       22.793      861.465
08/04/2014  04:20:00     -173.696      -74.749        0.702      114.397      109.232       55.017    13086.683    11931.725     3026.916        3.190        1.402      189.097       51.197        0.073      345.347       22.810      861.474
08/04/2014  04:21:00     -139.265      -92.926        0.465      105.927       91.793       54.836    11220.552     8425.920     3006.973        2.534        1.133      167.422       54.869        0.107      345.377       22.863      861.477
08/04/2014  04:22:00     -141.051      -74.479        7.372      134.988       89.404       55.946    18221.642     7993.024     3129.942        2.741        1.467      159.507       56.872        0.127      345.378       22.864      861.493
08/04/2014  04:23:00     -142.796      -46.440        8.587      110.617       71.897       50.685    12236.230     5169.169     2568.974        2.129        0.999      150.158       46.984        0.098      345.366       22.843      861.495
08/04/2014  04:24:00      -94.018      -60.333       10.580       75.845       65.664       38.415     5752.528     4311.702     1475.715        1.206        0.577      111.711       31.512        0.080      345.364       22.841      861.494
08/04/2014  04:25:00     -203.285      -82.913       -4.378      145.703      122.477       74.706    21229.349    15000.584     5580.996        4.501        2.091      219.544       80.790        0.135      345.362       22.834      861.472
08/04/2014  04:26:00     -356.407     -191.245      -13.964      182.899      111.217       69.388    33452.085    12369.205     4814.725       10.721        2.532      404.475       61.280        0.023      345.378       22.863      861.483
08/04/2014  04:27:00     -195.760     -108.739      -12.845      174.938      119.248       71.551    30603.365    14220.113     5119.503        5.012        2.497      223.933       67.079        0.090      345.367       22.845      861.488
08/04/2014  04:28:00     -242.617     -115.333        4.126      192.514      116.443       73.555    37061.452    13559.051     5410.364        6.410        2.802      268.635       89.005        0.110      345.360       22.832      861.487
08/04/2014  04:29:00     -293.708      -62.530      -17.467      126.399      106.393       60.210    15976.728    11319.380     3625.303        6.069        1.546      300.291       62.403        0.043      345.345       22.804      861.478
08/04/2014  04:30:00     -136.182      -69.523       20.522      165.722      105.891       73.460    27463.633    11212.923     5396.358        3.393        2.204      152.902       91.915        0.361      345.341       22.798      861.484
08/04/2014  04:31:00     -240.640      -62.230      -18.281      143.557       94.953       59.954    20608.741     9016.032     3594.443        4.766        1.661      248.556       66.014        0.071      345.326       22.773      861.484
08/04/2014  04:32:00     -212.047      -92.711       -1.982      147.538      114.436       62.541    21767.541    13095.525     3911.426        4.616        1.939      231.428       78.523        0.115      345.332       22.785      861.496
08/04/2014  04:33:00     -233.486      -88.360      -10.849      111.901       74.037       51.629    12521.837     5481.529     2665.567        4.155        1.033      249.646       54.646        0.048      345.326       22.772      861.499
08/04/2014  04:34:00     -202.647     -117.806       -5.279      165.887      100.610       64.800    27518.658    10122.365     4199.040        4.840        2.092      234.401       85.917        0.134      345.295       22.721      861.495
08/04/2014  04:35:00     -210.654      -68.543      -10.588      126.432       78.744       47.863    15985.076     6200.672     2290.855        3.683        1.224      221.525       48.678        0.048      345.289       22.711      861.503
08/04/2014  04:36:00     -115.272      -19.830        2.596      115.317       79.356       52.486    13298.106     6297.435     2754.787        1.801        1.118      116.965       60.474        0.267      345.277       22.691      861.480
08/04/2014  04:37:00     -190.446      -36.597       -1.452       86.715       71.135       50.979     7519.429     5060.151     2598.828        2.639        0.759      193.931       50.066        0.067      345.248       22.638      861.483
08/04/2014  04:38:00     -100.278        2.908        7.190       96.819       73.198       51.001     9373.935     5357.984     2601.127        1.372        0.867      100.320       48.278        0.232      345.243       22.630      861.487
08/04/2014  04:39:00     -194.838       -2.602       -1.496      117.471       63.382       45.938    13799.506     4017.242     2110.311        2.895        0.996      194.856       54.187        0.077      345.238       22.622      861.503
08/04/2014  04:40:00     -308.423     -116.847       -5.236       95.682       88.793       51.986     9155.111     7884.114     2702.573        6.427        0.987      329.815       40.855        0.015      345.257       22.655      861.504
08/04/2014  04:41:00     -166.496      -14.470        8.237       79.676       78.150       44.680     6348.258     6107.439     1996.320        2.122        0.723      167.123       36.887        0.049      345.242       22.629      861.507
08/04/2014  04:42:00     -175.090      -15.923      -10.542       89.789       61.206       37.868     8061.998     3746.151     1433.971        2.213        0.662      175.813       40.049        0.052      345.260       22.660      861.498
08/04/2014  04:43:00     -155.090      -45.579       -0.184       95.673       64.260       42.292     9153.247     4129.356     1788.624        2.060        0.754      161.649       44.155        0.075      345.254       22.649      861.507
08/04/2014  04:44:00     -326.046      -23.724      -37.247       82.222       65.341       38.569     6760.422     4269.509     1487.548        6.038        0.626      326.908       41.008        0.016      345.290       22.710      861.508
08/04/2014  04:45:00     -164.682      -14.406      -10.000       83.959       52.937       42.007     7049.121     2802.278     1764.599        1.952        0.581      165.311       45.337        0.075      345.262       22.662      861.536
08/04/2014  04:46:00     -144.457     -107.300       -0.539       77.439       58.797       34.735     5996.732     3457.102     1206.507        2.152        0.533      179.948       28.642        0.025      345.270       22.676      861.544
08/04/2014  04:47:00     -247.906      -17.569      -14.445      114.808       73.169       49.748    13180.962     5353.648     2474.822        4.149        1.050      248.527       52.814        0.045      345.256       22.653      861.562
08/04/2014  04:48:00     -238.259      -12.737        2.662      105.517      100.805       59.645    11133.890    10161.663     3557.575        4.089        1.243      238.600       54.335        0.052      345.262       22.663      861.574
08/04/2014  04:49:00     -244.308       -8.347      -11.838       91.363       71.153       41.496     8347.121     5062.786     1721.885        3.751        0.757      244.450       30.315        0.015      345.277       22.690      861.591
08/04/2014  04:50:00     -120.891        2.463        6.594       80.165       74.974       44.954     6426.439     5621.133     2020.848        1.436        0.703      120.916       44.536        0.136      345.270       22.678      861.596
08/04/2014  04:51:00     -165.528      -18.270       -2.146       96.785       96.724       56.058     9367.378     9355.567     3142.505        2.480        1.093      166.533       60.547        0.132      345.286       22.705      861.608
08/04/2014  04:52:00     -183.043      -24.693       -3.926      156.007       86.938       46.909    24338.191     7558.271     2200.474        3.411        1.705      184.702       66.275        0.129      345.287       22.709      861.639
08/04/2014  04:53:00     -279.797       32.739      -14.300      147.780      119.220       64.477    21838.922    14213.522     4157.298        5.988        2.010      281.706       71.161        0.064      345.264       22.667      861.653
08/04/2014  04:54:00     -267.560       20.531      -24.798      119.798       96.728       57.407    14351.577     9356.398     3295.517        4.981        1.350      268.347       56.936        0.045      345.259       22.657      861.685
08/04/2014  04:55:00     -226.270      -67.695      -19.171      117.348      113.220       57.940    13770.472    12818.835     3357.051        4.304        1.497      236.179       56.635        0.058      345.260       22.660      861.694
08/04/2014  04:56:00     -198.272      -64.570       -0.663      136.555       79.659       50.910    18647.323     6345.608     2591.811        3.553        1.379      208.521       61.281        0.086      345.269       22.676      861.696
08/04/2014  04:57:00     -400.704      -19.205      -19.782      177.107       89.155       68.928    31366.800     7948.690     4751.092       10.269        2.203      401.164       71.935        0.032      345.267       22.671      861.704
08/04/2014  04:58:00     -374.389      -12.749      -22.700      107.696       79.107       51.558    11598.477     6257.880     2658.236        8.068        1.026      374.606       55.995        0.022      345.256       22.653      861.728
08/04/2014  04:59:00     -266.133      -45.588      -16.783      155.552      102.342       55.243    24196.494    10473.847     3051.751        5.545        1.886      270.010       69.858        0.067      345.262       22.664      861.719
08/04/2014  05:00:00     -184.012      -52.807      -10.874       87.486       81.790       42.530     7653.756     6689.535     1808.786        2.646        0.808      191.439       41.341        0.047      345.267       22.672      861.714
08/04/2014  05:01:00     -305.146      -48.723      -10.818      142.564       95.606       54.142    20324.500     9140.461     2931.324        6.399        1.620      309.011       62.529        0.041      345.249       22.640      861.717
08/04/2014  05:02:00     -257.300      -55.245       -3.997      138.320      119.799       57.402    19132.317    14351.693     3295.035        5.302        1.839      263.164       62.348        0.056      345.241       22.627      861.723
08/04/2014  05:03:00     -292.356      -57.980      -18.730       92.646      103.367       46.920     8583.223    10684.810     2201.530        5.532        1.073      298.050       41.218        0.019      345.255       22.652      861.727
08/04/2014  05:04:00     -243.898      -24.460      -24.134       91.504       69.915       42.919     8373.021     4888.085     1842.068        3.788        0.755      245.121       42.320        0.030      345.246       22.632      861.739
08/04/2014  05:05:00      -91.449      -36.025        2.469       72.176       49.050       38.547     5209.358     2405.895     1485.874        0.938        0.455       98.289       36.612        0.139      345.229       22.609      861.755
08/04/2014  05:06:00     -209.423      -43.484      -12.926       74.116       54.547       38.935     5493.220     2975.350     1515.900        2.795        0.499      213.890       41.664        0.038      345.219       22.589      861.759
08/04/2014  05:07:00     -150.667      -34.992        0.319      104.025       79.692       46.705    10821.260     6350.766     2181.379        2.164        0.968      154.677       49.984        0.104      345.190       22.540      861.766
08/04/2014  05:08:00     -211.935       30.856       -6.428       79.931       95.435       54.001     6388.980     9107.889     2916.139        3.216        0.921      214.169       42.975        0.040      345.203       22.561      861.773
08/04/2014  05:09:00     -297.529      -15.780      -23.641      121.113      105.122       46.799    14668.239    11050.624     2190.176        5.861        1.395      297.947       43.820        0.022      345.198       22.552      861.794
08/04/2014  05:10:00     -224.606      -74.106       -5.860      103.175       80.993       52.463    10645.140     6559.808     2752.374        3.796        0.998      236.515       52.752        0.050      345.165       22.496      861.801
08/04/2014  05:11:00     -211.348       -2.719      -18.348       65.273       83.287       39.611     4260.593     6936.789     1569.037        2.889        0.638      211.366       37.325        0.031      345.159       22.488      861.815
08/04/2014  05:12:00     -253.047      -17.842       -4.877      129.530      103.425       53.263    16777.922    10696.630     2836.992        4.734        1.516      253.675       61.444        0.059      345.134       22.444      861.821
08/04/2014  05:13:00     -101.401      -18.118       31.277      126.416      108.415       77.451    15981.082    11753.772     5998.643        2.265        1.687      103.007       80.417        0.609      345.142       22.459      861.819
08/04/2014  05:14:00     -124.477      -46.147       11.214      151.602       83.627       63.272    22983.266     6993.477     4003.403        2.586        1.699      132.755       77.231        0.338      345.118       22.419      861.833
08/04/2014  05:15:00     -364.861        0.033      -23.548      141.389      112.688       62.785    19990.739    12698.544     3941.915        8.515        1.832      364.861       69.254        0.036      345.108       22.400      861.848
08/04/2014  05:16:00     -285.926      -57.441       -1.966      176.042      110.266       66.269    30990.782    12158.660     4391.620        6.629        2.377      291.639       89.147        0.093      345.118       22.416      861.852
08/04/2014  05:17:00     -229.194      -34.655      -27.738      115.545       76.864       46.499    13350.635     5908.090     2162.184        3.796        1.071      231.799       41.416        0.032      345.088       22.367      861.867
08/04/2014  05:18:00     -226.210        5.208      -16.871       79.595       58.444       41.886     6335.328     3415.706     1754.478        3.149        0.575      226.270       44.692        0.039      345.086       22.362      861.859
08/04/2014  05:19:00     -236.139      -25.167      -14.573       79.130       59.712       41.897     6261.547     3565.566     1755.386        3.409        0.579      237.476       38.546        0.026      345.079       22.350      861.867
08/04/2014  05:20:00     -266.003      -41.461      -31.834       55.627      103.381       46.129     3094.330    10687.669     2127.848        4.470        0.795      269.215       30.253        0.013      345.066       22.328      861.869
08/04/2014  05:21:00     -117.492      -38.093        2.172       82.418       83.619       45.995     6792.665     6992.208     2115.526        1.558        0.795      123.513       40.544        0.108      345.023       22.257      861.863
08/04/2014  05:22:00     -306.070      -62.021      -29.772       77.687       85.712       37.291     6035.235     7346.609     1390.602        5.659        0.739      312.291       37.698        0.015      345.014       22.240      861.882
08/04/2014  05:23:00     -282.473      -74.610      -12.831       92.713       78.911       44.835     8595.658     6227.006     2010.172        5.117        0.842      292.161       46.038        0.025      344.995       22.205      861.881
08/04/2014  05:24:00     -313.067     -109.200      -13.661       85.604       78.327       53.028     7328.054     6135.196     2811.961        6.320        0.814      331.565       38.481        0.013      344.981       22.181      861.881
08/04/2014  05:25:00     -214.913      -31.160       -2.370       87.570       70.428       39.799     7668.561     4960.140     1583.963        3.069        0.711      217.160       41.263        0.036      344.952       22.133      861.905
08/04/2014  05:26:00     -287.334      -84.050       -8.537       84.144       83.639       47.687     7080.211     6995.445     2274.080        5.302        0.817      299.375       31.323        0.011      344.976       22.174      861.914
08/04/2014  05:27:00     -298.554      -35.207      -18.654      109.068       87.542       50.455    11895.871     7663.684     2545.666        5.641        1.105      300.623       50.269        0.028      344.996       22.208      861.910
08/04/2014  05:28:00     -171.361      -73.959       -2.869      108.117       81.562       53.410    11689.287     6652.372     2852.662        2.801        1.060      186.640       52.549        0.079      344.967       22.159      861.924
08/04/2014  05:29:00     -166.789      -51.160       11.142      104.670       67.900       44.715    10955.722     4610.462     1999.415        2.406        0.878      174.459       50.690        0.084      344.958       22.143      861.933
08/04/2014  05:30:00     -137.569      -75.679        4.078      102.875       71.910       40.956    10583.305     5171.067     1677.415        2.105        0.872      157.011       49.707        0.100      344.982       22.185      861.939
08/04/2014  05:31:00     -237.913      -44.549       -5.766      137.637      110.223       60.107    18944.031    12149.176     3612.818        4.666        1.735      242.048       68.074        0.079      344.976       22.175      861.956
08/04/2014  05:32:00     -395.629       23.988      -29.956      121.122       81.103       57.331    14670.451     6577.737     3286.816        9.126        1.227      396.356       59.660        0.023      345.014       22.240      861.995
08/04/2014  05:33:00     -141.417       -2.924        0.348      100.145       95.894       48.552    10029.005     9195.700     2357.327        2.079        1.079      141.448       51.482        0.132      344.988       22.195      861.984
08/04/2014  05:34:00     -200.124       58.609      -19.901       80.068       57.343       32.641     6410.912     3288.208     1065.430        2.732        0.538      208.530       30.968        0.022      345.002       22.217      861.973
08/04/2014  05:35:00      -66.933       -7.796       20.642       89.312       68.559       41.827     7976.573     4700.375     1749.520        0.969        0.721       67.386       46.957        0.486      344.988       22.197      861.972
08/04/2014  05:36:00     -195.418      -69.098       -4.771       95.207       69.126       46.010     9064.309     4778.466     2116.944        2.947        0.798      207.274       40.411        0.038      344.968       22.162      861.986
08/04/2014  05:37:00     -244.387      -75.154       -6.909      102.722       91.528       49.039    10551.851     8377.286     2404.836        4.337        1.067      255.682       44.302        0.030      344.972       22.166      861.996
08/04/2014  05:38:00     -167.836      -15.750        7.496       86.078       78.960       47.501     7409.418     6234.689     2256.305        2.218        0.795      168.574       44.278        0.069      344.968       22.163      862.006
08/04/2014  05:39:00     -141.612        8.635        6.724      111.780       53.644       43.050    12494.772     2877.630     1853.345        1.870        0.861      141.875       54.968        0.150      344.980       22.182      862.008
08/04/2014  05:40:00     -143.022      -55.644       -2.182       95.076       73.612       52.298     9039.359     5418.655     2735.089        2.037        0.860      153.465       59.658        0.151      344.985       22.190      861.997
08/04/2014  05:41:00      -74.367      -34.533       27.346      101.204       94.090       58.372    10242.241     8852.875     3407.239        1.498        1.125       81.994       58.658        0.512      344.993       22.206      861.993
08/04/2014  05:42:00     -152.209       -8.851        1.541      101.382       82.247       38.722    10278.246     6764.589     1499.400        2.089        0.927      152.466       41.629        0.075      344.986       22.191      862.012
08/04/2014  05:43:00     -131.853      -40.391        2.279      124.399       74.100       48.088    15475.158     5490.771     2312.424        2.115        1.164      137.901       61.533        0.199      344.966       22.159      862.031
08/04/2014  05:44:00     -153.821      -59.874        1.838       68.463       76.019       34.459     4687.136     5778.901     1187.393        1.945        0.583      165.064       35.486        0.046      344.966       22.160      862.044
08/04/2014  05:45:00     -113.817     -117.116       -4.547       94.451       70.691       39.112     8921.079     4997.175     1529.747        2.107        0.772      163.311       43.239        0.070      344.983       22.186      862.055
08/04/2014  05:46:00     -268.582     -141.934       -9.747      137.123       85.254       50.625    18802.844     7268.316     2562.866        6.050        1.432      303.779       59.677        0.039      344.954       22.136      862.068
08/04/2014  05:47:00     -140.006      -76.685       -6.577       73.520       52.022       37.929     5405.260     2706.256     1438.608        1.754        0.478      159.632       39.151        0.060      344.974       22.173      862.075
08/04/2014  05:48:00      -93.982      -24.272        4.561       36.192       52.933       26.162     1309.840     2801.937      684.472        0.712        0.240       97.066       24.830        0.065      344.955       22.141      862.090
08/04/2014  05:49:00     -115.559      -97.466        3.588       82.862       73.427       43.346     6866.135     5391.482     1878.897        1.850        0.707      151.173       42.372        0.079      344.898       22.041      862.106
08/04/2014  05:50:00     -205.554      -48.063      -22.945       92.816      110.560       39.682     8614.740    12223.549     1574.632        3.375        1.121      211.098       27.905        0.017      344.890       22.029      862.115
08/04/2014  05:51:00     -189.477     -140.750        0.140      107.201       59.107       47.943    11492.071     3493.679     2298.563        3.649        0.864      236.035       56.771        0.058      344.922       22.081      862.123
08/04/2014  05:52:00     -101.560      -56.902       13.035       87.029       39.370       32.673     7574.099     1550.011     1067.558        1.195        0.510      116.414       41.986        0.130      344.888       22.025      862.141
08/04/2014  05:53:00      -36.920      -97.479        1.739       41.957       50.283       24.437     1760.384     2528.406      597.180        0.788        0.244      104.236       15.430        0.022      344.876       22.007      862.177
08/04/2014  05:54:00      -31.739      -87.177       12.166       35.482       45.265       17.492     1258.982     2048.901      305.978        0.618        0.181       92.775       16.456        0.031      344.875       22.007      862.185
08/04/2014  05:55:00      -52.703     -112.634      -14.258       82.930       54.209       40.728     6877.439     2938.668     1658.792        1.357        0.574      124.354       34.869        0.079      344.847       21.955      862.180
08/04/2014  05:56:00      -48.438      -86.725       12.541       79.743       54.100       36.268     6358.986     2926.791     1315.374        1.031        0.530       99.335       26.901        0.073      344.768       21.820      862.204
08/04/2014  05:57:00      -77.386      -76.957        3.086       53.495       31.671       24.220     2861.732     1003.044      586.604        0.819        0.223      109.137       16.961        0.024      344.745       21.782      862.218
08/04/2014  05:58:00      -39.745     -126.263        3.834       63.280       43.345       31.503     4004.318     1878.786      992.461        1.220        0.344      132.371       30.472        0.053      344.775       21.832      862.217
08/04/2014  05:59:00      -18.794      -92.889       10.473       39.878       54.580       27.357     1590.282     2978.980      748.381        0.720        0.266       94.771       26.111        0.076      344.746       21.782      862.216
08/04/2014  06:00:00      -32.327      -42.990       -9.967       33.086       22.529       24.274     1094.700      507.557      589.216        0.259        0.110       53.788       14.315        0.071      344.723       21.744      862.208
08/04/2014  06:01:00      -56.282      -50.813        2.736       44.499       34.251       22.966     1980.203     1173.135      527.444        0.472        0.184       75.826       19.637        0.067      344.740       21.773      862.201
08/04/2014  06:02:00      -17.769      -37.330        9.171       23.337       21.451       17.522      544.615      460.146      307.021        0.155        0.066       41.343       14.282        0.119      344.709       21.719      862.206
08/04/2014  06:03:00        0.947      -72.786      -10.234       37.149       41.697       29.092     1380.014     1738.633      846.319        0.468        0.198       72.793       27.228        0.140      344.814       21.899      862.208
08/04/2014  06:04:00      -17.867      -66.015        2.030       33.933       40.591       23.268     1151.431     1647.608      541.384        0.401        0.167       68.390       19.354        0.080      344.809       21.891      862.224
08/04/2014  06:05:00      -45.881      -78.795       -4.735       52.812       60.125       33.483     2789.059     3614.963     1121.098        0.793        0.376       91.180       36.296        0.158      344.762       21.811      862.223
08/04/2014  06:06:00        9.025      -61.804        6.457       51.541       79.409       43.465     2656.501     6305.782     1889.219        0.739        0.543       62.459       35.341        0.320      344.728       21.754      862.215
08/04/2014  06:07:00      -87.429      -27.075      -13.870       21.938       36.675       17.392      481.286     1345.079      302.487        0.535        0.106       91.525       13.433        0.022      344.771       21.825      862.217
08/04/2014  06:08:00      -38.007        6.454       16.906       22.508       21.944       13.600      506.617      481.557      184.953        0.147        0.059       38.551       10.526        0.075      344.718       21.734      862.227
08/04/2014  06:09:00      -32.253      -29.611        2.043       28.924       20.958       14.605      836.581      439.247      213.306        0.170        0.074       43.784        8.576        0.038      344.677       21.665      862.249
08/04/2014  06:10:00      -88.352      -42.165       -0.579       33.571       36.788       22.004     1126.980     1353.393      484.174        0.627        0.148       97.898       11.222        0.013      344.746       21.783      862.266
08/04/2014  06:11:00      -12.592      -13.910       10.190       35.120       39.008       21.077     1233.447     1521.655      444.223        0.183        0.160       18.763       20.698        1.217      344.720       21.739      862.262
08/04/2014  06:12:00      -20.220        1.196       -5.044       22.091       20.336       16.686      488.004      413.560      278.430        0.081        0.059       20.256       12.113        0.358      344.680       21.669      862.254
08/04/2014  06:13:00      -59.050      -28.591       -8.198       34.102       32.301       16.735     1162.925     1043.381      280.046        0.343        0.124       65.608       14.461        0.049      344.754       21.798      862.258
08/04/2014  06:14:00     -130.341      -49.649       -3.251       56.344       46.553       27.860     3174.673     2167.139      776.192        1.279        0.306      139.476       16.963        0.015      344.678       21.666      862.271
08/04/2014  06:15:00      -39.915      -20.719        8.553       39.440       23.553       18.997     1555.545      554.744      360.900        0.228        0.124       44.972       17.510        0.152      344.569       21.481      862.268
08/04/2014  06:16:00      -22.067      -28.231       -2.958       31.360       25.073       16.538      983.473      628.634      273.508        0.159        0.094       35.832       18.453        0.265      344.692       21.691      862.260
08/04/2014  06:17:00       17.190       55.112       26.350       56.782       38.140       48.912     3224.249     1454.690     2392.403        0.555        0.354       57.730       28.628        0.246      344.712       21.726      862.242
08/04/2014  06:18:00      -92.299      -16.664       -1.198       35.255       35.204       21.296     1242.907     1239.342      453.499        0.587        0.147       93.791       16.923        0.033      344.692       21.691      862.249
08/04/2014  06:19:00      -77.402      -15.061       16.244       73.026       47.494       29.067     5332.814     2255.693      844.863        0.746        0.422       78.854       36.688        0.216      344.588       21.513      862.275
08/04/2014  06:20:00      -10.454      -39.032       15.147       42.247       30.268       24.410     1784.808      916.170      595.862        0.258        0.165       40.407       22.383        0.307      344.583       21.507      862.292
08/04/2014  06:21:00      -13.994      -73.332        2.063       25.451       34.666       13.791      647.776     1201.723      190.181        0.381        0.102       74.655       11.762        0.025      344.646       21.613      862.302
08/04/2014  06:22:00      -69.992      -56.870       -8.380       27.448       35.944       18.144      753.416     1291.984      329.195        0.529        0.119       90.184       16.775        0.035      344.663       21.642      862.319
08/04/2014  06:23:00     -181.943      -31.626      -19.805       70.281       64.434       31.349     4939.420     4151.678      982.776        2.228        0.504      184.671       25.952        0.020      344.677       21.664      862.329
08/04/2014  06:24:00     -169.974      -49.388      -11.012      104.735       53.484       37.501    10969.489     2860.524     1406.323        2.334        0.762      177.003       46.694        0.070      344.565       21.472      862.349
08/04/2014  06:25:00      -64.953      -70.207       10.010       41.311       46.162       24.449     1706.636     2130.887      597.740        0.684        0.222       95.645       15.294        0.026      344.615       21.560      862.369
08/04/2014  06:26:00     -145.050      -74.689       -7.991       71.411       62.824       33.297     5099.492     3946.895     1108.659        1.842        0.508      163.151       23.456        0.021      344.562       21.467      862.380
08/04/2014  06:27:00     -160.864      -33.769       -9.973       43.530       31.772       22.607     1894.864     1009.485      511.069        1.527        0.171      164.370       20.343        0.015      344.541       21.434      862.395
08/04/2014  06:28:00     -116.499      -57.279       -2.311       37.892       36.701       25.353     1435.817     1346.936      642.775        1.014        0.171      129.819       18.460        0.020      344.488       21.344      862.395
08/04/2014  06:29:00     -104.892      -46.438      -11.673       27.885       27.441       19.859      777.548      752.987      394.367        0.761        0.096      114.712       13.075        0.013      344.499       21.361      862.397
08/04/2014  06:30:00      -77.087      -27.014       -0.428       32.517       24.995       18.956     1057.382      624.774      359.320        0.436        0.102       81.683       14.548        0.032      344.449       21.275      862.403
08/04/2014  06:31:00     -135.421        1.855       -8.111       51.608       35.146       27.489     2663.423     1235.247      755.624        1.153        0.233      135.433       27.390        0.041      344.440       21.260      862.405
08/04/2014  06:32:00     -103.055      -25.676        2.056       35.649       39.294       20.713     1270.883     1544.043      429.014        0.726        0.162      106.206       17.236        0.026      344.377       21.151      862.415
08/04/2014  06:33:00      -76.099      -22.792        1.854       43.428       27.036       22.644     1886.024      730.944      512.770        0.472        0.156       79.439       24.252        0.093      344.425       21.234      862.413
08/04/2014  06:34:00     -111.173      -14.826        0.678       58.137       30.503       26.440     3379.878      930.415      699.053        0.879        0.250      112.157       29.707        0.070      344.425       21.235      862.411
08/04/2014  06:35:00     -136.006       -3.583      -12.237       29.847       33.417       20.340      890.828     1116.690      413.704        1.054        0.121      136.053       16.623        0.015      344.451       21.281      862.416
08/04/2014  06:36:00     -148.005      -63.745       -9.303       51.463       35.187       23.272     2648.455     1238.122      541.601        1.524        0.221      161.149       25.006        0.024      344.489       21.345      862.434
08/04/2014  06:37:00      -98.048      -49.138       -2.356       70.601       41.559       28.570     4984.488     1727.132      816.227        0.978        0.376      109.672       29.579        0.073      344.486       21.336      862.435
08/04/2014  06:38:00      -15.560      -48.245       21.377       62.877       54.319       34.500     3953.514     2950.540     1190.217        0.556        0.405       50.692       36.016        0.505      344.509       21.379      862.443
08/04/2014  06:39:00     -111.701      -57.387       10.843       74.497       71.172       34.514     5549.758     5065.389     1191.243        1.384        0.590      125.580       31.979        0.065      344.524       21.402      862.448
08/04/2014  06:40:00     -113.547      -13.373       -3.575       46.918       47.838       26.850     2201.290     2288.478      720.912        0.915        0.261      114.332       28.749        0.063      344.595       21.525      862.467
08/04/2014  06:41:00     -175.993      -20.132      -16.488       36.721       31.965       22.767     1348.440     1021.757      518.346        1.727        0.144      177.140       18.783        0.011      344.478       21.326      862.492
08/04/2014  06:42:00     -123.570      -50.344       -4.209       67.669       42.636       29.370     4579.036     1817.833      862.590        1.254        0.363      133.432       16.167        0.015      344.401       21.193      862.511
08/04/2014  06:43:00     -127.900       -6.840       -6.468       24.685       23.791       19.853      609.358      566.022      394.127        0.901        0.078      128.082       15.305        0.014      344.408       21.206      862.535
08/04/2014  06:44:00     -103.883        1.357       -6.671       43.459       35.526       22.438     1888.669     1262.095      503.456        0.725        0.183      103.892       22.226        0.046      344.377       21.153      862.563
08/04/2014  06:45:00      -56.722        2.044       -8.901       28.812       34.281       18.845      830.143     1175.175      355.135        0.283        0.118       56.759       12.233        0.046      344.343       21.095      862.589
08/04/2014  06:46:00      -67.955       73.762      -15.033       23.723       36.511       13.754      562.767     1333.036      189.162        0.618        0.104      100.293        8.630        0.007      344.354       21.113      862.607
08/04/2014  06:47:00      -82.861       47.865      -10.567       30.457       21.721       22.086      927.650      471.799      487.770        0.558        0.094       95.692       20.955        0.048      344.388       21.171      862.621
08/04/2014  06:48:00      -65.031       58.097      -16.350       13.483       25.107       10.702      181.799      630.336      114.530        0.440        0.046       87.203        5.685        0.004      344.484       21.333      862.639
08/04/2014  06:49:00      -36.954       76.522       -4.591       31.480       35.471       16.269      990.987     1258.212      264.688        0.488        0.126       84.978       11.624        0.019      344.395       21.183      862.657
08/04/2014  06:50:00      -32.850       62.117      -17.633       22.856       32.037       16.631      522.393     1026.376      276.589        0.354        0.091       70.268       13.370        0.036      344.376       21.149      862.673
08/04/2014  06:51:00       -9.887       39.834       -5.211       28.652       22.632       10.740      820.925      512.227      115.354        0.158        0.072       41.043        7.477        0.033      344.350       21.106      862.688
08/04/2014  06:52:00        9.810       79.178       -9.061       18.830       30.526       14.556      354.582      931.828      211.874        0.397        0.075       79.783       18.059        0.051      344.345       21.098      862.709
08/04/2014  06:53:00       14.006       93.991      -13.880       24.247       29.772       12.920      587.909      886.373      166.936        0.543        0.082       95.029       13.098        0.019      344.316       21.049      862.742
08/04/2014  06:54:00       13.268      121.905      -15.699       26.241       36.717       20.571      688.567     1348.163      423.185        0.887        0.123      122.625       18.754        0.023      344.267       20.964      862.769
08/04/2014  06:55:00       13.865      123.978      -20.246       30.152       28.412       17.924      909.151      807.252      321.266        0.900        0.102      124.751       12.097        0.009      344.251       20.937      862.794
08/04/2014  06:56:00       -9.106      215.319      -34.702       48.617       56.623       24.141     2363.646     3206.201      582.774        2.690        0.308      215.511        9.543        0.002      344.241       20.916      862.815
08/04/2014  06:57:00      -18.129      143.374      -16.988       42.982       52.880       25.779     1847.492     2796.332      664.574        1.324        0.265      144.515       21.939        0.023      344.177       20.811      862.831
08/04/2014  06:58:00        9.520       82.796        1.790       36.042       48.800       34.100     1299.056     2381.406     1162.792        0.590        0.242       83.342       27.837        0.112      344.142       20.751      862.847
08/04/2014  06:59:00        2.441       95.154       -4.165       30.583       49.811       29.683      935.327     2481.090      881.070        0.669        0.215       95.185       30.925        0.106      344.122       20.716      862.853
08/04/2014  07:00:00       17.433       91.390      -15.609       29.260       43.516       16.348      856.142     1893.622      267.257        0.596        0.151       93.038       17.509        0.035      344.096       20.674      862.856
08/04/2014  07:01:00       55.296       41.525       19.913       46.029       25.639       31.178     2118.701      657.348      972.079        0.446        0.187       69.152       24.858        0.129      344.046       20.588      862.857
08/04/2014  07:02:00        5.208       30.730        0.149       35.178       28.067       23.068     1237.518      787.765      532.142        0.176        0.128       31.168       21.587        0.480      344.047       20.592      862.857
08/04/2014  07:03:00      -51.311      117.244      -15.538       31.724       65.166       22.036     1006.438     4246.584      485.586        1.118        0.287      127.981       26.131        0.042      343.990       20.491      862.860
08/04/2014  07:04:00      -41.801      127.822      -11.827       39.836       78.930       35.907     1586.877     6229.990     1289.341        1.366        0.455      134.484       48.090        0.128      343.933       20.394      862.865
08/04/2014  07:05:00      -67.330      207.211      -24.188       37.910       51.825       26.424     1437.132     2685.867      698.241        2.644        0.241      217.875       19.349        0.008      343.892       20.321      862.866
08/04/2014  07:06:00      -44.250      194.003      -26.320       23.317       35.830       19.267      543.676     1283.766      371.216        2.124        0.110      198.986       13.535        0.005      343.857       20.264      862.877
08/04/2014  07:07:00      -49.124      151.901      -22.564       37.184       38.596       21.889     1382.646     1489.622      479.136        1.467        0.168      159.647       21.263        0.018      343.865       20.277      862.875
08/04/2014  07:08:00      -48.676       84.370      -12.596       26.700       66.949       22.263      712.911     4482.168      495.657        0.767        0.285       97.405       31.514        0.105      343.843       20.241      862.879
08/04/2014  07:09:00      -52.022       67.727       -6.147       26.154       52.743       19.722      684.040     2781.837      388.975        0.559        0.193       85.401       21.172        0.061      343.830       20.217      862.884
08/04/2014  07:10:00      -33.600       14.421        1.165       28.901       25.127       20.737      835.264      631.372      430.026        0.162        0.095       36.564       10.356        0.080      343.802       20.173      862.892
08/04/2014  07:11:00      -61.662       24.591       -5.153       26.536       17.408       12.501      704.146      303.054      156.267        0.280        0.058       66.385        9.701        0.021      343.753       20.086      862.905
08/04/2014  07:12:00      -87.202       59.460      -25.599       28.769       29.694       16.341      827.674      881.711      267.027        0.689        0.099      105.545       14.193        0.018      343.810       20.185      862.918
08/04/2014  07:13:00      -83.405       26.208      -15.388       21.597       37.584       17.894      466.422     1412.584      320.196        0.504        0.110       87.426       21.149        0.059      343.753       20.086      862.926
08/04/2014  07:14:00     -122.831      125.225      -31.714       39.779       33.751       24.180     1582.330     1139.097      584.688        1.754        0.165      175.410        9.590        0.003      343.643       19.898      862.944
08/04/2014  07:15:00      -64.226      104.386      -10.906       21.408       48.806       22.359      458.291     2382.028      499.904        0.924        0.167      122.562       18.007        0.022      343.619       19.857      862.959
08/04/2014  07:16:00      -74.766       64.427       -8.414       25.059       49.717       20.601      627.929     2471.798      424.382        0.667        0.176       98.695       18.149        0.034      343.576       19.786      862.970
08/04/2014  07:17:00      -55.853       30.540      -10.595       19.958       36.035       12.255      398.311     1298.487      150.190        0.301        0.092       63.658       10.879        0.029      343.590       19.808      862.981
08/04/2014  07:18:00      -77.633      -25.033      -10.943       46.989       24.232       21.278     2207.964      587.209      452.741        0.501        0.162       81.569       11.234        0.019      343.586       19.800      862.985
08/04/2014  07:19:00      -82.745       44.212      -17.919       35.625       45.769       19.327     1269.108     2094.809      373.551        0.643        0.187       93.816       15.673        0.028      343.463       19.592      862.994
08/04/2014  07:20:00      -85.901       -9.567      -13.121       19.906       33.358       15.020      396.252     1112.729      225.602        0.469        0.087       86.432        9.161        0.011      343.525       19.698      862.989
08/04/2014  07:21:00     -119.860        9.180       -9.891       28.454       25.909       16.124      809.655      671.293      259.970        0.814        0.087      120.211       13.397        0.012      343.480       19.621      862.991
08/04/2014  07:22:00      -31.150       13.916        0.585       43.655       14.581       17.336     1905.770      212.620      300.525        0.179        0.121       34.117       18.761        0.302      343.413       19.507      862.994
08/04/2014  07:23:00      -31.733       14.349        0.516       21.602       23.515       11.647      466.631      552.949      135.657        0.118        0.058       34.826        7.518        0.047      343.418       19.514      862.985
08/04/2014  07:24:00     -100.273       86.134      -26.137       32.543       51.457       21.676     1059.018     2647.840      469.849        1.117        0.209      132.188       26.171        0.039      343.370       19.433      862.983
08/04/2014  07:25:00      -95.914       80.194      -20.877       36.980       35.473       25.669     1367.517     1258.351      658.876        0.967        0.164      125.022       24.030        0.037      343.278       19.275      862.984
08/04/2014  07:26:00      -84.659      108.876      -22.538       33.311       32.012       20.096     1109.633     1024.752      403.841        1.103        0.127      137.917       21.370        0.024      343.277       19.275      862.987
08/04/2014  07:27:00      -94.231       67.331      -22.834       17.849       28.065       14.736      318.601      787.660      217.145        0.763        0.066      115.814       13.754        0.014      343.348       19.397      862.993
08/04/2014  07:28:00      -71.999       -4.049       -7.697       33.826       23.327       15.951     1144.216      544.151      254.429        0.360        0.097       72.113       18.863        0.068      343.338       19.380      862.994
08/04/2014  07:29:00      -76.222      -44.837       -4.990       42.947       20.319       16.889     1844.455      412.869      285.251        0.519        0.127       88.432        7.626        0.007      343.223       19.182      862.993
08/04/2014  07:30:00      -48.518      -36.422        3.713       39.925       24.956       22.683     1594.016      622.820      514.535        0.321        0.137       60.668       15.563        0.066      343.257       19.242      862.993
08/04/2014  07:31:00     -129.957      -38.564      -15.914       31.943       20.968       15.552     1020.353      439.644      241.850        1.017        0.085      135.558        7.360        0.003      343.089       18.956      863.009
08/04/2014  07:32:00     -110.894      -48.272        6.181       38.743       38.224       24.755     1500.998     1461.039      612.797        0.912        0.179      120.945       25.923        0.046      343.122       19.012      863.010
08/04/2014  07:33:00      -95.550      -15.986        0.212       49.845       38.666       25.612     2484.498     1495.086      655.984        0.701        0.232       96.878       26.630        0.076      343.098       18.971      863.020
08/04/2014  07:34:00     -102.642      -27.572        4.796       53.396       36.299       24.526     2851.102     1317.608      601.535        0.804        0.239      106.281       27.454        0.067      343.089       18.954      863.018
08/04/2014  07:35:00      -81.252      -31.667        5.957       59.408       54.509       24.268     3529.358     2971.254      588.952        0.736        0.354       87.205       26.642        0.093      343.070       18.922      863.013
08/04/2014  07:36:00     -129.820      -62.417       -2.747       47.957       30.352       22.122     2299.916      921.261      489.395        1.223        0.186      144.046       23.886        0.027      342.969       18.750      863.015
08/04/2014  07:37:00     -124.657      -57.613        0.019       40.863       43.532       21.228     1669.800     1895.072      450.630        1.144        0.201      137.327       21.869        0.025      342.943       18.707      863.022
08/04/2014  07:38:00     -107.514      -52.000        1.306       63.231       43.523       29.746     3998.213     1894.252      884.822        1.052        0.339      119.429       29.570        0.061      342.908       18.647      863.028
08/04/2014  07:39:00     -109.972      -65.978       -6.581       42.105       34.255       22.154     1772.865     1173.408      490.779        0.996        0.172      128.246       23.740        0.034      342.909       18.649      863.037
08/04/2014  07:40:00      -81.106      -45.245        3.478       44.134       37.114       26.576     1947.831     1377.431      706.302        0.633        0.202       92.872       25.316        0.074      342.924       18.675      863.032
08/04/2014  07:41:00      -80.668      -31.256        0.097       35.407       34.022       21.808     1253.668     1157.505      475.572        0.518        0.144       86.511       15.236        0.031      342.910       18.651      863.044
08/04/2014  07:42:00      -86.714      -14.042       -2.878       24.039       24.585       13.804      577.862      604.419      190.557        0.455        0.069       87.844       11.791        0.018      342.924       18.675      863.046
08/04/2014  07:43:00      -66.158      -21.031       -5.872       22.093       24.267       14.779      488.107      588.870      218.432        0.307        0.065       69.420       12.996        0.035      342.954       18.726      863.057
08/04/2014  07:44:00      -84.071      -13.252       -7.620       30.924       18.524       12.590      956.313      343.137      158.502        0.438        0.073       85.109       11.724        0.019      342.941       18.702      863.061
08/04/2014  07:45:00      -41.346      -63.628       -1.121       27.241       25.172       16.662      742.096      633.648      277.613        0.371        0.083       75.882       15.252        0.040      342.940       18.702      863.077
08/04/2014  07:46:00      -36.712      -32.118        1.711       19.807       20.468       12.813      392.335      418.955      164.165        0.168        0.049       48.779       10.907        0.050      342.967       18.747      863.087
08/04/2014  07:47:00      -39.546       -6.746        3.412       20.114       15.171        9.067      404.589      230.160       82.213        0.117        0.036       40.117        9.327        0.054      342.960       18.738      863.100
08/04/2014  07:48:00      -42.369      -26.152       -5.271       23.520       13.640        8.649      553.203      186.060       74.798        0.166        0.041       49.790        7.707        0.024      343.013       18.827      863.111
08/04/2014  07:49:00      -46.655       -5.402       -1.005       14.461       14.415        8.912      209.120      207.789       79.431        0.135        0.025       46.966        7.531        0.026      342.994       18.794      863.128
08/04/2014  07:50:00      -30.534       -3.057       -2.750       18.337        9.877        7.037      336.229       97.555       49.521        0.072        0.024       30.687        2.428        0.006      342.958       18.731      863.147
08/04/2014  07:51:00      -45.148       -3.506        0.901       15.438       17.011       11.733      238.335      289.359      137.671        0.136        0.033       45.284        8.180        0.033      343.027       18.850      863.151
08/04/2014  07:52:00      -49.751        5.905       -0.135       11.544       14.452        8.037      133.271      208.853       64.599        0.146        0.020       50.101        6.975        0.019      343.013       18.827      863.161
08/04/2014  07:53:00      -30.067       13.090        4.028       15.026       10.746        7.493      225.794      115.478       56.152        0.074        0.020       32.792        6.918        0.045      343.022       18.840      863.164
08/04/2014  07:54:00      -11.404       22.176        5.922       12.251       14.057       14.784      150.099      197.609      218.556        0.061        0.028       24.937       11.793        0.224      342.985       18.777      863.163
08/04/2014  07:55:00        5.142       20.278       12.880       14.037       12.487       12.667      197.024      155.928      160.441        0.056        0.026       20.920        9.489        0.206      342.980       18.768      863.176
08/04/2014  07:56:00        6.992       32.940        2.615       12.246       17.127        9.030      149.975      293.332       81.539        0.083        0.026       33.674       10.081        0.090      343.010       18.821      863.181
08/04/2014  07:57:00       -0.702       63.799      -12.725        5.952       11.480        6.088       35.431      131.793       37.066        0.222        0.010       63.803        2.868        0.002      342.965       18.744      863.178
08/04/2014  07:58:00       -5.090       57.372       -4.560        9.337       10.757        8.245       87.187      115.716       67.980        0.180        0.014       57.598        3.445        0.004      343.013       18.825      863.176
08/04/2014  07:59:00        2.927       42.491       -0.970        7.966        9.319        8.356       63.463       86.847       69.818        0.102        0.011       42.592        6.314        0.022      343.045       18.877      863.191
08/04/2014  08:00:00       13.492       53.426       -0.967       13.536       15.496       11.153      183.237      240.121      124.394        0.179        0.027       55.103       11.930        0.047      343.016       18.828      863.197
08/04/2014  08:01:00       17.645       42.529       -4.596       12.309       18.009       12.287      151.505      324.324      150.972        0.138        0.031       46.044       13.407        0.085      342.987       18.782      863.196
08/04/2014  08:02:00       12.665       35.604       -8.470        9.479       10.885        7.577       89.848      118.492       57.408        0.088        0.013       37.789        6.570        0.030      342.954       18.725      863.198
08/04/2014  08:03:00        1.682       47.050       -5.425       12.152       13.539        6.962      147.680      183.309       48.476        0.131        0.019       47.080        2.778        0.003      342.958       18.731      863.200
08/04/2014  08:04:00      -21.664       19.146        3.452       11.355       14.665        8.884      128.932      215.074       78.924        0.064        0.021       28.912        7.156        0.061      342.949       18.718      863.213
08/04/2014  08:05:00       -0.957        7.678        9.376       10.630        8.954        9.309      112.994       80.176       86.653        0.021        0.014        7.737        7.447        0.926      342.961       18.736      863.220
08/04/2014  08:06:00        5.452       13.249       11.761       11.039       13.457        9.965      121.862      181.082       99.303        0.037        0.020       14.327        8.693        0.368      342.982       18.773      863.227
08/04/2014  08:07:00        5.342       31.117       -3.686        6.977        8.781        7.938       48.677       77.100       63.012        0.060        0.009       31.572        2.638        0.007      342.933       18.692      863.227
08/04/2014  08:08:00        9.414       40.875       -8.078        9.191       13.206        4.994       84.478      174.396       24.936        0.105        0.014       41.945        4.154        0.010      342.947       18.711      863.231
08/04/2014  08:09:00       18.015       24.899       -0.793       13.799       14.156       10.334      190.401      200.391      106.786        0.072        0.025       30.733        8.326        0.073      342.937       18.697      863.235
08/04/2014  08:10:00       55.057       34.078       -4.357       15.945       15.398       13.204      254.255      237.090      174.336        0.244        0.033       64.750        7.320        0.013      342.879       18.598      863.246
08/04/2014  08:11:00       60.280       27.128        1.504       18.490       12.029       14.244      341.874      144.695      202.900        0.253        0.034       66.103        7.594        0.013      342.802       18.467      863.267
08/04/2014  08:12:00       33.543       10.697        0.786       22.311       19.644       15.643      497.782      385.869      244.716        0.118        0.056       35.207       14.927        0.180      342.765       18.403      863.290
08/04/2014  08:13:00       19.564        7.238       -0.587       11.735        7.464        6.841      137.699       55.704       46.794        0.034        0.012       20.860        5.949        0.081      342.738       18.359      863.308
08/04/2014  08:14:00       36.935        5.882        5.147       19.160        8.541       10.466      367.101       72.948      109.528        0.099        0.027       37.400        2.996        0.006      342.776       18.421      863.321
08/04/2014  08:15:00       68.942       45.701        2.044       23.267       19.270       13.971      541.344      371.348      195.178        0.398        0.055       82.714       11.688        0.020      342.774       18.420      863.326
08/04/2014  08:16:00       98.330       57.922        0.310       21.082       23.025       25.315      444.451      530.164      640.860        0.732        0.081      114.121       11.359        0.010      342.777       18.424      863.343
08/04/2014  08:17:00       92.691       52.304        8.934       24.141       19.396       22.465      582.782      376.191      504.655        0.644        0.073      106.430       16.836        0.025      342.759       18.393      863.363
08/04/2014  08:18:00       97.440       64.284       -2.001       27.332       23.454       14.530      747.015      550.090      211.119        0.757        0.075      116.734        7.933        0.005      342.775       18.420      863.379
08/04/2014  08:19:00       79.994       40.572       -0.506       31.058       25.516       18.832      964.615      651.082      354.628        0.501        0.099       89.695       17.021        0.036      342.753       18.384      863.391
08/04/2014  08:20:00       84.329       43.038        9.314       31.908       24.581       22.012     1018.130      604.218      484.538        0.558        0.105       94.677       13.134        0.019      342.788       18.441      863.405
08/04/2014  08:21:00      104.842       44.979        3.182       33.241       19.269       16.718     1104.950      371.312      279.482        0.739        0.088      114.083       12.386        0.012      342.772       18.416      863.427
08/04/2014  08:22:00       78.804       37.454        6.311       50.339       30.570       27.009     2534.002      934.552      729.473        0.592        0.210       87.252       24.169        0.077      342.736       18.353      863.459
08/04/2014  08:23:00      104.209       59.667        2.055       25.401       21.752       19.958      645.205      473.131      398.312        0.797        0.076      120.082        8.814        0.005      342.679       18.256      863.481
08/04/2014  08:24:00       67.432       29.424        1.313       29.810       23.837       21.335      888.628      568.192      455.203        0.366        0.096       73.572       12.105        0.027      342.706       18.303      863.504
08/04/2014  08:25:00       76.873       49.167        5.770       31.897       26.306       12.626     1017.424      692.017      159.411        0.511        0.093       91.251        9.213        0.010      342.689       18.274      863.522
08/04/2014  08:26:00       13.044       31.822        9.206       22.963       24.055       18.707      527.297      578.665      349.941        0.136        0.073       34.391       14.161        0.170      342.694       18.283      863.538
08/04/2014  08:27:00       31.475       69.451        3.160       24.223       42.316       26.454      586.732     1790.629      699.799        0.445        0.154       76.250       26.950        0.125      342.671       18.243      863.560
08/04/2014  08:28:00       35.898       49.390        0.358       23.991       32.580       26.148      575.567     1061.469      683.718        0.302        0.116       61.058       22.053        0.130      342.666       18.235      863.575
08/04/2014  08:29:00       25.873       86.809      -10.378       25.567       43.940       24.469      653.647     1930.758      598.739        0.575        0.159       90.582       24.076        0.071      342.674       18.249      863.584
08/04/2014  08:30:00       19.547      105.039      -11.862       29.379       44.274       24.473      863.150     1960.174      598.910        0.749        0.171      106.843       22.905        0.046      342.654       18.215      863.592
08/04/2014  08:31:00       28.233      134.015      -17.210       25.353       42.308       24.705      642.785     1789.957      610.319        1.105        0.152      136.957       22.176        0.026      342.679       18.257      863.585
08/04/2014  08:32:00       15.654      140.134      -23.683       17.203       24.474       12.880      295.936      598.998      165.885        1.075        0.053      141.006        7.308        0.003      342.702       18.296      863.580
08/04/2014  08:33:00      -11.883      126.049      -19.533       20.416       31.565       12.093      416.795      996.332      146.231        0.898        0.078      126.608        5.017        0.002      342.769       18.410      863.569
08/04/2014  08:34:00       10.559      109.359      -19.324       11.335       14.691        7.684      128.482      215.825       59.046        0.642        0.020      109.868        6.891        0.004      342.790       18.444      863.567
08/04/2014  08:35:00       21.735       63.663       -0.516       19.475       31.938       20.179      379.295     1020.020      407.181        0.317        0.090       67.271       13.504        0.040      342.769       18.410      863.563
08/04/2014  08:36:00       22.257       32.567        6.218       29.934       20.568       20.171      896.070      423.028      406.887        0.166        0.086       39.446       15.214        0.149      342.752       18.383      863.574
08/04/2014  08:37:00       31.916       32.760       -1.334       25.584       25.826       16.388      654.548      666.976      268.564        0.184        0.080       45.736       15.929        0.121      342.732       18.346      863.590
08/04/2014  08:38:00       24.001       38.186       -5.622       20.323       20.265       16.724      413.008      410.658      279.705        0.158        0.055       45.102       14.036        0.097      342.727       18.339      863.598
08/04/2014  08:39:00       22.735       33.931       -2.673       15.113       23.087       14.103      228.406      533.013      198.886        0.132        0.048       40.844       14.049        0.118      342.725       18.339      863.598
08/04/2014  08:40:00       -6.743       53.503       -6.823       11.830       13.270        9.808      139.957      176.090       96.196        0.168        0.021       53.926        9.246        0.029      342.758       18.393      863.592
08/04/2014  08:41:00      -28.371        4.924       -1.234       15.209       14.057       10.095      231.312      197.597      101.901        0.068        0.027       28.796        7.119        0.061      342.688       18.275      863.583
08/04/2014  08:42:00      -42.116       11.786       -4.382       13.255        9.987        9.298      175.687       99.740       86.445        0.115        0.018       43.734        4.510        0.011      342.727       18.337      863.575
08/04/2014  08:43:00      -46.076       -9.075       -4.789       12.795       12.984        7.109      163.721      168.580       50.541        0.131        0.019       46.962        4.775        0.010      342.797       18.458      863.559
08/04/2014  08:44:00      -54.986      -29.889       -5.156       13.562       11.541       11.943      183.937      133.200      142.623        0.220        0.023       62.585        7.891        0.016      342.750       18.380      863.548
08/04/2014  08:45:00      -30.939      -12.952       -2.913       14.919       11.953       12.064      222.573      142.871      145.535        0.082        0.026       33.540       12.761        0.145      342.806       18.475      863.540
08/04/2014  08:46:00      -50.818      -20.936       -2.953       15.172       15.959        7.399      230.179      254.695       54.751        0.178        0.027       54.962        6.936        0.016      342.855       18.556      863.538
08/04/2014  08:47:00      -62.839      -25.558       -4.537       11.461       13.203       10.510      131.356      174.317      110.456        0.252        0.021       67.837        6.942        0.010      342.828       18.511      863.544
08/04/2014  08:48:00      -37.183      -62.996        8.264       36.028       48.473       19.071     1297.991     2349.592      363.712        0.471        0.201       73.151       19.899        0.074      342.875       18.590      863.554
08/04/2014  08:49:00        5.579      -99.642        6.171       24.329       28.810       18.692      591.919      830.035      349.395        0.588        0.089       99.798       12.173        0.015      342.879       18.597      863.562
08/04/2014  08:50:00      -52.665      -50.587       10.045       43.775       35.540       13.562     1916.260     1263.125      183.925        0.440        0.168       73.025       16.623        0.052      342.841       18.531      863.564
08/04/2014  08:51:00      -81.829      -64.982        1.172       44.079       39.014       21.976     1942.935     1522.081      482.943        0.743        0.197      104.492       20.990        0.040      342.813       18.484      863.571
08/04/2014  08:52:00      -76.181      -57.821        6.391       40.305       38.220       21.621     1624.474     1460.797      467.488        0.637        0.178       95.639       21.167        0.049      342.819       18.495      863.577
08/04/2014  08:53:00      -50.213      -57.812        6.647       35.145       39.474       18.909     1235.158     1558.231      357.543        0.453        0.158       76.574       14.769        0.037      342.823       18.501      863.572
08/04/2014  08:54:00      -45.511      -49.705       11.346       35.533       38.657       18.862     1262.587     1494.379      355.770        0.389        0.156       67.393       15.150        0.051      342.868       18.579      863.565
08/04/2014  08:55:00      -91.647      -64.002       -6.688       29.584       32.238       22.247      875.194     1039.261      494.913        0.747        0.120      111.783       16.480        0.022      342.833       18.521      863.562
08/04/2014  08:56:00     -126.290      -78.537       -4.334       56.710       39.145       24.264     3215.991     1532.303      588.756        1.374        0.267      148.719       18.890        0.016      342.854       18.552      863.556
08/04/2014  08:57:00     -113.182      -59.956        6.096       77.876       58.174       41.050     6064.700     3384.240     1685.099        1.379        0.557      128.082       37.295        0.085      342.840       18.530      863.561
08/04/2014  08:58:00     -100.623      -53.286       11.572       75.065       41.235       29.353     5634.704     1700.338      861.572        1.065        0.410      113.861       21.497        0.036      342.821       18.498      863.546
08/04/2014  08:59:00     -112.537      -76.942        2.417       51.777       47.222       29.363     2680.837     2229.932      862.189        1.218        0.289      136.326       22.006        0.026      342.791       18.448      863.541
08/04/2014  09:00:00     -139.340     -127.230        0.614       62.290       80.613       30.904     3880.075     6498.411      955.068        2.347        0.567      188.688       31.880        0.029      342.751       18.377      863.523
08/04/2014  09:01:00     -118.648     -117.689        2.346       62.670       75.612       33.528     3927.517     5717.101     1124.158        1.935        0.538      167.117       32.539        0.038      342.753       18.381      863.517
08/04/2014  09:02:00     -110.362     -122.286       -3.785       65.142       57.992       32.991     4243.503     3363.108     1088.426        1.792        0.435      164.723       28.193        0.029      342.730       18.342      863.506
08/04/2014  09:03:00     -168.498     -105.461       -0.975       94.773       42.735       37.726     8981.932     1826.302     1423.270        2.587        0.612      198.780       43.114        0.047      342.719       18.323      863.503
08/04/2014  09:04:00     -138.035      -76.496       -2.736       78.193       62.223       30.396     6114.139     3871.671      923.941        1.791        0.545      157.814       24.183        0.023      342.720       18.325      863.502
08/04/2014  09:05:00      -78.341      -96.161        1.425       72.315       77.537       34.274     5229.440     6012.030     1174.740        1.390        0.621      124.033       40.146        0.105      342.725       18.334      863.494
08/04/2014  09:06:00      -64.264      -69.901        4.777       60.876       48.626       24.898     3705.834     2364.483      619.908        0.786        0.335       94.953       26.030        0.075      342.723       18.332      863.481
08/04/2014  09:07:00      -73.576     -115.229        1.243       65.553       51.534       34.917     4297.235     2655.767     1219.173        1.343        0.409      136.716       30.215        0.049      342.685       18.267      863.475
08/04/2014  09:08:00      -42.410     -111.658       -4.019       44.070       58.170       26.547     1942.187     3383.792      704.736        1.016        0.302      119.441       16.788        0.020      342.735       18.353      863.476
08/04/2014  09:09:00      -58.257      -80.896       10.203       58.844       58.384       30.548     3462.577     3408.659      933.163        0.892        0.390       99.689       27.476        0.076      342.688       18.271      863.473
08/04/2014  09:10:00      -76.913     -119.100       -7.170       68.601       52.791       32.131     4706.039     2786.917     1032.390        1.434        0.426      141.776       28.350        0.040      342.651       18.209      863.477
08/04/2014  09:11:00     -104.008     -141.913       -0.260       76.109       82.707       40.014     5792.510     6840.411     1601.128        2.259        0.712      175.945       36.063        0.042      342.611       18.139      863.471
08/04/2014  09:12:00      -61.522      -50.225       15.816       48.235       48.370       34.600     2326.577     2339.612     1197.182        0.621        0.293       79.419       26.035        0.107      342.611       18.141      863.467
08/04/2014  09:13:00      -80.294     -135.930        2.051       56.860       80.024       42.699     3233.108     6403.859     1823.195        1.819        0.573      157.873       36.635        0.054      342.610       18.137      863.474
08/04/2014  09:14:00     -104.839      -65.815        3.212       70.038       92.997       35.349     4905.285     8648.504     1249.559        1.507        0.740      123.785       29.035        0.055      342.604       18.129      863.453
08/04/2014  09:15:00     -124.140      -89.309        0.702       58.015       41.440       26.688     3365.772     1717.264      712.237        1.459        0.290      152.928       23.680        0.024      342.601       18.123      863.450
08/04/2014  09:16:00      -64.758     -100.811       -0.195       39.955       54.836       24.155     1596.368     3007.024      583.469        0.977        0.259      119.819       17.543        0.021      342.604       18.129      863.460
08/04/2014  09:17:00     -107.778      -70.705        5.567       95.711       49.878       39.331     9160.500     2487.848     1546.929        1.492        0.660      128.901       45.649        0.125      342.583       18.093      863.453
08/04/2014  09:18:00     -181.262     -105.307       -1.086       81.541       88.057       39.429     6648.912     7753.974     1554.652        2.995        0.798      209.631       46.185        0.049      342.557       18.046      863.468
08/04/2014  09:19:00     -180.315     -187.765        5.955      114.386       70.749       49.896    13084.107     5005.443     2489.642        4.419        1.029      260.325       55.813        0.046      342.511       17.967      863.477
08/04/2014  09:20:00     -222.569      -99.166      -11.149       95.419       80.298       41.673     9104.819     6447.737     1736.618        3.839        0.864      243.661       47.504        0.038      342.481       17.918      863.475
08/04/2014  09:21:00     -199.387      -82.692       -9.459       74.195       52.122       36.004     5504.884     2716.708     1296.310        2.810        0.476      215.855       32.466        0.023      342.493       17.938      863.497
08/04/2014  09:22:00     -148.485      -86.080        2.235       93.581      103.773       42.121     8757.382    10768.795     1774.211        2.538        1.065      171.632       55.343        0.104      342.475       17.909      863.494
08/04/2014  09:23:00     -170.272      -91.283       -4.588      126.143       75.635       39.465    15912.160     5720.579     1557.449        3.026        1.160      193.197       44.861        0.054      342.491       17.937      863.489
08/04/2014  09:24:00     -173.775      -99.895       -9.102       75.129       65.198       40.039     5644.347     4250.820     1603.140        2.588        0.575      200.442       25.088        0.016      342.460       17.882      863.499
08/04/2014  09:25:00     -128.703      -83.888       -1.053       65.779       36.240       37.181     4326.884     1313.340     1382.435        1.531        0.351      153.628       41.089        0.072      342.516       17.979      863.499
08/04/2014  09:26:00     -116.131      -73.206        3.053       64.649       54.915       31.943     4179.502     3015.655     1020.383        1.353        0.411      137.279       34.113        0.062      342.563       18.060      863.490
08/04/2014  09:27:00      -69.801      -28.601       13.000       59.135       41.811       29.871     3496.988     1748.183      892.280        0.600        0.307       75.433       33.858        0.201      342.513       17.976      863.488
08/04/2014  09:28:00     -102.888      -66.387       17.700       75.562       46.371       37.754     5709.558     2150.274     1425.345        1.229        0.464      122.447       40.143        0.107      342.536       18.012      863.489
08/04/2014  09:29:00      -93.548      -79.571        9.463       57.550       45.754       27.851     3312.040     2093.414      775.677        1.068        0.309      122.812       30.424        0.061      342.508       17.968      863.479
08/04/2014  09:30:00     -103.834     -132.827       -0.772       54.738       53.894       33.426     2996.256     2904.609     1117.320        1.772        0.351      168.596       26.864        0.025      342.476       17.911      863.479
08/04/2014  09:31:00     -136.883     -106.309       -5.415       69.934       80.232       37.927     4890.764     6437.215     1438.435        2.141        0.638      173.317       39.377        0.052      342.463       17.889      863.484
08/04/2014  09:32:00     -120.126     -141.092       10.395       91.717       68.853       48.396     8412.086     4740.781     2342.221        2.497        0.775      185.303       49.576        0.072      342.461       17.883      863.471
08/04/2014  09:33:00      -74.536     -101.220       10.064       68.830       70.984       38.719     4737.596     5038.766     1499.123        1.359        0.564      125.702       42.740        0.116      342.523       17.991      863.464
08/04/2014  09:34:00     -140.481      -32.730        5.960       80.332       41.485       34.238     6453.155     1720.969     1172.242        1.509        0.467      144.244       39.904        0.077      342.449       17.867      863.471
08/04/2014  09:35:00      -83.026      -91.498       10.359       65.960       43.296       33.212     4350.755     1874.547     1103.025        1.135        0.366      123.553       36.044        0.085      342.496       17.945      863.478
08/04/2014  09:36:00      -91.908      -44.676        9.314       69.895       46.276       30.836     4885.313     2141.424      950.857        0.925        0.399      102.191       23.934        0.055      342.496       17.946      863.475
08/04/2014  09:37:00      -93.762      -54.090        3.316       55.324       44.046       29.291     3060.780     1940.043      857.934        0.879        0.293      108.245       27.722        0.066      342.502       17.957      863.480
08/04/2014  09:38:00      -88.160      -63.466       -1.085       37.612       35.304       23.940     1414.626     1246.406      573.100        0.752        0.162      108.629       17.403        0.026      342.495       17.945      863.491
08/04/2014  09:39:00      -89.244      -92.138        4.188       54.056       39.832       25.022     2922.052     1586.622      626.106        1.080        0.257      128.272       26.880        0.044      342.490       17.935      863.495
08/04/2014  09:40:00     -102.206      -50.507        9.120       66.695       38.103       28.958     4448.212     1451.838      838.575        0.991        0.337      114.005       34.327        0.091      342.443       17.857      863.498
08/04/2014  09:41:00      -36.222      -66.866        0.676       36.316       34.825       19.891     1318.871     1212.768      395.655        0.435        0.146       76.046       11.925        0.025      342.458       17.882      863.493
08/04/2014  09:42:00      -60.243      -63.068       11.056       60.933       50.194       24.744     3712.876     2519.428      612.261        0.729        0.342       87.217       22.228        0.065      342.519       17.986      863.487
08/04/2014  09:43:00     -135.230      -97.931       -7.040       65.121       72.383       30.009     4240.791     5239.327      900.523        1.915        0.519      166.966       31.719        0.036      342.453       17.872      863.486
08/04/2014  09:44:00     -123.922     -118.498      -14.174       53.984       42.404       25.354     2914.239     1798.087      642.810        1.748        0.268      171.460       19.326        0.013      342.459       17.882      863.472
08/04/2014  09:45:00     -160.261     -121.224        5.406       80.821       78.550       46.005     6532.020     6170.048     2116.475        2.761        0.741      200.945       50.212        0.062      342.416       17.807      863.458
08/04/2014  09:46:00     -183.517     -138.172        1.517       88.443       71.203       44.440     7822.106     5069.847     1974.951        3.382        0.743      229.717       40.959        0.032      342.428       17.827      863.441
08/04/2014  09:47:00     -166.590     -125.509        0.991       77.295       59.420       37.539     5974.461     3530.695     1409.147        2.721        0.546      208.578       41.769        0.040      342.440       17.847      863.440
08/04/2014  09:48:00     -146.239     -106.203        1.980       79.199       77.833       39.977     6272.510     6057.970     1598.167        2.330        0.696      180.734       35.355        0.038      342.450       17.866      863.440
08/04/2014  09:49:00     -139.597     -103.173        0.582       65.752       75.209       33.518     4323.382     5656.380     1123.463        2.062        0.555      173.585       22.914        0.017      342.469       17.898      863.433
08/04/2014  09:50:00     -116.765     -123.979       -1.611       66.312       71.604       42.011     4397.331     5127.131     1764.916        2.015        0.564      170.308       37.836        0.049      342.442       17.854      863.433
08/04/2014  09:51:00     -134.770     -118.360       -1.183       70.608       63.431       36.854     4985.442     4023.534     1358.249        2.127        0.518      179.366       34.655        0.037      342.461       17.885      863.440
08/04/2014  09:52:00     -195.392     -123.283       -4.459       90.687       61.726       44.986     8224.185     3810.108     2023.731        3.372        0.703      231.034       45.189        0.038      342.449       17.865      863.447
08/04/2014  09:53:00     -183.458      -64.665        2.415       82.615       62.973       39.282     6825.259     3965.646     1543.095        2.509        0.617      194.521       41.041        0.045      342.463       17.888      863.454
08/04/2014  09:54:00     -122.359      -83.363       -1.590       77.520       50.113       29.577     6009.297     2511.355      874.823        1.566        0.470      148.058       36.403        0.060      342.509       17.968      863.468
08/04/2014  09:55:00     -123.634      -50.534        4.106       77.344       55.855       30.540     5982.092     3119.832      932.706        1.394        0.502      133.563       34.432        0.066      342.501       17.953      863.477
08/04/2014  09:56:00     -110.622      -91.011       -3.904       55.083       71.084       28.858     3034.187     5052.996      832.780        1.473        0.446      143.249       25.878        0.033      342.505       17.961      863.478
08/04/2014  09:57:00     -109.769      -59.452        3.857       56.487       59.796       33.302     3190.770     3575.560     1109.054        1.174        0.394      124.835       33.329        0.071      342.509       17.968      863.474
08/04/2014  09:58:00     -107.588     -109.503        3.358       79.950       57.566       40.278     6391.994     3313.832     1622.280        1.745        0.566      153.512       45.818        0.089      342.510       17.969      863.463
08/04/2014  09:59:00     -147.787      -77.308        9.385       76.541       59.423       36.615     5858.601     3531.081     1340.654        1.932        0.537      166.786       37.898        0.052      342.503       17.957      863.457
08/04/2014  10:00:00     -120.347      -94.798       -1.459       67.974       70.958       33.269     4620.483     5034.970     1106.857        1.712        0.538      153.200       28.202        0.034      342.523       17.990      863.457
08/04/2014  10:01:00      -51.757      -27.163       19.167       65.962       42.065       27.382     4351.005     1769.448      749.764        0.533        0.344       58.452       27.255        0.217      342.565       18.063      863.454
08/04/2014  10:02:00     -191.072     -154.571       -4.176      100.038       73.796       54.657    10007.640     5445.889     2987.378        3.943        0.922      245.765       60.120        0.060      342.498       17.945      863.443
08/04/2014  10:03:00     -167.012      -97.280       -3.055       91.394       78.696       43.231     8352.875     6193.127     1868.940        2.689        0.821      193.278       41.171        0.045      342.482       17.920      863.434
08/04/2014  10:04:00      -88.444      -97.742        2.228       56.989       45.246       30.671     3247.708     2047.184      940.722        1.181        0.312      131.818       26.838        0.041      342.506       17.961      863.424
08/04/2014  10:05:00      -89.197     -131.926       -0.753       55.202       59.681       32.587     3047.283     3561.874     1061.926        1.651        0.384      159.250       36.656        0.053      342.495       17.943      863.416
08/04/2014  10:06:00      -50.615     -120.409       -0.146       46.156       41.711       30.508     2130.348     1739.845      930.709        1.093        0.240      130.614       26.079        0.040      342.544       18.029      863.413
08/04/2014  10:07:00      -86.433     -147.212       -4.114       58.999       55.060       27.713     3480.894     3031.629      768.033        1.822        0.364      170.710       28.810        0.028      342.521       17.986      863.410
08/04/2014  10:08:00     -144.375     -191.979        6.136       89.707       94.519       45.692     8047.348     8933.783     2087.783        3.840        0.953      240.208       44.821        0.035      342.475       17.909      863.406
08/04/2014  10:09:00     -208.028     -160.650       -4.178      128.848       93.005       57.595    16601.690     8649.975     3317.137        4.883        1.428      262.839       62.793        0.057      342.405       17.788      863.393
08/04/2014  10:10:00      -80.407     -188.932        3.477       88.320       88.385       39.450     7800.507     7811.897     1556.333        2.967        0.858      205.330       37.143        0.033      342.442       17.851      863.387
08/04/2014  10:11:00      -66.757     -121.333        9.278       62.605       62.492       38.254     3919.415     3905.208     1463.349        1.427        0.464      138.486       31.546        0.052      342.434       17.840      863.385
08/04/2014  10:12:00      -72.739     -114.912        6.602       68.679       67.989       37.000     4716.739     4622.486     1369.025        1.462        0.535      135.999       31.073        0.052      342.472       17.904      863.385
08/04/2014  10:13:00      -96.687     -182.481       -2.741       97.014       71.089       40.772     9411.660     5053.660     1662.392        2.939        0.806      206.513       47.722        0.053      342.482       17.922      863.390
08/04/2014  10:14:00      -61.206     -136.814        3.127       63.640       73.187       40.400     4050.113     5356.390     1632.171        1.675        0.552      149.881       20.458        0.019      342.524       17.994      863.397
08/04/2014  10:15:00     -102.488     -202.452       -0.658       70.437       81.276       42.288     4961.336     6605.845     1788.242        3.242        0.668      226.915       32.098        0.020      342.529       17.998      863.387
08/04/2014  10:16:00     -143.634     -167.399       -1.262       90.284       80.393       47.988     8151.226     6463.106     2302.852        3.278        0.846      220.575       40.465        0.034      342.523       17.988      863.359
08/04/2014  10:17:00     -133.851     -130.312       -7.746       92.882       71.908       46.653     8627.073     5170.804     2176.464        2.546        0.799      186.808       49.466        0.070      342.562       18.055      863.333
08/04/2014  10:18:00     -103.202     -191.296       -1.073      101.540       96.255       41.245    10310.387     9264.959     1701.182        3.426        1.064      217.358       45.741        0.044      342.573       18.076      863.305
08/04/2014  10:19:00     -142.238     -164.988       -6.510       83.358       81.786       53.810     6948.576     6688.959     2895.552        3.201        0.827      217.836       46.435        0.045      342.574       18.077      863.296
08/04/2014  10:20:00      -70.123     -172.355       -2.397       68.613       70.491       37.115     4707.736     4968.980     1377.529        2.284        0.553      186.074       31.418        0.029      342.598       18.119      863.299
08/04/2014  10:21:00     -109.094     -122.286       12.932       95.098       96.093       42.960     9043.665     9233.926     1845.596        2.357        1.006      163.877       50.887        0.096      342.614       18.144      863.294
08/04/2014  10:22:00      -83.810     -140.971       -3.070      103.008       63.910       39.159    10610.567     4084.436     1533.398        2.156        0.811      164.003       43.980        0.072      342.632       18.175      863.305
08/04/2014  10:23:00     -134.961     -144.399        3.688       87.144       76.400       41.999     7594.063     5836.985     1763.903        2.713        0.760      197.650       44.818        0.051      342.611       18.140      863.296
08/04/2014  10:24:00      -87.504     -130.213       -4.809       63.161       65.814       34.861     3989.372     4331.435     1215.271        1.708        0.477      156.883       21.195        0.018      342.638       18.187      863.293
08/04/2014  10:25:00      -97.122      -64.899       -7.562       49.411       54.234       30.077     2441.449     2941.354      904.655        0.999        0.314      116.810       16.497        0.020      342.654       18.215      863.292
08/04/2014  10:26:00      -50.698     -136.988        7.816       66.252       98.001       34.821     4389.346     9604.109     1212.499        1.830        0.760      146.068       24.714        0.029      342.664       18.229      863.306
08/04/2014  10:27:00     -109.321      -83.709       -1.650       64.931       54.795       30.360     4215.999     3002.531      921.735        1.355        0.407      137.689       25.078        0.033      342.665       18.232      863.310
08/04/2014  10:28:00      -63.624      -67.511        0.807       67.536       41.472       27.548     4561.115     1719.964      758.911        0.782        0.352       92.768       32.235        0.121      342.637       18.186      863.306
08/04/2014  10:29:00      -30.132      -93.334       -1.352       40.491       61.199       19.700     1639.548     3745.375      388.081        0.770        0.289       98.077       20.522        0.044      342.672       18.247      863.311
08/04/2014  10:30:00      -92.304      -95.899        1.964       69.705       55.148       30.763     4858.738     3041.299      946.336        1.328        0.442      133.104       29.424        0.049      342.725       18.335      863.315
08/04/2014  10:31:00      -47.427      -74.075       -2.491       52.490       63.404       32.982     2755.246     4020.108     1087.802        0.780        0.393       87.957       20.799        0.056      342.795       18.455      863.314
08/04/2014  10:32:00      -40.732      -51.444       14.085       31.518       53.760       37.146      993.382     2890.191     1379.807        0.488        0.263       65.617       34.023        0.269      342.855       18.556      863.309
08/04/2014  10:33:00       15.582      -46.256       11.339       51.528       58.340       41.258     2655.121     3403.550     1702.197        0.513        0.388       48.810       26.980        0.306      342.858       18.562      863.310
08/04/2014  10:34:00        1.008      -63.446        4.082       36.629       52.188       31.034     1341.647     2723.584      963.131        0.453        0.251       63.454       30.724        0.234      342.869       18.579      863.321
08/04/2014  10:35:00      -56.372      -83.136        2.003       49.249       67.074       25.795     2425.472     4498.928      665.363        0.884        0.379      100.445       28.467        0.080      342.834       18.521      863.329
08/04/2014  10:36:00       -5.085     -104.532      -15.099       53.815       54.920       44.138     2896.063     3016.197     1948.189        0.952        0.393      104.655       33.829        0.104      342.870       18.583      863.335
08/04/2014  10:37:00      -76.466      -66.089       -6.920       38.463       42.272       24.620     1479.395     1786.939      606.149        0.707        0.194      101.069       17.774        0.031      342.871       18.584      863.344
08/04/2014  10:38:00      -43.068      -43.201       -1.118       28.369       27.160       25.532      804.821      737.681      651.884        0.296        0.110       61.001       13.173        0.047      342.905       18.642      863.354
08/04/2014  10:39:00      -50.148      -76.296       -0.276       44.554       57.780       24.234     1985.053     3338.578      587.279        0.712        0.296       91.301       22.184        0.059      342.899       18.630      863.360
08/04/2014  10:40:00       30.046      -84.004       -4.504       44.681       63.362       46.104     1996.359     4014.715     2125.615        0.806        0.407       89.215       35.066        0.154      342.922       18.671      863.370
08/04/2014  10:41:00       14.949      -97.290      -16.378       50.654       44.230       39.818     2565.779     1956.302     1585.450        0.803        0.305       98.432       29.765        0.091      342.871       18.585      863.376
08/04/2014  10:42:00       15.378      -56.316       14.822       34.229       40.475       37.025     1171.620     1638.263     1370.818        0.390        0.209       58.378       18.041        0.096      343.050       18.888      863.388
08/04/2014  10:43:00       33.373      -16.206       34.198       36.523       50.649       38.285     1333.937     2565.297     1465.736        0.395        0.268       37.100       32.242        0.755      343.029       18.853      863.378
08/04/2014  10:44:00       -0.231      -52.136        4.812       33.827       30.476       33.943     1144.272      928.766     1152.116        0.298        0.161       52.136       22.559        0.187      342.992       18.791      863.389
08/04/2014  10:45:00      -18.471      -20.574       24.128       29.033       58.096       28.826      842.894     3375.167      830.926        0.320        0.252       27.649       37.411        1.831      343.118       19.004      863.390
08/04/2014  10:46:00      -30.280       -5.315       37.498       31.694       29.499       25.869     1004.486      870.204      669.198        0.245        0.127       30.743       18.547        0.364      343.039       18.869      863.390
08/04/2014  10:47:00      -14.418      -46.483      -14.954       44.787       48.198       23.059     2005.897     2323.049      531.738        0.373        0.243       48.667       13.803        0.080      342.927       18.678      863.399
08/04/2014  10:48:00      -48.079      -79.081       -9.873       34.590       49.308       17.303     1196.468     2431.268      299.390        0.629        0.196       92.549       14.665        0.025      342.955       18.727      863.414
08/04/2014  10:49:00      -20.972      -38.442       -1.114       47.795       20.989       19.327     2284.387      440.548      373.543        0.251        0.155       43.790       20.206        0.213      343.059       18.904      863.420
08/04/2014  10:50:00        6.797      -29.605       12.020       28.098       49.375       28.683      789.474     2437.912      822.719        0.256        0.203       30.376       32.705        1.159      343.213       19.166      863.419
08/04/2014  10:51:00      -34.241      -63.425        0.472       47.026       28.214       26.744     2211.457      796.034      715.259        0.446        0.186       72.077       23.590        0.107      343.059       18.905      863.419
08/04/2014  10:52:00      -22.369      -49.173        8.506       39.690       34.435       31.235     1575.312     1185.741      975.613        0.336        0.187       54.022       21.853        0.164      342.991       18.789      863.428
08/04/2014  10:53:00       10.188      -40.091       30.869       48.881       48.744       44.420     2389.391     2375.974     1973.098        0.470        0.337       41.365       41.442        1.004      343.066       18.916      863.419
08/04/2014  10:54:00       46.820      -18.547       46.172       67.293       77.983       51.938     4528.328     6081.307     2697.554        0.898        0.665       50.359       61.538        1.493      343.059       18.904      863.401
08/04/2014  10:55:00       39.422      -57.511       34.567       54.115       73.086       54.496     2928.454     5341.535     2969.763        0.865        0.562       69.725       48.486        0.484      343.003       18.810      863.408
08/04/2014  10:56:00        2.364     -141.950      -11.082       62.833       56.698       52.226     3948.001     3214.652     2727.516        1.508        0.495      141.969       38.254        0.073      342.980       18.770      863.432
08/04/2014  10:57:00        7.431      -25.906       30.329       29.635       53.849       43.468      878.217     2899.713     1889.486        0.366        0.283       26.950       35.501        1.735      343.029       18.852      863.441
08/04/2014  10:58:00        9.342      -45.889       37.440       57.881       82.060       47.162     3350.264     6733.781     2224.281        0.795        0.615       46.831       49.251        1.106      343.024       18.844      863.430
08/04/2014  10:59:00       29.343     -111.265      -22.124       86.581       70.892       44.532     7496.263     5025.685     1983.060        1.411        0.725      115.069       41.895        0.133      342.941       18.704      863.439
08/04/2014  11:00:00      -13.043      -38.454        9.775       31.468       40.510       28.429      990.222     1641.038      808.233        0.259        0.172       40.606       27.686        0.465      343.016       18.830      863.447
08/04/2014  11:01:00      -12.329      -38.850       10.548       19.511       33.449       23.110      380.678     1118.829      534.049        0.190        0.102       40.760       20.160        0.245      343.127       19.020      863.454
08/04/2014  11:02:00       -1.245      -52.604       -2.701       39.154       39.073       23.218     1533.062     1526.722      539.054        0.319        0.180       52.619       27.695        0.277      343.048       18.885      863.470
08/04/2014  11:03:00      -11.849      -43.625        0.835       26.856       38.518       24.759      721.243     1483.675      613.010        0.243        0.141       45.206       22.263        0.243      343.141       19.044      863.471
08/04/2014  11:04:00       42.587      -72.204       11.757       52.271       61.564       35.222     2732.303     3790.182     1240.621        0.746        0.388       83.828       36.745        0.192      342.962       18.740      863.478
08/04/2014  11:05:00       31.308     -116.481      -21.901       64.270       37.916       27.317     4130.683     1437.617      746.204        1.067        0.316      120.616       14.326        0.014      342.858       18.563      863.492
08/04/2014  11:06:00      -21.767      -36.414      -13.491       30.049       22.824       28.754      902.929      520.936      826.798        0.212        0.113       42.424       14.239        0.113      343.053       18.893      863.504
08/04/2014  11:07:00       50.021     -120.010      -11.714       54.162       34.744       27.053     2933.519     1207.141      731.839        1.096        0.244      130.017       20.734        0.025      343.013       18.827      863.505
08/04/2014  11:08:00       47.403      -35.777       28.603       58.490       59.986       43.902     3421.121     3598.307     1927.397        0.664        0.447       59.389       39.880        0.451      343.072       18.927      863.507
08/04/2014  11:09:00       28.829      -56.255       17.588       38.705       62.212       43.073     1498.054     3870.293     1855.258        0.576        0.361       63.212       43.518        0.474      343.017       18.832      863.506
08/04/2014  11:10:00       29.064      -64.012        3.944       33.714       41.596       34.597     1136.623     1730.228     1196.958        0.451        0.203       70.301       26.951        0.147      342.958       18.732      863.518
08/04/2014  11:11:00       17.539      -84.789       -4.525       37.579       43.692       33.242     1412.171     1908.954     1105.026        0.597        0.221       86.584       20.258        0.055      343.003       18.811      863.533
08/04/2014  11:12:00       14.066     -114.218      -15.077       78.440       48.703       39.808     6152.861     2372.020     1584.695        1.179        0.505      115.081       39.700        0.119      342.920       18.668      863.542
08/04/2014  11:13:00      -38.374      -90.382        5.897       25.473       54.990       27.966      648.855     3023.925      782.106        0.706        0.223       98.191       31.364        0.102      342.942       18.705      863.546
08/04/2014  11:14:00       -0.922      -35.268        5.265       70.441       45.799       39.080     4961.890     2097.561     1527.263        0.493        0.429       35.280       40.625        1.326      343.011       18.822      863.542
08/04/2014  11:15:00       -7.687     -101.761      -16.617       53.953       48.485       31.923     2910.952     2350.747     1019.103        0.848        0.314      102.051       20.888        0.042      342.933       18.690      863.541
08/04/2014  11:16:00      -29.428      -84.108        0.570       30.155       42.223       24.121      909.299     1782.748      581.828        0.561        0.164       89.107       22.515        0.064      343.017       18.832      863.552
08/04/2014  11:17:00      -29.422      -28.404        9.604       37.879       35.677       26.962     1434.804     1272.842      726.962        0.260        0.172       40.896       19.370        0.224      343.065       18.915      863.559
08/04/2014  11:18:00      -48.308      -16.421       10.187       50.398       33.896       21.233     2540.008     1148.915      450.844        0.342        0.207       51.022       21.538        0.178      343.086       18.947      863.568
08/04/2014  11:19:00      -35.000      -66.398       -3.142       54.764       32.864       26.465     2999.086     1080.040      700.407        0.521        0.239       75.058       16.527        0.048      342.901       18.635      863.581
08/04/2014  11:20:00      -30.156      -23.857       11.405       48.077       34.366       26.464     2311.367     1181.009      700.333        0.290        0.210       38.452       24.744        0.414      342.948       18.715      863.599
08/04/2014  11:21:00      -87.878      -86.454       -5.614       70.368       54.298       27.761     4951.620     2948.315      770.693        1.195        0.434      123.276       25.520        0.043      342.828       18.511      863.622
08/04/2014  11:22:00      -62.192      -94.622        8.502       56.892       52.661       26.625     3236.702     2773.169      708.864        0.980        0.336      113.231       22.967        0.041      342.835       18.522      863.637
08/04/2014  11:23:00     -108.584     -100.048       -9.834       71.839       40.162       34.468     5160.822     1612.978     1188.068        1.493        0.398      147.649       22.835        0.024      342.816       18.489      863.651
08/04/2014  11:24:00      -64.728     -105.884        2.513       56.991       61.590       31.753     3247.918     3793.268     1008.260        1.173        0.402      124.101       31.837        0.066      342.813       18.484      863.679
08/04/2014  11:25:00      -59.342      -66.343       -7.093       53.624       37.529       24.415     2875.566     1408.439      596.090        0.643        0.244       89.010       25.365        0.081      342.861       18.568      863.687
08/04/2014  11:26:00      -76.035      -58.730       -3.216       55.740       42.280       22.489     3106.929     1787.566      505.757        0.732        0.270       96.076       21.743        0.051      342.770       18.411      863.696
08/04/2014  11:27:00      -96.889      -67.395       -2.515       65.435       47.407       27.394     4281.762     2247.466      750.433        1.061        0.364      118.023       20.495        0.030      342.886       18.610      863.702
08/04/2014  11:28:00      -82.099      -55.128        1.250       66.408       42.437       26.903     4409.965     1800.921      723.796        0.836        0.347       98.891       22.581        0.052      342.890       18.617      863.707
08/04/2014  11:29:00      -36.241      -83.638      -12.614       42.011       56.857       29.925     1764.942     3232.720      895.531        0.718        0.295       91.153       32.524        0.127      342.903       18.639      863.718
08/04/2014  11:30:00      -69.283      -41.806       11.020       58.669       39.769       29.217     3442.030     1581.558      853.621        0.627        0.294       80.918       16.863        0.043      342.932       18.687      863.734
08/04/2014  11:31:00      -85.677      -37.136        1.589       62.744       34.640       23.277     3936.851     1199.910      541.832        0.720        0.284       93.379       21.641        0.054      342.901       18.635      863.752
08/04/2014  11:32:00      -72.925      -40.876        6.327       43.651       39.660       23.244     1905.409     1572.933      540.266        0.552        0.201       83.600       18.917        0.051      342.915       18.659      863.768
08/04/2014  11:33:00      -55.396      -17.600        3.006       41.064       34.421       26.733     1686.238     1184.810      714.645        0.349        0.179       58.125       28.399        0.239      342.980       18.771      863.782
08/04/2014  11:34:00      -58.915      -13.507        7.270       52.894       26.304       16.872     2797.729      691.903      284.656        0.374        0.189       60.444       14.030        0.054      342.993       18.791      863.810
08/04/2014  11:35:00      -44.578      -14.729       13.759       40.352       37.889       22.991     1628.305     1435.544      528.571        0.299        0.180       46.949       24.209        0.266      343.039       18.870      863.818
08/04/2014  11:36:00      -44.460      -15.382       12.767       36.904       44.694       21.423     1361.905     1997.526      458.954        0.310        0.191       47.046       21.532        0.209      343.011       18.825      863.835
08/04/2014  11:37:00      -87.691      -41.321        5.855       63.528       35.669       33.167     4035.825     1272.276     1100.050        0.792        0.320       96.938       37.013        0.146      342.976       18.763      863.851
08/04/2014  11:38:00      -96.074      -30.554       -9.196       48.454       32.760       22.069     2347.803     1073.194      487.037        0.708        0.195      100.815       23.815        0.056      342.905       18.643      863.856
08/04/2014  11:39:00      -99.161      -37.793        2.426       29.378       35.044       24.749      863.075     1228.057      612.502        0.698        0.135      106.119       23.874        0.051      342.962       18.739      863.869
08/04/2014  11:40:00      -91.806      -29.642       -3.985       32.506       29.650       13.840     1056.614      879.146      191.552        0.572        0.106       96.472        9.843        0.010      342.922       18.671      863.890
08/04/2014  11:41:00      -29.874      -17.349       -0.418       17.021       13.326       14.875      289.715      177.590      221.265        0.094        0.034       34.547        7.671        0.049      342.976       18.763      863.906
08/04/2014  11:42:00      -23.741      -20.706        9.138       14.369       11.574        9.897      206.473      133.950       97.952        0.076        0.022       31.502        9.936        0.099      343.008       18.817      863.901
08/04/2014  11:43:00      -30.238        7.820       13.549       12.962       20.588       13.243      168.010      423.886      175.378        0.096        0.038       31.232       13.054        0.175      342.965       18.740      863.892
08/04/2014  11:44:00      -20.730       13.588        3.300       13.096       14.708       14.527      171.505      216.313      211.046        0.061        0.030       24.786       10.244        0.171      343.034       18.862      863.904
08/04/2014  11:45:00      -11.060      -17.416       17.712       21.523       30.493       27.192      463.222      929.805      739.410        0.144        0.107       20.631       13.573        0.433      343.095       18.964      863.909
08/04/2014  11:46:00       -6.817      -21.714       12.594       14.957       33.400       12.823      223.699     1115.582      164.441        0.109        0.075       22.759       13.010        0.327      343.271       19.265      863.917
08/04/2014  11:47:00       -3.730       47.277       16.560       12.839       26.791       15.576      164.830      717.772      242.622        0.182        0.056       47.424        7.485        0.025      343.212       19.165      863.919
08/04/2014  11:48:00      -18.086       64.069       -4.606       16.823       32.001       19.325      283.014     1024.033      373.463        0.307        0.084       66.572       11.154        0.028      343.147       19.054      863.940
08/04/2014  11:49:00      -38.289       53.974      -13.802       33.187       15.248       11.612     1101.406      232.507      134.841        0.302        0.073       66.176        8.945        0.018      343.111       18.993      863.964
08/04/2014  11:50:00      -30.422       12.602       -4.308       23.461       13.550        8.929      550.414      183.608       79.729        0.096        0.041       32.929        8.324        0.064      343.173       19.099      863.974
08/04/2014  11:51:00       -7.720      -29.411        1.114       27.282       26.827       15.039      744.324      719.689      226.186        0.131        0.085       30.407       15.043        0.245      343.196       19.137      863.990
08/04/2014  11:52:00       34.635       13.560       27.635       34.527       23.100       24.507     1192.148      533.611      600.612        0.224        0.116       37.195       22.977        0.382      343.245       19.221      864.009
08/04/2014  11:53:00       34.894       18.331        6.017       26.672       19.758       22.193      711.420      390.394      492.513        0.159        0.080       39.416       10.415        0.070      343.193       19.132      864.029
08/04/2014  11:54:00       35.416       16.693       14.489       49.399       26.102       19.419     2440.288      681.306      377.106        0.262        0.175       39.153       13.807        0.124      343.103       18.979      864.038
08/04/2014  11:55:00       21.480       50.426        0.027       24.615       39.258       20.640      605.912     1541.220      426.021        0.279        0.129       54.810       20.477        0.140      343.076       18.933      864.041
08/04/2014  11:56:00       26.106       66.010        0.058       27.809       35.121       25.664      773.322     1233.471      658.624        0.385        0.133       70.984       22.855        0.104      343.002       18.806      864.053
08/04/2014  11:57:00       41.515       79.712      -10.794       26.210       38.894       28.072      686.953     1512.717      788.062        0.559        0.149       89.875       19.513        0.047      342.944       18.709      864.067
08/04/2014  11:58:00       53.253       45.468        0.085       27.142       36.412       24.047      736.687     1325.817      578.269        0.377        0.132       70.023       18.340        0.069      342.903       18.639      864.070
08/04/2014  11:59:00       17.357       25.863       -2.190       29.487       27.068       21.260      869.460      732.697      451.971        0.151        0.103       31.148       17.928        0.331      343.034       18.861      864.078
08/04/2014  12:00:00       20.137       59.831       -3.006       23.048       49.936       21.036      531.189     2493.633      442.518        0.373        0.173       63.129       21.781        0.119      343.005       18.811      864.093
08/04/2014  12:01:00       48.877       49.015        7.107       35.299       34.660       32.967     1246.017     1201.294     1086.829        0.419        0.177       69.221       23.108        0.111      342.949       18.716      864.104
08/04/2014  12:02:00       63.573       67.922        8.362       32.577       32.529       28.865     1061.268     1058.113      833.188        0.584        0.148       93.032       21.054        0.051      342.853       18.553      864.107
08/04/2014  12:03:00       45.741       71.655       -4.185       34.583       36.956       22.715     1196.013     1365.740      515.978        0.516        0.154       85.010       15.846        0.035      342.886       18.610      864.113
08/04/2014  12:04:00       41.166       35.145       11.679       31.235       21.595       26.495      975.613      466.341      701.972        0.260        0.107       54.128       15.502        0.082      342.924       18.673      864.120
08/04/2014  12:05:00       46.281       36.135        1.841       37.706       29.204       16.564     1421.740      852.885      274.366        0.300        0.127       58.717       10.528        0.032      342.941       18.704      864.111
08/04/2014  12:06:00       69.628       39.036        3.593       24.583       20.252       17.258      604.335      410.144      297.831        0.385        0.066       79.824        7.607        0.009      342.904       18.641      864.107
08/04/2014  12:07:00       44.039       22.682        8.185       41.732       32.380       20.913     1741.595     1048.433      437.353        0.287        0.161       49.537       14.874        0.090      343.048       18.885      864.106
08/04/2014  12:08:00       28.485      111.064      -19.187       27.107       31.180       16.330      734.797      972.193      266.657        0.774        0.099      114.659        9.294        0.007      342.966       18.745      864.109
08/04/2014  12:09:00       24.954       97.930       -9.899       26.869       31.477       22.899      721.920      990.831      524.366        0.627        0.112      101.059       19.364        0.037      342.890       18.615      864.111
08/04/2014  12:10:00       11.020      101.869      -14.365       16.975       24.912       16.887      288.153      620.618      285.180        0.595        0.060      102.463       15.249        0.022      342.840       18.531      864.101
08/04/2014  12:11:00        8.032       85.548       -8.107       21.245       31.180       17.693      451.334      972.196      313.038        0.459        0.087       85.924       17.407        0.041      342.941       18.704      864.109
08/04/2014  12:12:00       16.657       77.882       -3.294       26.956       38.444       21.230      726.641     1477.946      450.715        0.450        0.133       79.644       17.111        0.046      342.974       18.760      864.113
08/04/2014  12:13:00       38.688      145.194      -24.226       39.626       53.859       31.356     1570.215     2900.843      983.199        1.431        0.273      150.260       24.427        0.026      342.834       18.519      864.119
08/04/2014  12:14:00       19.904       96.463       -4.626       28.640       49.663       27.542      820.254     2466.388      758.571        0.688        0.202       98.495       26.689        0.073      342.853       18.552      864.126
08/04/2014  12:15:00       33.412       81.253      -15.147       26.088       35.438       18.377      680.590     1255.869      337.696        0.511        0.114       87.855       20.324        0.054      342.871       18.583      864.127
08/04/2014  12:16:00       33.981       47.451       -0.609       37.256       33.670       21.586     1388.023     1133.686      465.972        0.320        0.149       58.364       21.069        0.130      342.919       18.666      864.128
08/04/2014  12:17:00       25.562       85.438       -6.915       24.643       36.137       16.306      607.295     1305.906      265.887        0.509        0.109       89.179       11.618        0.017      342.878       18.597      864.128
08/04/2014  12:18:00       21.461       51.915       -2.685       26.328       31.543       20.571      693.159      994.960      423.177        0.264        0.106       56.176       19.809        0.124      342.913       18.655      864.138
08/04/2014  12:19:00       39.054       66.898       -0.927       38.301       24.061       23.999     1466.964      578.942      575.958        0.431        0.131       77.463       21.754        0.079      342.841       18.532      864.143
08/04/2014  12:20:00       99.700       42.603        3.232       33.085       29.567       20.653     1094.615      874.207      426.552        0.708        0.120      108.421        9.864        0.008      342.785       18.434      864.153
08/04/2014  12:21:00       77.890       36.766        7.874       57.412       33.237       28.956     3296.165     1104.673      838.459        0.636        0.262       86.131       20.802        0.058      342.840       18.531      864.155
08/04/2014  12:22:00        2.610       67.691      -16.984       18.012       49.793       17.399      324.431     2479.332      302.723        0.399        0.155       67.741       21.498        0.101      342.809       18.477      864.162
08/04/2014  12:23:00       -1.463       98.408       -7.544       32.155       30.851       18.184     1033.939      951.767      330.663        0.603        0.116       98.419       15.309        0.024      342.884       18.607      864.159
08/04/2014  12:24:00       14.083       60.061        3.056       28.284       29.322       17.580      799.995      859.766      309.073        0.289        0.098       61.690       12.517        0.041      342.944       18.708      864.165
08/04/2014  12:25:00       24.703       58.733        3.352       20.324       29.214       24.479      413.058      853.466      599.224        0.297        0.093       63.717       19.287        0.092      342.869       18.579      864.168
08/04/2014  12:26:00       67.525       27.295        5.742       22.937       20.139       18.919      526.084      405.571      357.946        0.331        0.064       72.833       13.043        0.032      342.827       18.510      864.173
08/04/2014  12:27:00       34.338       31.597       13.266       28.807       15.407       22.930      829.836      237.388      525.808        0.197        0.080       46.663       16.275        0.122      342.887       18.612      864.175
08/04/2014  12:28:00       57.903       47.165        8.935       18.822       13.661       18.262      354.260      186.631      333.516        0.327        0.044       74.682        9.510        0.016      342.803       18.468      864.182
08/04/2014  12:29:00       63.298       59.355        8.402       19.429       16.911       16.647      377.502      285.966      277.110        0.427        0.047       86.774        7.099        0.007      342.806       18.476      864.196
08/04/2014  12:30:00       65.248       45.095        3.169       13.038       19.915       12.825      169.998      396.618      164.492        0.352        0.037       79.315        7.192        0.008      342.748       18.376      864.216
08/04/2014  12:31:00       37.275       22.718        0.043       24.697       16.949       19.558      609.942      287.283      382.511        0.159        0.064       43.652       16.825        0.149      342.874       18.588      864.227
08/04/2014  12:32:00       51.538       36.844       11.217       19.399       16.401       17.242      376.306      268.980      297.283        0.254        0.047       63.353        9.500        0.022      342.842       18.533      864.238
08/04/2014  12:33:00        8.725       60.178       -5.854       16.432       41.749       13.504      270.021     1742.966      182.369        0.296        0.110       60.807       18.937        0.097      342.845       18.541      864.250
08/04/2014  12:34:00       -7.241       82.828      -12.160       10.859       20.041        9.417      117.919      401.633       88.681        0.383        0.030       83.144        8.495        0.010      342.751       18.381      864.254
08/04/2014  12:35:00        9.615       35.442       -3.403       12.907       19.688       11.131      166.587      387.620      123.898        0.102        0.034       36.723        6.376        0.030      342.840       18.527      864.262
08/04/2014  12:36:00        7.470       18.262       -1.326       21.381       15.927       12.659      457.135      253.674      160.242        0.063        0.044       19.731       12.425        0.397      342.924       18.676      864.264
08/04/2014  12:37:00        8.269       31.078       -7.691       12.426       20.784        7.183      154.397      431.993       51.591        0.087        0.032       32.159        5.756        0.032      342.897       18.629      864.260
08/04/2014  12:38:00       -7.052       29.406       -4.667       10.733       15.959        8.849      115.195      254.680       78.313        0.069        0.022       30.239        6.686        0.049      342.843       18.535      864.246
08/04/2014  12:39:00       -3.583       16.750       -9.588        8.963       11.333        9.913       80.340      128.442       98.266        0.035        0.015       17.129        8.190        0.229      342.856       18.559      864.238
08/04/2014  12:40:00        3.456       18.779        7.733       13.761       11.983       10.030      189.351      143.587      100.600        0.043        0.022       19.095        4.028        0.044      342.990       18.787      864.232
08/04/2014  12:41:00       11.910        8.047        2.292       17.290       19.491       11.500      298.931      379.906      132.239        0.051        0.041       14.374        8.603        0.358      342.975       18.762      864.243
08/04/2014  12:42:00       -2.526       30.949       -7.228       24.668       23.214        9.793      608.507      538.883       95.912        0.113        0.062       31.052       14.389        0.215      342.913       18.654      864.259
08/04/2014  12:43:00       27.683       25.338        4.368       18.466       16.555       15.995      341.005      274.059      255.855        0.115        0.044       37.528        9.326        0.062      342.947       18.713      864.267
08/04/2014  12:44:00       62.726       35.406        8.575       34.491       20.236       20.668     1189.619      409.487      427.156        0.364        0.101       72.029       19.644        0.074      342.893       18.621      864.266
08/04/2014  12:45:00       57.717       41.416        4.007       15.623       14.958       14.163      244.087      223.744      200.587        0.287        0.033       71.038        7.548        0.011      342.811       18.480      864.252
08/04/2014  12:46:00       14.368       18.904        4.919       22.536       21.135       15.957      507.867      446.692      254.638        0.090        0.060       23.745       15.216        0.411      342.938       18.699      864.250
08/04/2014  12:47:00        1.991       19.803        7.276       11.505       18.118       12.057      132.375      328.269      145.382        0.053        0.030       19.903       12.530        0.396      342.910       18.650      864.241
08/04/2014  12:48:00        3.094       34.540       -3.535       11.608       13.299        8.756      134.746      176.867       76.667        0.080        0.019       34.678        8.277        0.057      342.810       18.483      864.244
08/04/2014  12:49:00       13.802       23.818        3.354       24.356       15.832       13.945      593.208      250.659      194.449        0.090        0.052       27.528       11.486        0.174      342.840       18.529      864.244
08/04/2014  12:50:00       17.143        0.569        3.537       21.094       12.129       14.511      444.941      147.105      210.578        0.055        0.040       17.153       14.480        0.713      342.813       18.484      864.253
08/04/2014  12:51:00       -1.428       -6.810        3.581        5.675        8.717        8.516       32.210       75.982       72.526        0.012        0.009        6.958        6.168        0.786      342.976       18.764      864.252
08/04/2014  12:52:00       -3.168        5.311        5.752        7.932        8.205       11.357       62.913       67.325      128.985        0.017        0.013        6.185        7.619        1.518      343.044       18.879      864.260
08/04/2014  12:53:00      -19.327        8.170        8.733       12.881       15.402       11.074      165.926      237.229      122.626        0.052        0.026       20.983        7.310        0.121      343.014       18.827      864.265
08/04/2014  12:54:00      -18.777      -22.298       13.365       30.779       20.186       15.151      947.354      407.475      229.562        0.131        0.079       29.151        7.611        0.068      343.132       19.029      864.266
08/04/2014  12:55:00      -49.556      -20.813       -0.279       27.947       28.244       15.594      781.020      797.737      243.163        0.236        0.091       53.750       18.230        0.115      342.967       18.746      864.267
08/04/2014  12:56:00      -62.302      -26.891       -6.962       31.291       21.614       14.904      979.143      467.164      222.115        0.316        0.083       67.858       11.335        0.028      342.977       18.765      864.264
08/04/2014  12:57:00      -58.453      -58.836        4.729       41.500       36.468       27.051     1722.272     1329.879      731.769        0.534        0.189       82.936       19.071        0.053      342.971       18.754      864.264
08/04/2014  12:58:00      -65.378      -80.413       -6.947       31.350       22.251       17.827      982.827      495.125      317.795        0.629        0.090      103.637        5.047        0.002      342.877       18.594      864.276
08/04/2014  12:59:00      -69.234      -98.823       -3.420       32.781       42.447       16.640     1074.611     1801.731      276.889        0.886        0.158      120.663       11.636        0.009      342.797       18.459      864.290
08/04/2014  13:00:00      -75.625      -62.161        5.562       53.760       52.084       27.679     2890.156     2712.705      766.102        0.799        0.318       97.894       34.753        0.126      342.877       18.594      864.304
08/04/2014  13:01:00      -90.401      -26.814       -9.333       25.748       28.552       17.328      662.966      815.218      300.255        0.538        0.089       94.293       16.765        0.032      342.875       18.589      864.321
08/04/2014  13:02:00     -119.388      -48.338      -12.492       48.700       27.878       17.873     2371.728      777.166      319.447        1.011        0.173      128.803       20.529        0.025      342.889       18.616      864.330
08/04/2014  13:03:00     -175.830      -23.150       -9.142       51.907       46.123       27.863     2694.361     2127.322      776.338        1.857        0.280      177.347       29.659        0.028      342.812       18.484      864.326
08/04/2014  13:04:00     -136.949      -11.909      -13.359       42.502       33.381       21.734     1806.378     1114.277      472.358        1.123        0.170      137.466       24.132        0.031      342.788       18.442      864.317
08/04/2014  13:05:00     -108.136       14.340       -5.517       35.854       41.870       20.721     1285.522     1753.115      429.345        0.770        0.173      109.083       18.117        0.028      342.761       18.398      864.293
08/04/2014  13:06:00      -98.758      -34.445        5.626       73.282       46.441       32.150     5370.324     2156.794     1033.643        0.976        0.428      104.592       39.555        0.143      342.877       18.593      864.266
08/04/2014  13:07:00     -123.558      -60.428       -9.861       39.768       41.857       24.387     1581.503     1751.975      594.706        1.147        0.196      137.543       18.569        0.018      342.817       18.493      864.232
08/04/2014  13:08:00     -173.909      -71.524       -1.249       74.637       45.402       24.615     5570.724     2061.317      605.907        2.180        0.412      188.042       25.582        0.019      342.814       18.485      864.203
08/04/2014  13:09:00     -148.956      -36.673       -3.081       57.996       43.028       34.820     3363.568     1851.399     1212.464        1.498        0.321      153.404       33.221        0.047      342.755       18.385      864.162
08/04/2014  13:10:00     -114.792      -58.699       -3.037       62.428       65.144       36.803     3897.291     4243.739     1354.452        1.306        0.475      128.930       32.572        0.064      342.775       18.420      864.129
08/04/2014  13:11:00     -139.460      -18.023       -3.117       52.158       41.200       28.172     2720.499     1697.403      793.658        1.250        0.261      140.620       28.178        0.040      342.749       18.376      864.113
08/04/2014  13:12:00     -132.017      -37.171       -2.417       44.008       43.353       25.671     1936.703     1879.457      658.988        1.164        0.224      137.150       20.137        0.022      342.796       18.456      864.097
08/04/2014  13:13:00     -219.463      -83.675       -4.266       67.342       47.756       31.670     4534.991     2280.666     1002.989        3.150        0.391      234.873       31.213        0.018      342.678       18.252      864.066
08/04/2014  13:14:00     -182.684      -37.173       -3.251       73.745       37.418       30.313     5438.366     1400.113      918.899        2.126        0.388      186.427       28.636        0.024      342.689       18.272      864.032
08/04/2014  13:15:00     -175.405      -61.394       -3.762       80.447       59.634       36.825     6471.661     3556.202     1356.073        2.296        0.569      185.839       41.932        0.051      342.730       18.341      864.000
08/04/2014  13:16:00     -177.242      -73.876      -11.187       79.862       73.899       37.301     6377.956     5461.026     1391.338        2.511        0.662      192.022       37.785        0.039      342.783       18.430      863.989
08/04/2014  13:17:00     -184.335      -87.235      -10.075       74.835       77.965       44.353     5600.251     6078.578     1967.209        2.767        0.682      203.934       43.952        0.046      342.775       18.417      863.993
08/04/2014  13:18:00     -137.501     -109.399       -1.430       76.578       51.867       37.115     5864.221     2690.146     1377.515        2.040        0.497      175.712       37.967        0.047      342.768       18.406      864.024
08/04/2014  13:19:00      -81.738      -62.746       11.300       67.551       63.151       37.957     4563.195     3988.048     1440.756        1.037        0.500      103.045       43.005        0.174      342.830       18.512      864.048
08/04/2014  13:20:00      -67.336       -8.628        3.799       41.847       48.752       29.611     1751.141     2376.713      876.826        0.481        0.250       67.886       17.601        0.067      342.857       18.559      864.081
08/04/2014  13:21:00      -95.914      -11.207       -0.397       58.906       37.321       22.022     3469.968     1392.824      484.967        0.734        0.267       96.566       22.907        0.056      342.824       18.504      864.111
08/04/2014  13:22:00     -124.700      -18.455        2.947       82.564       50.158       35.047     6816.810     2515.782     1228.303        1.323        0.528      126.058       45.180        0.128      342.805       18.471      864.127
08/04/2014  13:23:00     -133.342       -3.478       -3.477       56.149       31.806       29.230     3152.712     1011.645      854.379        1.141        0.251      133.387       31.544        0.056      342.749       18.376      864.130
08/04/2014  13:24:00     -125.687       -0.893       -7.303       33.213       28.203       20.950     1103.130      795.390      438.888        0.909        0.117      125.690       16.969        0.018      342.732       18.346      864.148
08/04/2014  13:25:00      -78.420       -1.798       -1.607       26.631       21.072       15.434      709.188      444.033      238.208        0.377        0.070       78.440       11.809        0.023      342.775       18.421      864.156
08/04/2014  13:26:00        3.039      -11.322       15.090       20.614       22.640       17.557      424.937      512.566      308.247        0.081        0.062       11.723       15.665        1.786      342.966       18.746      864.156
08/04/2014  13:27:00      -67.140      -85.134        3.605       46.620       59.046       24.050     2173.417     3486.488      578.418        0.900        0.312      108.423       23.816        0.048      342.813       18.485      864.160
08/04/2014  13:28:00      -36.773      -35.047        7.205       29.116       43.448       15.823      847.740     1887.757      250.381        0.281        0.149       50.799       15.758        0.096      342.831       18.516      864.170
08/04/2014  13:29:00      -39.193        5.376       20.561       17.169       29.096       19.936      294.785      846.576      397.445        0.176        0.077       39.560       18.344        0.215      342.858       18.563      864.167
08/04/2014  13:30:00      -33.769      -75.799       -4.040       23.321       29.448       20.509      543.859      867.207      420.626        0.437        0.092       82.981       18.590        0.050      342.869       18.579      864.162
08/04/2014  13:31:00      -67.395      -49.960        3.899       33.596       31.576       16.642     1128.676      997.022      276.970        0.473        0.120       83.893       14.820        0.031      342.882       18.602      864.157
08/04/2014  13:32:00      -19.984     -105.244       -3.746       24.800       34.144       18.077      615.029     1165.821      326.775        0.680        0.105      107.125       16.236        0.023      342.887       18.610      864.150
08/04/2014  13:33:00      -66.032      -27.454       -3.393       45.550       36.430       24.091     2074.788     1327.136      580.388        0.455        0.199       71.512       20.301        0.081      342.891       18.618      864.122
08/04/2014  13:34:00      -24.956      -23.329       -9.114       32.633       22.744       20.781     1064.896      517.288      431.829        0.163        0.101       34.162       19.523        0.327      342.882       18.601      864.104
08/04/2014  13:35:00      -35.912      -72.239       10.067       36.304       48.982       25.501     1317.996     2399.203      650.303        0.549        0.218       80.673       17.789        0.049      342.894       18.622      864.086
08/04/2014  13:36:00      -99.441      -86.462       -5.566       42.737       45.179       22.516     1826.453     2041.147      506.950        1.088        0.219      131.773       22.402        0.029      342.853       18.554      864.066
08/04/2014  13:37:00      -52.289      -51.870        6.558       32.662       44.165       24.024     1066.797     1950.572      577.130        0.453        0.180       73.652       21.126        0.082      342.912       18.655      864.056
08/04/2014  13:38:00      -72.128      -28.561        9.691       30.680       24.558       24.010      941.275      603.078      576.494        0.412        0.106       77.577       17.314        0.050      342.924       18.674      864.050
08/04/2014  13:39:00      -76.858      -39.451       -5.949       39.835       38.334       25.363     1586.802     1469.469      643.300        0.560        0.185       86.392       19.219        0.049      342.992       18.790      864.065
08/04/2014  13:40:00      -19.419     -105.601       14.127       41.730       42.062       35.175     1741.407     1769.181     1237.288        0.824        0.237      107.371       19.903        0.034      342.891       18.618      864.078
08/04/2014  13:41:00      -57.421      -73.713        0.945       81.370       39.851       29.867     6621.063     1588.129      892.018        0.891        0.455       93.439       35.174        0.142      342.915       18.659      864.078
08/04/2014  13:42:00     -157.131      -77.307       -1.672       57.636       42.377       31.551     3321.945     1795.776      995.465        1.839        0.306      175.119       26.842        0.023      342.888       18.612      864.090
08/04/2014  13:43:00     -127.353      -45.671       -5.588       49.878       38.218       26.686     2487.789     1460.596      712.137        1.150        0.233      135.295       17.259        0.016      342.884       18.606      864.092
08/04/2014  13:44:00     -122.702      -71.074       -2.820       71.448       45.433       25.456     5104.877     2064.120      647.998        1.396        0.391      141.801       33.836        0.057      342.882       18.603      864.099
08/04/2014  13:45:00     -112.571      -81.132        4.162       64.044       63.122       29.002     4101.685     3984.401      841.100        1.410        0.446      138.762       25.981        0.035      342.864       18.571      864.095
08/04/2014  13:46:00     -134.450      -95.887       -7.548       42.362       41.050       24.081     1794.578     1685.074      579.913        1.569        0.203      165.140       21.996        0.018      342.838       18.527      864.092
08/04/2014  13:47:00     -105.657      -53.361        1.708       44.740       49.207       26.337     2001.643     2421.368      693.661        0.956        0.256      118.368       21.792        0.034      342.876       18.593      864.092
08/04/2014  13:48:00     -146.788      -74.953       -1.678       53.155       49.285       33.263     2825.439     2429.048     1106.400        1.676        0.318      164.817       29.607        0.032      342.838       18.528      864.089
08/04/2014  13:49:00     -125.666      -83.155       -0.933       38.648       24.752       25.600     1493.654      612.682      655.336        1.273        0.138      150.688       21.104        0.020      342.838       18.528      864.078
08/04/2014  13:50:00      -90.619      -72.292        1.164       45.455       44.820       29.142     2066.174     2008.876      849.264        0.918        0.246      115.922       26.025        0.050      342.845       18.540      864.063
08/04/2014  13:51:00     -111.152      -81.701        3.030       48.915       37.842       25.798     2392.725     1432.010      665.546        1.176        0.225      137.949       23.659        0.029      342.820       18.496      864.057
08/04/2014  13:52:00     -130.765      -97.595       -2.755       54.303       56.272       31.053     2948.828     3166.504      964.288        1.685        0.354      163.169       29.928        0.034      342.844       18.536      864.048
08/04/2014  13:53:00      -44.606      -69.401        9.278       62.951       46.853       23.957     3962.852     2195.234      573.926        0.681        0.337       82.500       20.796        0.064      342.908       18.647      864.038
08/04/2014  13:54:00      -63.881     -112.993       -8.538       57.894       58.997       26.526     3351.771     3480.683      703.650        1.223        0.377      129.801       28.045        0.047      342.897       18.627      864.039
08/04/2014  13:55:00     -129.794      -89.447        2.292       93.682       47.049       36.212     8776.314     2213.619     1311.303        1.857        0.615      157.630       40.349        0.066      342.879       18.597      864.039
08/04/2014  13:56:00     -127.515     -115.854        0.099       69.981       42.870       35.510     4897.374     1837.806     1260.992        1.884        0.400      172.285       36.318        0.044      342.858       18.559      864.052
08/04/2014  13:57:00     -116.444      -45.374        0.319       48.806       32.459       25.173     2382.002     1053.581      633.701        0.984        0.203      124.972       19.157        0.023      342.856       18.558      864.063
08/04/2014  13:58:00      -85.436      -48.596        4.060       57.438       37.511       23.753     3299.151     1407.079      564.191        0.747        0.264       98.290       22.674        0.053      342.896       18.626      864.067
08/04/2014  13:59:00      -87.212      -51.389       -0.799       39.939       28.425       20.471     1595.137      807.953      419.072        0.653        0.141      101.227       17.626        0.030      342.857       18.559      864.067
08/04/2014  14:00:00      -98.325      -41.916        9.817       30.285       37.521       24.129      917.195     1407.801      582.227        0.721        0.145      106.887       16.151        0.023      342.883       18.605      864.077
08/04/2014  14:01:00      -66.282      -30.931        6.502       48.359       36.384       28.655     2338.626     1323.761      821.123        0.494        0.224       73.144       27.039        0.137      342.991       18.788      864.085
08/04/2014  14:02:00      -78.754      -47.291        5.430       42.350       40.911       23.207     1793.510     1673.696      538.561        0.624        0.200       91.862       19.838        0.047      342.934       18.690      864.085
08/04/2014  14:03:00      -32.622      -89.941        4.280       34.971       38.331       26.292     1222.982     1469.262      691.272        0.628        0.169       95.674       26.312        0.076      342.938       18.698      864.093
08/04/2014  14:04:00      -61.216      -40.290       -3.867       46.247       31.944       22.107     2138.818     1020.450      488.700        0.452        0.182       73.285       17.678        0.058      342.962       18.740      864.093
08/04/2014  14:05:00      -49.021      -86.473       -3.571       39.577       36.189       30.547     1566.354     1309.614      933.125        0.685        0.190       99.402       21.292        0.046      342.944       18.709      864.095
08/04/2014  14:06:00      -76.914      -88.598       -3.918       37.264       63.924       27.236     1388.631     4086.217      741.792        1.000        0.311      117.326       20.776        0.031      342.941       18.703      864.098
08/04/2014  14:07:00     -110.472     -114.363        2.462       65.695       54.620       32.324     4315.796     2983.386     1044.823        1.681        0.417      159.007       27.615        0.030      342.874       18.589      864.091
08/04/2014  14:08:00     -128.804      -70.616        8.042       62.916       54.557       35.113     3958.485     2976.434     1232.953        1.490        0.408      146.891       32.734        0.050      342.879       18.597      864.084
08/04/2014  14:09:00     -136.935      -62.506       -6.494       38.559       28.850       23.378     1486.810      832.314      546.512        1.278        0.143      150.526       17.647        0.014      342.892       18.619      864.083
08/04/2014  14:10:00     -108.485     -100.268       -0.113       38.795       41.326       26.686     1505.078     1707.798      712.120        1.287        0.196      147.725       26.872        0.033      342.941       18.703      864.084
08/04/2014  14:11:00      -49.206      -95.649       -1.697       32.359       46.519       25.359     1047.134     2164.063      643.089        0.771        0.193      107.564       22.282        0.043      342.935       18.693      864.094
08/04/2014  14:12:00      -98.254       -8.555       -4.807       35.885       28.359       21.969     1287.736      804.231      482.640        0.616        0.129       98.626       18.530        0.035      342.929       18.683      864.099
08/04/2014  14:13:00      -11.075      -13.585       19.114       17.890       20.235       13.727      320.049      409.461      188.440        0.080        0.046       17.527       11.406        0.423      343.085       18.948      864.101
08/04/2014  14:14:00      -47.696      -94.577       -3.352       45.742       51.629       21.916     2092.339     2665.513      480.330        0.823        0.262      105.923       24.535        0.054      342.894       18.622      864.104
08/04/2014  14:15:00      -73.249     -174.196       -5.104       58.885       38.171       29.533     3467.469     1457.009      872.202        2.077        0.290      188.971       30.994        0.027      342.901       18.633      864.097
08/04/2014  14:16:00     -166.568     -107.361        1.418       76.308       55.468       31.815     5822.858     3076.736     1012.219        2.459        0.496      198.170       34.401        0.030      342.887       18.608      864.092
08/04/2014  14:17:00      -69.498      -44.373        7.620       52.449       40.091       29.234     2750.901     1607.287      854.622        0.603        0.261       82.455       31.769        0.148      342.956       18.729      864.091
08/04/2014  14:18:00      -86.641      -97.520        8.066       63.709       51.365       30.415     4058.892     2638.364      925.071        1.235        0.381      130.448       27.846        0.046      342.937       18.695      864.086
08/04/2014  14:19:00      -46.749      -48.603        7.641       58.305       34.516       30.951     3399.470     1191.330      957.939        0.508        0.277       67.437       25.066        0.138      342.972       18.755      864.087
08/04/2014  14:20:00      -72.475     -110.632       -0.064       32.836       40.149       20.712     1078.182     1611.916      428.987        1.030        0.156      132.258       14.886        0.013      342.916       18.661      864.088
08/04/2014  14:21:00      -12.817      -79.040        7.833       49.714       32.273       19.092     2471.471     1041.547      364.510        0.517        0.194       80.073       15.939        0.040      342.975       18.761      864.072
08/04/2014  14:22:00     -107.214     -141.847      -12.263       43.099       46.288       19.061     1857.506     2142.550      363.324        1.806        0.218      177.808       12.401        0.005      342.930       18.681      864.072
08/04/2014  14:23:00      -65.669      -53.390        6.566       60.032       40.015       29.961     3603.897     1601.199      897.643        0.665        0.305       84.634       33.584        0.157      343.019       18.836      864.047
08/04/2014  14:24:00      -74.311      -61.258        0.879       43.102       34.653       24.969     1857.761     1200.859      623.442        0.648        0.184       96.305       19.707        0.042      343.059       18.904      864.036
08/04/2014  14:25:00      -72.088      -49.242        2.614       54.406       30.233       23.992     2959.964      914.042      575.609        0.604        0.222       87.301       25.141        0.083      343.066       18.916      864.031
08/04/2014  14:26:00      -72.061      -86.070       -1.930       66.355       42.664       29.824     4403.021     1820.227      889.487        0.986        0.356      112.253       25.712        0.052      343.033       18.858      864.038
08/04/2014  14:27:00      -70.095      -50.097       -6.191       32.557       27.584       18.478     1059.990      760.903      341.451        0.481        0.108       86.157       10.224        0.014      342.990       18.787      864.035
08/04/2014  14:28:00      -85.773      -53.300        0.170       54.651       51.507       26.137     2986.757     2652.963      683.128        0.826        0.316      100.985       26.444        0.069      343.019       18.835      864.037
08/04/2014  14:29:00      -36.930      -19.173        9.695       43.552       40.104       21.756     1896.744     1608.323      473.338        0.290        0.199       41.610       23.194        0.311      343.030       18.854      864.042
08/04/2014  14:30:00      -43.901      -25.693        3.072       51.823       23.831       18.003     2685.659      567.917      324.093        0.309        0.179       50.867       20.419        0.161      343.060       18.907      864.038
08/04/2014  14:31:00      -57.605      -38.865        7.513       34.521       31.884       25.294     1191.714     1016.594      639.764        0.387        0.142       69.489       13.942        0.040      343.066       18.916      864.029
08/04/2014  14:32:00      -82.829      -65.807       -4.938       28.451       26.890       20.379      809.485      723.053      415.295        0.658        0.097      105.789       13.166        0.015      343.082       18.944      864.020
08/04/2014  14:33:00      -55.350      -52.552        7.155       52.778       44.121       21.750     2785.527     1946.650      473.059        0.554        0.260       76.324       21.908        0.082      343.156       19.067      864.004
08/04/2014  14:34:00      -55.701      -98.000       -2.470       50.160       58.635       31.024     2515.985     3438.097      962.508        0.981        0.346      112.723       24.476        0.047      343.092       18.961      863.995
08/04/2014  14:35:00      -92.854      -73.019      -10.482       42.365       25.164       21.868     1794.795      633.211      478.218        0.848        0.145      118.126        9.398        0.006      343.041       18.873      863.977
08/04/2014  14:36:00      -57.881      -57.394      -16.048       39.712       46.230       22.009     1577.051     2137.205      484.384        0.555        0.210       81.513       23.238        0.081      343.039       18.870      863.956
08/04/2014  14:37:00      -56.643      -90.845       -2.909       44.759       61.141       43.288     2003.336     3738.181     1873.868        0.954        0.381      107.058       26.033        0.059      343.099       18.972      863.943
08/04/2014  14:38:00      -71.484      -35.882       -2.549       41.161       34.100       18.764     1694.264     1162.795      352.077        0.481        0.160       79.984       15.277        0.036      343.073       18.928      863.928
08/04/2014  14:39:00      -91.812      -39.168        0.816       55.288       42.379       25.856     3056.792     1796.022      668.543        0.774        0.276       99.818       22.130        0.049      343.012       18.824      863.933
08/04/2014  14:40:00      -48.881      -48.801        3.646       40.135       43.597       28.448     1610.816     1900.681      809.267        0.455        0.216       69.071       27.850        0.163      342.995       18.795      863.951
08/04/2014  14:41:00      -12.354      -30.985        5.389       49.992       26.129       26.239     2499.206      682.728      688.476        0.251        0.194       33.357       25.962        0.606      343.007       18.815      863.959
08/04/2014  14:42:00        3.145      -26.605       -0.629       19.511       30.691       15.125      380.691      941.929      228.756        0.113        0.078       26.790       12.120        0.205      343.095       18.963      863.958
08/04/2014  14:43:00      -30.473      -37.643       -8.312       47.284       29.473       23.492     2235.746      868.660      551.856        0.303        0.183       48.432       19.373        0.160      343.114       18.998      863.949
08/04/2014  14:44:00      -92.340      -40.860        7.618       56.354       43.775       31.170     3175.725     1916.231      971.574        0.816        0.303      100.977       31.771        0.099      342.993       18.792      863.942
08/04/2014  14:45:00      -17.660        9.456       28.867       48.786       34.697       29.312     2380.043     1203.900      859.215        0.284        0.222       20.032       25.689        1.645      343.125       19.016      863.930
08/04/2014  14:46:00      -51.893      -20.026       -1.366       37.351       27.538       22.013     1395.123      758.315      484.571        0.287        0.132       55.623       13.440        0.058      343.132       19.029      863.933
08/04/2014  14:47:00      -60.706      -31.079        0.449       39.331       22.354       18.173     1546.933      499.714      330.275        0.351        0.119       68.199       14.429        0.045      343.054       18.897      863.935
08/04/2014  14:48:00      -70.444      -47.059       -0.970       45.596       34.802       24.519     2078.973     1211.171      601.196        0.553        0.195       84.717       14.824        0.031      343.061       18.907      863.936
08/04/2014  14:49:00      -91.227     -112.776       -6.651       50.503       73.174       28.433     2550.539     5354.506      808.449        1.490        0.436      145.054       37.067        0.065      342.997       18.798      863.943
08/04/2014  14:50:00     -102.750     -119.535       -8.651       45.514       63.880       27.004     2071.519     4080.695      729.222        1.590        0.344      157.627       23.992        0.023      342.963       18.741      863.940
08/04/2014  14:51:00      -81.986      -71.636        5.316       44.544       50.040       23.368     1984.140     2504.031      546.064        0.846        0.252      108.873       23.780        0.048      343.053       18.895      863.924
08/04/2014  14:52:00      -56.709      -60.828        8.014       49.481       28.642       26.087     2448.329      820.343      680.535        0.546        0.197       83.163       24.834        0.089      343.040       18.872      863.911
08/04/2014  14:53:00      -72.587     -164.962      -11.272       50.393       30.010       22.567     2539.471      900.589      509.285        1.828        0.197      180.226       17.816        0.010      342.953       18.722      863.888
08/04/2014  14:54:00      -66.898      -74.036       -6.115       22.894       34.428       20.854      524.149     1185.297      434.899        0.607        0.107       99.783       18.860        0.036      343.097       18.969      863.851
08/04/2014  14:55:00      -43.432      -72.558       -2.625       33.012       35.533       19.007     1089.783     1262.569      361.255        0.494        0.136       84.564       14.259        0.028      343.153       19.064      863.832
08/04/2014  14:56:00      -65.629      -81.275       -0.956       34.017       34.419       23.404     1157.175     1184.682      547.731        0.690        0.144      104.464       15.655        0.022      343.186       19.122      863.832
08/04/2014  14:57:00      -37.274     -102.781        0.710       45.461       69.471       37.099     2066.741     4826.250     1376.312        1.011        0.413      109.331       35.019        0.103      343.161       19.077      863.835
08/04/2014  14:58:00      -36.678       -2.124       13.743       51.670       32.727       24.835     2669.818     1071.053      616.777        0.295        0.218       36.740       24.264        0.436      343.285       19.289      863.839
08/04/2014  14:59:00      -31.395      -33.930       10.107       37.712       45.288       29.436     1422.171     2050.968      866.485        0.329        0.217       46.227       23.297        0.254      343.264       19.253      863.849
08/04/2014  15:00:00      -70.046      -18.138        5.090       59.558       38.811       23.527     3547.150     1506.308      553.518        0.543        0.280       72.356       25.605        0.125      343.202       19.147      863.842
08/04/2014  15:01:00      -59.991      -14.319       -2.110       21.150       23.235       20.525      447.323      539.868      421.268        0.261        0.070       61.676       11.659        0.036      343.169       19.091      863.830
08/04/2014  15:02:00      -64.585      -56.290       -3.387       39.015       23.593       17.509     1522.173      556.607      306.551        0.487        0.119       85.673       14.295        0.028      343.168       19.088      863.822
08/04/2014  15:03:00      -34.063      -37.087        4.853       38.242       45.533       21.905     1462.426     2073.299      479.818        0.329        0.201       50.356       21.147        0.176      343.229       19.193      863.814
08/04/2014  15:04:00       -8.109     -113.889        9.593       37.506       39.138       32.177     1406.725     1531.788     1035.330        0.855        0.199      114.177       30.745        0.073      343.137       19.037      863.828
08/04/2014  15:05:00      -83.356      -65.619       -0.103       38.309       32.437       24.483     1467.589     1052.154      599.405        0.719        0.156      106.085       18.401        0.030      343.160       19.075      863.828
08/04/2014  15:06:00      -91.060      -63.208       -2.551       56.983       33.901       24.306     3247.084     1149.274      590.789        0.864        0.249      110.848       29.199        0.069      343.093       18.962      863.836
08/04/2014  15:07:00      -61.497      -51.145        5.884       46.864       31.563       21.279     2196.269      996.215      452.813        0.504        0.182       79.986       18.344        0.053      343.123       19.014      863.847
08/04/2014  15:08:00      -21.910      -13.487        9.465       28.661       26.232       18.644      821.456      688.096      347.609        0.130        0.093       25.728       21.290        0.685      343.300       19.316      863.847
08/04/2014  15:09:00      -21.402       -1.149       -8.244       27.743       34.691       22.485      769.659     1203.480      505.581        0.150        0.124       21.433       15.708        0.537      343.253       19.235      863.856
08/04/2014  15:10:00      -20.484      -63.602        1.933       29.768       68.948       28.084      886.105     4753.784      788.695        0.545        0.321       66.819       16.235        0.059      343.223       19.184      863.851
08/04/2014  15:11:00      -42.070      -31.789        5.958       48.813       23.585       18.063     2382.752      556.240      326.285        0.304        0.163       52.729       13.219        0.063      343.268       19.260      863.862
08/04/2014  15:12:00      -11.386      -53.501      -10.185       43.450       23.515       20.779     1887.910      552.947      431.785        0.298        0.144       54.699       17.233        0.099      343.305       19.322      863.857
08/04/2014  15:13:00      -12.370        3.347       11.079       29.656       16.754       17.649      879.484      280.688      311.484        0.088        0.074       12.815       17.635        1.894      343.380       19.451      863.854
08/04/2014  15:14:00      -40.200       21.028       -3.913       47.004       25.755       17.896     2209.402      663.301      320.280        0.263        0.160       45.367        9.682        0.046      343.211       19.163      863.847
08/04/2014  15:15:00      -53.155        2.286        8.553       35.066       28.945       18.984     1229.604      837.794      360.405        0.267        0.121       53.204       15.041        0.080      343.224       19.184      863.851
08/04/2014  15:16:00      -34.518      -28.331        0.809       28.025       39.188       15.165      785.374     1535.684      229.983        0.227        0.128       44.656       15.313        0.118      343.238       19.209      863.859
08/04/2014  15:17:00      -70.360        5.385       -0.705       29.109       23.374       17.182      847.352      546.323      295.211        0.333        0.084       70.565       15.703        0.050      343.146       19.051      863.861
08/04/2014  15:18:00      -57.044       12.258       -1.331       45.537       19.356       19.398     2073.588      374.662      376.297        0.311        0.141       58.346       22.921        0.154      343.164       19.083      863.863
08/04/2014  15:19:00      -88.370      -20.514       -7.994       24.178       31.179       16.518      584.553      972.099      272.838        0.506        0.091       90.720       12.219        0.018      343.166       19.085      863.861
08/04/2014  15:20:00      -73.328       11.323       -1.065       40.850       30.096       19.033     1668.695      905.786      362.242        0.422        0.147       74.197       16.388        0.049      343.163       19.081      863.852
08/04/2014  15:21:00     -103.019      -30.919        2.670       59.859       39.210       24.387     3583.131     1537.409      594.705        0.864        0.286      107.559       27.035        0.063      343.190       19.127      863.842
08/04/2014  15:22:00      -45.753      -35.479        6.586       35.246       40.300       20.928     1242.311     1624.075      437.993        0.335        0.165       57.898       18.881        0.106      343.261       19.247      863.827
08/04/2014  15:23:00      -67.256     -106.860       -7.799       36.496       39.764       20.546     1331.924     1581.177      422.146        0.967        0.167      126.263       14.800        0.014      343.177       19.105      863.814
08/04/2014  15:24:00      -86.475      -65.082        4.062       67.323       42.846       27.325     4532.395     1835.744      746.670        0.942        0.356      108.230       27.862        0.066      343.224       19.186      863.781
08/04/2014  15:25:00      -34.264      -83.063       10.037       49.247       56.580       25.019     2425.315     3201.249      625.954        0.721        0.313       89.853       21.096        0.055      343.206       19.155      863.764
08/04/2014  15:26:00      -35.362     -112.314       10.228       53.992       49.886       23.149     2915.131     2488.642      535.886        0.995        0.297      117.749       26.214        0.050      343.161       19.079      863.760
08/04/2014  15:27:00      -63.337      -50.168       11.375       66.475       48.422       30.897     4418.936     2344.677      954.647        0.719        0.386       80.799       35.020        0.188      343.273       19.269      863.762
08/04/2014  15:28:00      -69.747      -68.086        3.977       56.916       51.080       26.395     3239.425     2609.162      696.670        0.803        0.327       97.470       32.889        0.114      343.281       19.283      863.765
08/04/2014  15:29:00      -57.077      -45.025       -4.421       63.452       26.036       16.521     4026.110      677.865      272.943        0.514        0.249       72.698       24.203        0.111      343.185       19.120      863.769
08/04/2014  15:30:00      -27.619      -85.644        8.778       24.604       35.428       18.527      605.355     1255.140      343.266        0.519        0.110       89.988       16.474        0.034      343.205       19.153      863.763
08/04/2014  15:31:00      -46.841      -38.758        4.171       29.259       18.959       18.752      856.087      359.449      351.630        0.264        0.078       60.797        8.935        0.022      343.275       19.273      863.744
08/04/2014  15:32:00      -84.784      -71.564        3.315       37.248       49.914       24.422     1387.391     2491.445      596.434        0.840        0.224      110.949       22.100        0.040      343.242       19.216      863.727
08/04/2014  15:33:00      -48.275      -59.931        2.736       35.112       30.370       19.475     1232.859      922.343      379.295        0.423        0.127       76.956       14.817        0.037      343.161       19.076      863.709
08/04/2014  15:34:00      -94.782      -73.985       -4.178       39.113       32.647       17.143     1529.840     1065.848      293.875        0.868        0.144      120.239       15.510        0.017      343.199       19.141      863.689
08/04/2014  15:35:00      -30.390      -46.566        6.624       53.125       41.665       21.748     2822.318     1735.997      472.984        0.408        0.252       55.605       24.946        0.201      343.293       19.301      863.679
08/04/2014  15:36:00      -57.365      -45.116       -6.581       32.003       35.993       23.049     1024.190     1295.470      531.244        0.411        0.143       72.981       13.117        0.032      343.235       19.204      863.673
08/04/2014  15:37:00      -75.205      -38.277      -10.673       41.526       29.738       21.597     1724.369      884.367      466.432        0.515        0.154       84.386       19.110        0.051      343.225       19.188      863.664
08/04/2014  15:38:00      -12.470      -38.278        4.672       29.649       24.359       17.059      879.079      593.370      291.019        0.170        0.088       40.258       12.639        0.099      343.316       19.342      863.648
08/04/2014  15:39:00      -82.321      -38.222        6.019       54.013       39.495       23.161     2917.365     1559.844      536.422        0.664        0.251       90.762       25.378        0.078      343.314       19.337      863.632
08/04/2014  15:40:00      -69.020      -38.744        5.148       62.380       33.563       22.922     3891.206     1126.505      525.414        0.592        0.277       79.151       17.536        0.049      343.321       19.350      863.623
08/04/2014  15:41:00      -65.093      -54.627        6.248       61.399       38.986       33.931     3769.845     1519.922     1151.290        0.685        0.322       84.977       34.051        0.161      343.278       19.278      863.616
08/04/2014  15:42:00      -87.461      -70.582       -7.265       53.399       36.623       29.007     2851.466     1341.256      841.388        0.886        0.252      112.389       25.177        0.050      343.277       19.275      863.610
08/04/2014  15:43:00      -45.968      -18.839        4.755       47.982       24.860       21.570     2302.303      617.997      465.246        0.294        0.169       49.679       24.642        0.246      343.334       19.372      863.605
08/04/2014  15:44:00      -43.461      -33.365        5.802       35.530       34.420       20.529     1262.366     1184.703      421.458        0.295        0.143       54.792       21.823        0.159      343.395       19.476      863.596
08/04/2014  15:45:00      -20.558      -29.737       -1.315       25.065       21.276       20.652      628.274      452.661      426.492        0.141        0.075       36.151       16.258        0.202      343.314       19.339      863.591
08/04/2014  15:46:00      -31.815      -55.733       -7.257       20.512       39.783       22.048      420.730     1582.717      486.115        0.333        0.124       64.174       14.030        0.048      343.409       19.501      863.566
08/04/2014  15:47:00      -92.094     -102.098       -1.529       60.346       45.005       23.706     3641.631     2025.488      561.985        1.257        0.311      137.497       25.411        0.034      343.338       19.379      863.551
08/04/2014  15:48:00      -39.934      -66.064      -12.528       61.351       42.759       30.011     3763.968     1828.368      900.668        0.630        0.325       77.196       26.563        0.118      343.386       19.461      863.515
08/04/2014  15:49:00      -28.721      -51.274       -0.620       38.046       37.712       18.657     1447.502     1422.195      348.096        0.334        0.161       58.770       16.672        0.080      343.449       19.567      863.489
08/04/2014  15:50:00      -51.823      -40.232       13.504       61.791       43.691       27.126     3818.078     1908.911      735.815        0.547        0.323       65.606       34.323        0.274      343.426       19.530      863.462
08/04/2014  15:51:00      -18.860      -86.954      -15.473       69.440       44.201       26.041     4821.905     1953.733      678.142        0.780        0.373       88.976       15.670        0.031      343.405       19.492      863.435
08/04/2014  15:52:00      -71.306      -49.809       -1.404       56.765       31.357       19.177     3222.290      983.284      367.770        0.607        0.229       86.980       18.865        0.047      343.415       19.511      863.418
08/04/2014  15:53:00      -91.442      -63.477       -1.781       73.242       37.980       25.646     5364.445     1442.471      657.704        0.993        0.373      111.314       18.174        0.027      343.408       19.500      863.408
08/04/2014  15:54:00     -108.677      -75.342        2.999       92.725       63.885       34.756     8597.989     4081.357     1207.965        1.569        0.694      132.239       35.398        0.072      343.355       19.408      863.397
08/04/2014  15:55:00     -102.088      -57.421        0.013       60.218       64.094       38.438     3626.243     4108.078     1477.498        1.146        0.461      117.128       31.672        0.073      343.379       19.448      863.393
08/04/2014  15:56:00     -192.451     -124.762       -9.925       93.458       97.101       34.651     8734.424     9428.585     1200.668        3.603        0.968      229.353       41.323        0.032      343.334       19.369      863.373
08/04/2014  15:57:00      -88.665     -143.179       -1.892       59.610       72.485       41.837     3553.295     5254.136     1750.355        1.946        0.528      168.409       37.395        0.049      343.385       19.458      863.353
08/04/2014  15:58:00     -109.826     -225.793       -6.445       64.081       93.240       41.552     4106.426     8693.653     1726.568        3.880        0.726      251.086       30.183        0.014      343.344       19.386      863.331
08/04/2014  15:59:00     -114.942     -182.134      -13.460       88.169       82.028       49.237     7773.812     6728.559     2424.319        3.174        0.846      215.370       45.700        0.045      343.340       19.381      863.307
08/04/2014  16:00:00     -109.157     -196.792       -4.884       67.732       90.291       40.614     4587.626     8152.422     1649.475        3.252        0.719      225.038       36.534        0.026      343.333       19.367      863.287
08/04/2014  16:01:00      -51.127     -142.830        8.282       60.991       73.063       47.937     3719.888     5338.150     2297.988        1.722        0.568      151.705       39.579        0.068      343.330       19.364      863.287
08/04/2014  16:02:00      -75.916     -153.623        1.717       59.833       80.516       35.982     3580.026     6482.785     1294.687        2.036        0.568      171.357       17.931        0.011      343.322       19.349      863.300
08/04/2014  16:03:00      -85.371     -124.863      -11.870       63.014       59.045       33.935     3970.709     3486.298     1151.596        1.581        0.430      151.258       27.304        0.033      343.356       19.407      863.316
08/04/2014  16:04:00      -46.467      -80.984       -2.259       59.640       46.877       35.703     3556.900     2197.493     1274.732        0.787        0.351       93.368       29.493        0.100      343.377       19.447      863.329
08/04/2014  16:05:00      -38.360     -103.350       20.742       51.262       62.512       39.829     2627.816     3907.691     1586.357        1.035        0.406      110.239       42.855        0.151      343.383       19.456      863.341
08/04/2014  16:06:00     -103.772      -38.648       -0.492       62.279       48.047       29.749     3878.627     2308.532      885.018        0.967        0.354      110.736       28.527        0.066      343.390       19.468      863.344
08/04/2014  16:07:00      -87.597      -78.980        1.732       49.586       55.171       29.166     2458.756     3043.833      850.661        1.013        0.318      117.945       24.486        0.043      343.410       19.501      863.352
08/04/2014  16:08:00      -65.049      -78.421        1.846       39.418       31.948       19.745     1553.754     1020.666      389.847        0.667        0.148      101.888       16.427        0.026      343.383       19.456      863.355
08/04/2014  16:09:00      -33.819      -62.979       12.050       41.899       29.307       21.592     1755.556      858.891      466.213        0.417        0.154       71.485       17.421        0.059      343.472       19.608      863.355
08/04/2014  16:10:00     -142.905      -43.836       -2.173       55.359       41.283       34.320     3064.638     1704.250     1177.871        1.415        0.297      149.478       33.314        0.050      343.412       19.504      863.351
08/04/2014  16:11:00      -95.161      -26.581        4.209       65.034       53.602       32.171     4229.398     2873.143     1034.988        0.896        0.407       98.804       33.588        0.116      343.370       19.433      863.348
08/04/2014  16:12:00      -82.462      -40.253       10.767       81.076       63.544       32.784     6573.383     4037.824     1074.784        1.011        0.584       91.762       40.596        0.196      343.458       19.584      863.367
08/04/2014  16:13:00      -87.743      -35.238        4.494       50.487       58.859       29.648     2548.904     3464.363      879.029        0.793        0.345       94.555       34.698        0.135      343.398       19.481      863.364
08/04/2014  16:14:00      -77.154      -70.220        1.198       35.897       50.645       28.998     1288.584     2564.953      840.877        0.779        0.235      104.324       27.319        0.069      343.398       19.480      863.358
08/04/2014  16:15:00     -116.622      -61.034        3.967       71.080       48.971       33.174     5052.332     2398.129     1100.491        1.294        0.428      131.628       38.255        0.084      343.453       19.573      863.356
08/04/2014  16:16:00     -112.228      -45.781        4.366       51.063       39.463       19.316     2607.423     1557.307      373.114        0.962        0.227      121.207       15.967        0.017      343.386       19.463      863.348
08/04/2014  16:17:00      -62.164      -50.074       -1.174       76.106       34.335       26.108     5792.139     1178.891      681.646        0.701        0.383       79.823       33.104        0.172      343.484       19.630      863.343
08/04/2014  16:18:00      -87.933      -98.719       -4.359       71.974       40.249       25.662     5180.209     1620.011      658.544        1.248        0.373      132.203       23.195        0.031      343.408       19.498      863.335
08/04/2014  16:19:00     -118.230     -105.090       -6.240       76.595       53.251       30.333     5866.727     2835.709      920.094        1.734        0.481      158.184       34.873        0.049      343.404       19.491      863.319
08/04/2014  16:20:00     -125.749     -104.770       -4.809       58.139       54.636       33.303     3380.198     2985.074     1109.123        1.714        0.374      163.675       25.387        0.024      343.424       19.524      863.321
08/04/2014  16:21:00     -114.410      -78.235       -3.121       68.564       40.667       37.307     4701.045     1653.803     1391.797        1.348        0.387      138.601       40.699        0.086      343.413       19.505      863.317
08/04/2014  16:22:00     -131.776      -92.409       -3.458       78.964       51.373       29.875     6235.253     2639.158      892.542        1.784        0.488      160.948       33.652        0.044      343.372       19.435      863.310
08/04/2014  16:23:00      -78.466      -86.558        7.936       70.419       52.927       36.671     4958.803     2801.258     1344.771        1.141        0.455      116.830       31.074        0.071      343.408       19.497      863.302
08/04/2014  16:24:00     -137.788     -114.874        4.866       71.460       65.890       41.904     5106.546     4341.554     1755.947        2.170        0.560      179.392       43.010        0.057      343.396       19.476      863.288
08/04/2014  16:25:00     -131.704     -133.967       -6.971       62.951       58.949       32.404     3962.768     3474.939     1050.047        2.191        0.424      187.865       27.891        0.022      343.385       19.456      863.270
08/04/2014  16:26:00      -65.545      -95.324        6.775       81.619       91.895       28.433     6661.665     8444.621      808.453        1.467        0.796      115.684       30.621        0.070      343.427       19.532      863.252
08/04/2014  16:27:00     -171.120     -112.810       10.723       83.498       59.287       44.725     6971.843     3514.942     2000.363        2.730        0.624      204.959       47.348        0.053      343.405       19.490      863.246
08/04/2014  16:28:00      -66.475      -97.176        3.218       72.007       45.932       33.337     5185.034     2109.738     1111.330        1.114        0.420      117.738       26.109        0.049      343.413       19.504      863.245
08/04/2014  16:29:00      -94.841      -92.584       -6.735       42.505       36.193       24.745     1806.706     1309.965      612.298        1.067        0.186      132.539       23.445        0.031      343.397       19.479      863.237
08/04/2014  16:30:00      -42.090      -68.445        7.747       44.063       38.361       27.352     1941.507     1471.559      748.109        0.534        0.208       80.351       25.220        0.099      343.463       19.590      863.223
08/04/2014  16:31:00     -124.360      -75.447        0.741       83.240       35.668       32.143     6928.866     1272.220     1033.148        1.519        0.462      145.457       30.429        0.044      343.431       19.536      863.202
08/04/2014  16:32:00      -57.588      -75.781       -2.310       64.322       46.134       23.894     4137.320     2128.376      570.929        0.795        0.342       95.180       25.212        0.070      343.451       19.571      863.188
08/04/2014  16:33:00     -108.733     -143.930       -4.986       60.926       87.438       37.396     3711.992     7645.417     1398.425        2.266        0.638      180.384       33.081        0.034      343.456       19.578      863.186
08/04/2014  16:34:00     -145.965      -83.526        4.894       65.638       43.301       34.106     4308.310     1875.000     1163.252        1.782        0.367      168.174       34.989        0.043      343.458       19.584      863.202
08/04/2014  16:35:00     -155.389      -42.865       -4.893       64.830       61.338       30.418     4202.980     3762.396      925.283        1.745        0.445      161.193       22.028        0.019      343.453       19.574      863.209
08/04/2014  16:36:00     -109.946     -128.246        5.859       96.066       69.058       45.403     9228.670     4769.033     2061.399        2.231        0.803      168.924       46.146        0.075      343.479       19.616      863.211
08/04/2014  16:37:00      -71.148      -70.587       10.856       66.639       58.456       37.520     4440.732     3417.048     1407.760        0.971        0.463      100.222       26.960        0.072      343.496       19.649      863.220
08/04/2014  16:38:00      -84.929      -76.269       20.370       95.767       73.987       44.041     9171.346     5474.087     1939.576        1.501        0.829      114.149       46.187        0.164      343.496       19.649      863.221
08/04/2014  16:39:00      -86.643      -86.627        1.132       75.877       68.020       33.163     5757.390     4626.706     1099.755        1.325        0.574      122.521       45.193        0.136      343.485       19.631      863.228
08/04/2014  16:40:00      -34.392      -88.210        9.305       31.684       43.772       24.758     1003.895     1915.948      612.966        0.629        0.177       94.677       23.261        0.060      343.481       19.624      863.238
08/04/2014  16:41:00      -73.179      -65.221       -4.850       39.198       36.322       25.513     1536.452     1319.304      650.938        0.657        0.175       98.025       18.179        0.034      343.500       19.655      863.241
08/04/2014  16:42:00      -44.425      -61.106       17.089       48.551       59.424       27.845     2357.179     3531.184      775.365        0.633        0.333       75.548       30.403        0.162      343.509       19.672      863.240
08/04/2014  16:43:00      -48.939      -59.283        4.658       49.455       58.869       27.732     2445.843     3465.531      769.041        0.630        0.334       76.873       29.953        0.152      343.498       19.654      863.251
08/04/2014  16:44:00      -88.452      -24.002        6.288       52.442       37.108       28.287     2750.155     1377.026      800.159        0.668        0.246       91.651       36.569        0.159      343.525       19.701      863.258
08/04/2014  16:45:00      -83.449      -34.211        0.177       30.596       49.177       18.478      936.131     2418.368      341.420        0.591        0.185       90.190       16.760        0.035      343.505       19.662      863.268
08/04/2014  16:46:00      -53.410      -30.696        6.771       41.747       48.502       27.747     1742.841     2352.477      769.883        0.435        0.243       61.603       26.005        0.178      343.518       19.685      863.274
08/04/2014  16:47:00      -24.515      -34.417        7.562       40.871       27.319       22.641     1670.417      746.309      512.621        0.239        0.146       42.256       19.881        0.221      343.550       19.740      863.265
08/04/2014  16:48:00      -36.657      -39.168       11.508       53.799       32.889       23.989     2894.335     1081.687      575.451        0.378        0.228       53.646       20.581        0.147      343.562       19.762      863.268
08/04/2014  16:49:00      -63.312      -47.826        2.340       53.452       40.002       26.918     2857.164     1600.190      724.604        0.574        0.259       79.345       28.483        0.129      343.548       19.734      863.274
08/04/2014  16:50:00      -74.476      -18.061       10.911       75.358       55.861       37.997     5678.866     3120.439     1443.746        0.812        0.512       76.635       42.214        0.303      343.539       19.723      863.276
08/04/2014  16:51:00      -38.720      -24.456       14.755       38.069       40.924       24.942     1449.280     1674.747      622.115        0.303        0.187       45.797       17.394        0.144      343.500       19.655      863.285
08/04/2014  16:52:00      -57.045      -23.343        2.336       28.496       31.271       18.866      811.997      977.882      355.923        0.297        0.107       61.636       17.190        0.078      343.473       19.608      863.297
08/04/2014  16:53:00      -47.181      -52.827      -15.286       34.344       44.845       21.574     1179.512     2011.092      465.434        0.445        0.183       70.829        6.936        0.010      343.523       19.696      863.304
08/04/2014  16:54:00     -160.902      -89.286       -5.112       69.265       46.643       33.788     4797.685     2175.590     1141.642        2.100        0.406      184.015       35.958        0.038      343.518       19.685      863.297
08/04/2014  16:55:00     -132.309      -61.946       -1.503       43.642       39.390       27.080     1904.645     1551.567      733.322        1.277        0.209      146.093       23.612        0.026      343.474       19.614      863.305
08/04/2014  16:56:00     -165.182       -7.426      -10.645       52.760       49.000       33.134     2783.665     2400.959     1097.842        1.687        0.314      165.349       28.826        0.030      343.465       19.596      863.307
08/04/2014  16:57:00     -136.173        5.277       -3.286       59.442       40.331       28.772     3533.292     1626.621      827.810        1.228        0.299      136.275       24.566        0.032      343.444       19.557      863.322
08/04/2014  16:58:00      -43.111      -13.377       13.968       51.122       44.224       22.626     2613.486     1955.770      511.921        0.366        0.254       45.139       28.174        0.390      343.522       19.694      863.326
08/04/2014  16:59:00     -209.822       35.513       -7.936       52.761       34.769       25.242     2783.705     1208.911      637.140        2.499        0.231      212.807       25.316        0.014      343.442       19.552      863.330
08/04/2014  17:00:00     -142.565       -0.102       -6.446       65.904       34.369       24.100     4343.274     1181.215      580.796        1.323        0.305      142.565       30.002        0.044      343.439       19.550      863.339
08/04/2014  17:01:00     -185.723      -46.753      -13.451       70.631       50.166       28.902     4988.760     2516.580      835.297        2.260        0.417      191.518       29.962        0.024      343.432       19.537      863.340
08/04/2014  17:02:00     -139.672      -60.389        1.363       61.159       56.148       38.658     3740.385     3152.584     1494.467        1.577        0.419      152.168       34.472        0.051      343.442       19.555      863.338
08/04/2014  17:03:00     -111.162      -55.923        6.232       68.557       80.477       34.728     4700.021     6476.518     1206.027        1.395        0.619      124.436       37.252        0.090      343.409       19.500      863.333
08/04/2014  17:04:00     -160.550      -30.367       -2.416       39.726       50.819       27.415     1578.147     2582.560      751.591        1.581        0.246      163.397       22.471        0.019      343.401       19.486      863.333
08/04/2014  17:05:00     -165.761      -48.516       -6.821       82.423       67.706       32.724     6793.477     4584.105     1070.852        2.116        0.622      172.715       34.593        0.040      343.422       19.521      863.319
08/04/2014  17:06:00     -183.831      -77.802      -12.928       49.532       38.547       25.771     2453.468     1485.887      664.140        2.231        0.230      199.617       18.600        0.009      343.417       19.510      863.318
08/04/2014  17:07:00     -143.131      -54.583       -0.777       85.956       63.594       33.145     7388.493     4044.176     1098.622        1.800        0.627      153.186       38.408        0.063      343.435       19.539      863.320
08/04/2014  17:08:00     -160.098      -35.735       -4.216       68.930       45.972       31.893     4751.298     2113.396     1017.133        1.740        0.394      164.038       37.174        0.051      343.430       19.534      863.324
08/04/2014  17:09:00     -159.009      -47.371        0.672       58.028       49.310       30.699     3367.267     2431.491      942.405        1.713        0.337      165.915       28.629        0.030      343.409       19.501      863.343
08/04/2014  17:10:00     -194.085      -32.695       -9.830       73.128       43.456       35.820     5347.679     1888.457     1283.085        2.368        0.426      196.819       38.285        0.038      343.400       19.484      863.371
08/04/2014  17:11:00     -142.136      -55.703       -0.707       72.259       52.789       34.884     5221.373     2786.699     1216.898        1.626        0.461      152.662       26.519        0.030      343.397       19.480      863.377
08/04/2014  17:12:00     -202.372      -31.537      -29.807       72.906       50.795       27.592     5315.336     2580.151      761.298        2.575        0.433      204.815       29.309        0.020      343.433       19.538      863.375
08/04/2014  17:13:00     -167.042      -26.227       -4.306       77.118       54.472       34.668     5947.193     2967.171     1201.854        1.936        0.506      169.088       31.467        0.035      343.401       19.485      863.366
08/04/2014  17:14:00     -182.827      -27.509        1.136       61.745       60.574       32.469     3812.384     3669.221     1054.224        2.136        0.427      184.885       34.764        0.035      343.379       19.448      863.368
08/04/2014  17:15:00     -172.215       -5.352       -1.715       70.003       41.237       30.956     4900.373     1700.459      958.266        1.862        0.378      172.298       31.779        0.034      343.352       19.399      863.373
08/04/2014  17:16:00     -160.766      -51.467       -7.651       50.901       44.307       31.815     2590.911     1963.114     1012.214        1.706        0.278      168.803       26.101        0.024      343.324       19.355      863.379
08/04/2014  17:17:00     -190.940      -12.112      -12.818       57.488       56.869       33.883     3304.879     3234.067     1148.048        2.223        0.384      191.324       29.632        0.024      343.350       19.397      863.387
08/04/2014  17:18:00     -238.114      -38.130       -9.453       79.799       75.809       44.391     6367.897     5747.065     1970.564        3.616        0.704      241.148       45.349        0.035      343.330       19.363      863.408
08/04/2014  17:19:00     -185.873      -45.966      -13.471       85.612       69.734       39.995     7329.387     4862.768     1599.566        2.531        0.690      191.472       39.147        0.042      343.325       19.356      863.412
08/04/2014  17:20:00     -265.594      -67.370      -11.785       90.806       62.563       47.982     8245.765     3914.185     2302.291        4.484        0.723      274.005       50.678        0.034      343.354       19.403      863.405
08/04/2014  17:21:00     -238.905      -19.731      -21.143       64.940       66.830       40.969     4217.223     4466.301     1678.438        3.413        0.518      239.719       31.963        0.018      343.349       19.392      863.394
08/04/2014  17:22:00     -202.545      -48.389       -5.988       58.907       53.425       34.904     3470.009     2854.230     1218.267        2.547        0.377      208.245       20.915        0.010      343.356       19.406      863.387
08/04/2014  17:23:00     -194.642      -88.102       -9.788       73.795       53.040       30.461     5445.728     2813.217      927.853        2.746        0.459      213.653       29.013        0.018      343.388       19.460      863.394
08/04/2014  17:24:00     -277.275      -58.969      -20.282       69.738       71.599       41.219     4863.333     5126.401     1698.968        4.623        0.584      283.477       37.239        0.017      343.392       19.467      863.405
08/04/2014  17:25:00     -217.892      -12.546      -15.935       63.085       70.340       37.918     3979.713     4947.772     1437.813        2.912        0.518      218.252       33.634        0.024      343.385       19.456      863.407
08/04/2014  17:26:00      -82.772       19.322       -7.265       62.338       70.060       31.380     3886.061     4908.356      984.675        0.853        0.489       84.998       27.169        0.102      343.382       19.454      863.406
08/04/2014  17:27:00     -176.417      -21.817      -11.424       86.246       80.948       36.877     7438.435     6552.582     1359.946        2.354        0.768      177.761       37.805        0.045      343.415       19.509      863.411
08/04/2014  17:28:00     -153.531        4.246       -2.515      123.524       49.388       43.895    15258.128     2439.191     1926.740        2.161        0.981      153.590       59.546        0.150      343.442       19.555      863.418
08/04/2014  17:29:00     -209.759      -39.606      -12.373       75.351       79.410       45.171     5677.828     6306.006     2040.406        2.987        0.701      213.465       39.540        0.034      343.428       19.529      863.403
08/04/2014  17:30:00     -173.392      -20.067       -4.700       92.199       56.182       36.135     8500.601     3156.372     1305.723        2.172        0.648      174.549       41.696        0.057      343.426       19.528      863.393
08/04/2014  17:31:00     -352.033        7.607      -25.847      117.788       84.842       62.351    13873.936     7198.236     3887.638        7.480        1.248      352.115       63.885        0.033      343.483       19.622      863.373
08/04/2014  17:32:00     -221.175      -24.611      -20.691      107.538       81.271       41.560    11564.422     6605.029     1727.206        3.492        0.995      222.540       45.798        0.042      343.429       19.531      863.359
08/04/2014  17:33:00     -126.641      -60.687       -1.419       70.404       54.270       38.892     4956.694     2945.185     1512.556        1.457        0.471      140.431       37.125        0.070      343.381       19.452      863.338
08/04/2014  17:34:00     -190.685      -90.604       10.192      133.611       76.579       45.240    17851.782     5864.271     2046.630        3.521        1.288      211.116       53.898        0.065      343.379       19.446      863.316
08/04/2014  17:35:00     -231.575        2.235      -23.550       96.301       76.861       38.314     9273.963     5907.546     1467.930        3.541        0.832      231.586       45.238        0.038      343.461       19.587      863.309
08/04/2014  17:36:00     -159.438      -40.640        8.354      136.288       63.857       50.695    18574.416     4077.749     2570.001        2.618        1.261      164.536       66.180        0.162      343.470       19.599      863.304
08/04/2014  17:37:00     -153.169      -35.519       -7.375       67.718       54.249       31.532     4585.781     2942.974      994.242        1.665        0.426      157.233       20.983        0.018      343.427       19.528      863.293
08/04/2014  17:38:00     -262.288      -59.800      -15.594       72.974       70.233       43.855     5325.186     4932.614     1923.302        4.240        0.609      269.018       41.771        0.024      343.489       19.633      863.281
08/04/2014  17:39:00     -341.436      -11.984      -30.686      108.753       78.027       42.524    11827.273     6088.248     1808.321        6.869        0.986      341.647       39.616        0.013      343.487       19.629      863.275
08/04/2014  17:40:00     -224.825       19.535      -11.247      135.729       73.252       51.133    18422.282     5365.792     2614.586        3.872        1.320      225.672       53.841        0.057      343.354       19.404      863.271
08/04/2014  17:41:00     -197.442      -60.080       -0.740       63.711       78.746       39.536     4059.054     6200.903     1563.118        2.721        0.591      206.381       37.865        0.034      343.346       19.390      863.259
08/04/2014  17:42:00     -205.383      -53.442       -6.776       84.048       64.142       26.926     7064.107     4114.143      725.005        2.849        0.595      212.222       33.585        0.025      343.331       19.364      863.268
08/04/2014  17:43:00     -245.164      -14.898      -28.012       95.690       48.363       36.274     9156.649     2339.000     1315.793        3.696        0.641      245.616       39.840        0.026      343.376       19.442      863.262
08/04/2014  17:44:00     -179.479      -46.257      -20.777       88.866       62.536       38.242     7897.094     3910.772     1462.463        2.402        0.664      185.344       42.705        0.053      343.359       19.412      863.240
08/04/2014  17:45:00     -236.982      -47.649      -20.053      122.201       55.234       38.525    14933.096     3050.790     1484.139        3.915        0.973      241.725       50.858        0.044      343.354       19.404      863.232
08/04/2014  17:46:00     -187.319      -16.996      -13.093       99.144       53.755       32.747     9829.502     2889.598     1072.341        2.467        0.690      188.089       39.940        0.045      343.315       19.340      863.214
08/04/2014  17:47:00     -229.986       -0.713      -17.368       59.837       52.686       33.182     3580.453     2775.811     1101.074        3.032        0.373      229.987       21.768        0.009      343.284       19.284      863.194
08/04/2014  17:48:00     -221.248      -39.377      -19.188       77.652       51.087       40.161     6029.773     2609.891     1612.919        3.056        0.513      224.724       44.707        0.040      343.295       19.303      863.171
08/04/2014  17:49:00      -99.680      -16.707        0.393       72.820       36.137       23.471     5302.766     1305.886      550.891        0.869        0.358      101.070       23.680        0.055      343.272       19.265      863.164
08/04/2014  17:50:00     -132.444      -29.418       -4.291       68.029       44.871       25.014     4627.972     2013.431      625.703        1.284        0.363      135.672       26.474        0.038      343.255       19.236      863.149
08/04/2014  17:51:00     -206.047      -81.004       -8.774       70.086       65.435       36.290     4912.040     4281.749     1316.960        2.980        0.526      221.398       37.380        0.029      343.323       19.350      863.133
08/04/2014  17:52:00     -127.402      -43.403       -3.369       71.322       60.431       36.410     5086.889     3651.940     1325.724        1.409        0.503      134.592       37.196        0.076      343.311       19.332      863.133
08/04/2014  17:53:00     -145.411      -35.075        1.693       75.635       63.166       37.755     5720.631     3989.976     1425.415        1.675        0.557      149.581       37.920        0.064      343.319       19.346      863.127
08/04/2014  17:54:00     -133.496      -89.153        0.576       81.687       80.275       33.518     6672.795     6444.045     1123.450        2.000        0.712      160.529       35.550        0.049      343.313       19.336      863.105
08/04/2014  17:55:00     -159.164      -58.514       -4.477       87.691       66.065       39.388     7689.747     4364.630     1551.393        2.119        0.680      169.579       40.180        0.056      343.304       19.322      863.099
08/04/2014  17:56:00     -272.996      -81.221      -16.686       93.980       76.981       46.031     8832.239     5926.058     2118.872        4.914        0.844      284.822       42.661        0.022      343.291       19.294      863.100
08/04/2014  17:57:00     -221.693      -38.073       -2.279       74.295       69.773       37.879     5519.789     4868.205     1434.801        3.121        0.591      224.938       39.543        0.031      343.238       19.205      863.101
08/04/2014  17:58:00     -217.433      -57.327       -5.974       87.125       68.917       40.786     7590.697     4749.525     1663.474        3.230        0.700      224.863       45.645        0.041      343.280       19.276      863.104
08/04/2014  17:59:00     -161.550      -70.815       -3.654       83.338       66.673       33.202     6945.236     4445.313     1102.352        2.181        0.625      176.389       36.201        0.042      343.256       19.237      863.100
08/04/2014  18:00:00     -205.826      -18.398       -6.749       95.171       76.454       42.837     9057.594     5845.217     1835.051        2.974        0.837      206.647       47.053        0.052      343.288       19.290      863.104
08/04/2014  18:01:00     -153.814      -48.861       -1.899       60.555       51.585       35.884     3666.939     2660.973     1287.646        1.683        0.381      161.388       34.702        0.046      343.255       19.235      863.102
08/04/2014  18:02:00     -159.974      -31.664        2.764       54.741       42.093       32.753     2996.592     1771.788     1072.765        1.622        0.292      163.078       28.156        0.030      343.230       19.194      863.096
08/04/2014  18:03:00     -119.583      -49.753        4.587       69.687       53.593       29.742     4856.285     2872.242      884.584        1.270        0.431      129.521       32.052        0.061      343.235       19.201      863.097
08/04/2014  18:04:00     -118.410      -52.844        2.072       68.076       54.112       33.310     4634.278     2928.060     1109.539        1.274        0.434      129.667       35.416        0.075      343.243       19.218      863.099
08/04/2014  18:05:00     -179.411        5.265       -5.721       99.393       48.031       37.488     9878.998     2306.965     1405.325        2.292        0.680      179.488       46.774        0.068      343.209       19.157      863.095
08/04/2014  18:06:00     -147.090      -19.452      -10.636       51.109       39.225       27.692     2612.102     1538.631      766.829        1.352        0.246      148.371       23.724        0.026      343.239       19.211      863.089
08/04/2014  18:07:00     -139.148      -42.783       -6.999       63.488       41.502       24.499     4030.738     1722.410      600.183        1.380        0.318      145.576       26.962        0.034      343.247       19.223      863.086
08/04/2014  18:08:00     -121.895      -14.365      -13.206       62.126       48.865       27.778     3859.665     2387.810      771.590        1.113        0.351      122.738       34.958        0.081      343.285       19.288      863.090
08/04/2014  18:09:00     -126.864      -15.206       -7.971       29.090       42.550       22.570      846.236     1810.529      509.399        0.978        0.158      127.772       17.128        0.018      343.279       19.277      863.100
08/04/2014  18:10:00     -151.985        7.510       -7.781       61.945       49.785       34.366     3837.227     2478.498     1181.029        1.536        0.375      152.171       28.098        0.034      343.293       19.301      863.118
08/04/2014  18:11:00     -160.722      -59.238        0.902       80.958       48.902       30.981     6554.244     2391.367      959.829        1.962        0.495      171.291       26.143        0.023      343.319       19.345      863.132
08/04/2014  18:12:00     -210.773      -47.818       -8.082       84.682       63.486       37.355     7170.960     4030.428     1395.368        2.968        0.630      216.129       33.718        0.024      343.328       19.359      863.134
08/04/2014  18:13:00      -29.070      -26.376       27.203       78.518       54.663       43.862     6165.049     2988.085     1923.891        0.668        0.554       39.252       46.983        1.433      343.384       19.456      863.124
08/04/2014  18:14:00     -198.311      -63.417       -6.642       86.064       66.068       37.939     7406.941     4364.943     1439.346        2.830        0.661      208.204       34.839        0.028      343.350       19.395      863.124
08/04/2014  18:15:00     -240.743      -13.048      -15.315       98.621       73.841       49.127     9726.090     5452.496     2413.432        3.797        0.880      241.097       53.400        0.049      343.415       19.508      863.130
08/04/2014  18:16:00     -109.411      -33.229       -9.027       43.479       54.292       35.113     1890.458     2947.633     1232.923        0.961        0.304      114.345       13.488        0.014      343.396       19.478      863.157
08/04/2014  18:17:00     -133.044       65.244      -26.705       64.074       71.719       34.298     4105.451     5143.621     1176.371        1.655        0.521      148.181       34.238        0.053      343.384       19.455      863.186
08/04/2014  18:18:00     -114.121      -56.328       -3.942       60.430       49.708       35.134     3651.734     2470.930     1234.424        1.178        0.368      127.266       26.550        0.044      343.415       19.510      863.209
08/04/2014  18:19:00     -152.665       -5.883      -10.486       52.519       63.050       36.631     2758.265     3975.297     1341.816        1.576        0.404      152.778       34.451        0.051      343.399       19.481      863.230
08/04/2014  18:20:00     -200.154       -0.725      -12.544       69.710       84.734       37.876     4859.449     7179.820     1434.627        2.684        0.674      200.155       27.914        0.019      343.443       19.556      863.266
08/04/2014  18:21:00     -142.400      -51.628        0.847       86.109       65.291       37.894     7414.759     4262.968     1435.953        1.803        0.656      151.470       20.744        0.019      343.474       19.610      863.286
08/04/2014  18:22:00     -231.316      -52.785      -12.663      102.549       94.862       46.379    10516.263     8998.784     2150.970        3.906        1.083      237.262       47.571        0.040      343.455       19.577      863.308
08/04/2014  18:23:00     -170.750      -43.729      -17.594      114.590       79.603       38.316    13130.777     6336.716     1468.111        2.615        1.047      176.260       32.895        0.035      343.466       19.597      863.316
08/04/2014  18:24:00     -178.256      -20.380      -26.599       64.733       61.510       32.546     4190.387     3783.462     1059.263        2.096        0.452      179.418       28.336        0.025      343.454       19.575      863.334
08/04/2014  18:25:00     -164.644        0.082      -16.824       75.350       91.415       25.437     5677.697     8356.736      647.040        2.103        0.734      164.644       27.044        0.027      343.479       19.617      863.349
08/04/2014  18:26:00     -190.672      -17.960      -10.982       71.583       70.803       44.645     5124.153     5013.066     1993.206        2.446        0.607      191.516       32.460        0.029      343.423       19.520      863.368
08/04/2014  18:27:00     -128.531       -8.275      -15.080       54.674       57.635       35.099     2989.209     3321.777     1231.972        1.218        0.377      128.797       20.284        0.025      343.451       19.570      863.383
08/04/2014  18:28:00     -105.178       -1.837      -25.764       55.822       31.656       27.159     3116.092     1002.085      737.634        0.829        0.243      105.194       17.980        0.029      343.477       19.619      863.393
08/04/2014  18:29:00     -104.143       -1.379      -10.495       41.724       50.928       21.463     1740.857     2593.663      460.641        0.788        0.240      104.152       24.740        0.056      343.505       19.664      863.401
08/04/2014  18:30:00      -82.776      -27.643      -10.820       36.354       18.713       16.027     1321.602      350.181      256.876        0.483        0.096       87.270       11.890        0.019      343.619       19.857      863.412
08/04/2014  18:31:00        1.134       -4.575        2.480       22.628       29.816       16.160      512.029      889.004      261.162        0.084        0.083        4.713       10.341        4.813      343.569       19.775      863.406
08/04/2014  18:32:00      -30.596       28.199       -6.912       20.656       25.363       12.862      426.654      643.258      165.443        0.151        0.062       41.609       11.868        0.081      343.654       19.917      863.411
08/04/2014  18:33:00       -3.044       44.025        3.088       19.166       13.061       12.714      367.346      170.582      161.648        0.133        0.035       44.130        9.422        0.046      343.659       19.926      863.408
08/04/2014  18:34:00      -34.414       15.012       -1.998       20.097       16.796        9.358      403.897      282.103       87.569        0.109        0.039       37.546       10.821        0.083      343.683       19.963      863.414
08/04/2014  18:35:00       -4.137       48.337        1.351       30.366       37.186       16.643      922.080     1382.828      276.978        0.247        0.129       48.514       19.685        0.165      343.680       19.961      863.423
08/04/2014  18:36:00      -24.935       81.888       -8.068       25.298       33.726       19.254      640.008     1137.462      370.719        0.477        0.107       85.600       10.175        0.014      343.702       19.998      863.427
08/04/2014  18:37:00      -94.397       69.726      -15.900       37.963       31.772       22.151     1441.213     1009.468      490.675        0.848        0.147      117.356       20.335        0.030      343.680       19.960      863.427
08/04/2014  18:38:00      -49.118       58.544       -5.975       40.050       44.225       18.709     1604.019     1955.808      350.013        0.489        0.195       76.420       14.393        0.035      343.696       19.989      863.410
08/04/2014  18:39:00       -3.018      122.087      -10.237       36.790       35.661       22.719     1353.487     1271.684      516.164        0.908        0.157      122.125       17.265        0.020      343.713       20.018      863.394
08/04/2014  18:40:00      -52.369       43.031       -3.399       35.596       30.044       19.660     1267.102      902.629      386.529        0.358        0.128       67.780       19.550        0.083      343.695       19.987      863.400
08/04/2014  18:41:00     -110.229       47.431      -19.485       38.045       28.569       22.119     1447.390      816.205      489.262        0.877        0.138      120.001       19.446        0.026      343.661       19.928      863.413
08/04/2014  18:42:00      -54.301        0.395       -8.288       39.159       38.919       15.312     1533.425     1514.700      234.458        0.315        0.164       54.302       12.621        0.054      343.651       19.912      863.408
08/04/2014  18:43:00      -54.346       71.727      -11.464       30.173       26.191       16.198      910.434      685.977      262.377        0.504        0.093       89.990        8.066        0.008      343.673       19.948      863.421
08/04/2014  18:44:00        0.812       41.030        0.186       16.504       17.572       13.880      272.390      308.782      192.648        0.123        0.039       41.038       12.982        0.100      343.670       19.943      863.427
08/04/2014  18:45:00       -7.532       73.789      -11.056       26.086       48.406       13.097      680.486     2343.137      171.543        0.441        0.160       74.173       20.594        0.077      343.686       19.969      863.424
08/04/2014  18:46:00      -41.885       39.432       -2.734       30.212       47.054       17.896      912.780     2214.059      320.251        0.338        0.172       57.526       21.494        0.140      343.653       19.917      863.433
08/04/2014  18:47:00      -98.824      -37.669      -15.307       40.712       34.324       21.660     1657.458     1178.117      469.160        0.736        0.165      105.760       13.077        0.015      343.591       19.809      863.450
08/04/2014  18:48:00      -94.193       24.915      -10.009       40.600       40.900       20.461     1648.372     1672.849      418.654        0.667        0.187       97.433       19.720        0.041      343.612       19.847      863.454
08/04/2014  18:49:00      -73.685       19.856       -3.496       23.887       19.088       15.101      570.609      364.339      228.035        0.350        0.058       76.313       10.045        0.017      343.591       19.809      863.451
08/04/2014  18:50:00      -17.127        7.163        1.456       16.064       10.164       11.112      258.066      103.303      123.473        0.042        0.024       18.564        8.217        0.196      343.633       19.882      863.445
08/04/2014  18:51:00      -10.557       19.010        2.249       19.467       20.743       15.628      378.967      430.281      244.229        0.077        0.053       21.745       11.579        0.284      343.662       19.932      863.448
08/04/2014  18:52:00       -3.885       77.404      -11.305       17.980       25.659       11.315      323.279      658.365      128.031        0.362        0.055       77.501       11.597        0.022      343.628       19.876      863.447
08/04/2014  18:53:00       28.301       52.092       -4.681       29.540       21.850       17.584      872.607      477.416      309.197        0.260        0.083       59.283        9.737        0.027      343.623       19.867      863.447
08/04/2014  18:54:00       41.220       42.231       -3.059       20.518       18.063       14.401      420.970      326.259      207.383        0.222        0.048       59.013       10.870        0.034      343.638       19.891      863.445
08/04/2014  18:55:00       -8.772       30.713       -8.801        9.567        9.366        8.318       91.536       87.726       69.181        0.067        0.012       31.941        5.508        0.030      343.635       19.891      863.443
08/04/2014  18:56:00      -11.699       26.796       -8.760       13.795       24.566        7.285      190.297      603.465       53.078        0.089        0.042       29.239        6.092        0.043      343.638       19.892      863.441
08/04/2014  18:57:00      -36.878       50.911      -10.855       16.806       23.844       17.497      282.458      568.513      306.154        0.261        0.058       62.865       10.732        0.029      343.727       20.042      863.435
08/04/2014  18:58:00      -61.608       55.369      -12.852       24.301       20.770       17.222      590.546      431.397      296.602        0.417        0.066       82.833       14.841        0.032      343.753       20.085      863.441
08/04/2014  18:59:00      -46.991       60.848      -14.031       29.043       19.423       13.366      843.500      377.237      178.653        0.375        0.070       76.881        8.983        0.014      343.705       20.003      863.449
08/04/2014  19:00:00      -47.280       70.261      -10.430       38.702       36.725       18.587     1497.882     1348.720      345.492        0.524        0.160       84.688       18.382        0.047      343.728       20.043      863.449
08/04/2014  19:01:00      -84.568       50.931      -23.694       21.609       44.563       17.097      466.942     1985.822      292.322        0.653        0.137       98.721       14.665        0.022      343.761       20.099      863.454
08/04/2014  19:02:00      -64.631       73.440      -13.135       34.748       32.763       20.952     1207.446     1073.410      438.986        0.623        0.136       97.830       10.622        0.012      343.744       20.071      863.462
08/04/2014  19:03:00     -115.183       72.122      -33.073       53.074       36.714       20.647     2816.827     1347.945      426.299        1.208        0.230      135.899       12.912        0.009      343.784       20.142      863.444
08/04/2014  19:04:00       12.067       42.761       -0.747       24.188       20.265       21.679      585.082      410.664      469.971        0.172        0.073       44.431       16.779        0.143      343.762       20.103      863.432
08/04/2014  19:05:00        6.424       32.939        6.687       13.580       34.198       18.618      184.422     1169.517      346.641        0.144        0.085       33.559       21.747        0.420      343.713       20.018      863.425
08/04/2014  19:06:00       36.525      135.724      -12.852       27.610       55.408       28.877      762.302     3069.995      833.884        1.229        0.233      140.552       26.253        0.035      343.607       19.838      863.418
08/04/2014  19:07:00     -105.631      119.910      -13.031       95.896       64.914       42.219     9196.117     4213.781     1782.465        2.045        0.760      159.801       34.074        0.045      343.701       19.995      863.403
08/04/2014  19:08:00     -151.581      107.767      -30.870       51.218       52.125       29.758     2623.316     2717.044      885.514        2.088        0.311      185.985       27.519        0.022      343.721       20.028      863.411
08/04/2014  19:09:00      -76.384       39.572       -5.073       54.403       47.933       26.214     2959.693     2297.587      687.181        0.668        0.297       86.026       26.252        0.093      343.729       20.045      863.404
08/04/2014  19:10:00      -71.721       39.192      -14.155       39.777       57.172       23.540     1582.170     3268.646      554.148        0.614        0.270       81.731       15.058        0.034      343.641       19.895      863.415
08/04/2014  19:11:00      -71.114       53.887      -10.667       54.236       53.452       29.983     2941.597     2857.102      898.954        0.738        0.335       89.224       27.451        0.095      343.654       19.917      863.427
08/04/2014  19:12:00      -77.258      -12.210        8.398       41.127       27.920       24.486     1691.403      779.535      599.546        0.463        0.154       78.217       21.046        0.072      343.612       19.846      863.422
08/04/2014  19:13:00      -87.959      -59.312        1.097       63.874       41.559       24.239     4079.860     1727.121      587.548        0.882        0.320      106.088       30.253        0.081      343.602       19.828      863.430
08/04/2014  19:14:00     -103.044      -34.575       -3.687       45.938       24.362       17.512     2110.284      593.492      306.663        0.742        0.151      108.689       21.587        0.039      343.580       19.791      863.439
08/04/2014  19:15:00      -70.775      -33.568        4.713       36.041       26.471       21.319     1298.942      700.717      454.495        0.431        0.123       78.332       18.955        0.059      343.599       19.824      863.449
08/04/2014  19:16:00      -62.504      -33.994       -0.955       35.015       19.469       14.274     1226.073      379.041      203.754        0.344        0.090       71.150       17.928        0.063      343.622       19.864      863.448
08/04/2014  19:17:00      -66.797       -3.474       -1.752       27.394       16.610       12.037      750.445      275.887      144.899        0.282        0.059       66.887       15.480        0.054      343.589       19.808      863.458
08/04/2014  19:18:00      -80.674      -14.495       -8.102       29.246       19.057       12.707      855.314      363.167      161.461        0.408        0.069       81.966       14.913        0.033      343.572       19.778      863.472
08/04/2014  19:19:00     -110.081      -28.105       -6.180       27.457       24.529       18.548      753.872      601.696      344.028        0.732        0.085      113.612       17.679        0.024      343.560       19.756      863.474
08/04/2014  19:20:00      -57.311      -27.560       -0.222       20.753       21.052       10.532      430.691      443.166      110.920        0.251        0.049       63.593        8.652        0.019      343.566       19.766      863.462
08/04/2014  19:21:00       -7.652      -22.586       11.911       12.189       16.344       13.349      148.568      267.125      178.207        0.065        0.030       23.847        3.847        0.026      343.689       19.976      863.438
08/04/2014  19:22:00      -35.178       15.705        2.731       17.787        9.344        9.636      316.376       87.313       92.861        0.099        0.025       38.525        9.860        0.066      343.634       19.882      863.440
08/04/2014  19:23:00      -76.223      -16.856       -8.741       12.736       21.874        9.860      162.205      478.464       97.220        0.345        0.037       78.065        8.880        0.013      343.602       19.828      863.446
08/04/2014  19:24:00      -87.554      -56.235       -4.708       28.628       25.009       16.939      819.566      625.470      286.944        0.629        0.087      104.058       12.649        0.015      343.550       19.740      863.444
08/04/2014  19:25:00     -107.630      -51.178       -2.580       31.711       27.262       15.641     1005.560      743.213      244.631        0.810        0.100      119.178       16.075        0.018      343.575       19.781      863.449
08/04/2014  19:26:00     -153.950      -48.271      -12.543       24.521       30.851       16.455      601.280      951.780      270.757        1.401        0.091      161.340       10.796        0.004      343.614       19.848      863.452
08/04/2014  19:27:00      -73.795      -28.341        0.916       36.800       20.546       12.743     1354.275      422.138      162.384        0.409        0.097       79.050       16.234        0.042      343.603       19.829      863.458
08/04/2014  19:28:00     -132.954      -48.263       -1.949       31.075       28.116       15.453      965.643      790.509      238.787        1.100        0.100      141.443        8.909        0.004      343.563       19.763      863.462
08/04/2014  19:29:00      -73.415      -15.192      -12.982       25.778       13.546       11.381      664.514      183.481      129.528        0.338        0.049       74.970        5.825        0.006      343.595       19.815      863.449
08/04/2014  19:30:00      -19.655      -11.611       -0.701       34.361       14.743       11.436     1180.694      217.367      130.781        0.102        0.076       22.828       13.485        0.349      343.604       19.832      863.451
08/04/2014  19:31:00     -150.736      -79.557       -6.236       79.330       44.448       23.135     6293.267     1975.656      535.235        1.895        0.440      170.443       15.949        0.009      343.619       19.856      863.462
08/04/2014  19:32:00     -117.644      -60.779        4.961       83.259       51.734       40.699     6932.004     2676.369     1656.435        1.441        0.563      132.417       39.661        0.090      343.543       19.726      863.472
08/04/2014  19:33:00     -203.362      -58.657        1.318      123.170       57.993       41.548    15170.784     3363.163     1726.243        3.253        1.013      211.652       63.508        0.090      343.479       19.617      863.461
08/04/2014  19:34:00     -176.194      -63.302       -4.835       52.069       60.814       28.273     2711.155     3698.332      799.374        2.114        0.360      187.220       27.065        0.021      343.442       19.554      863.460
08/04/2014  19:35:00      -95.653      -40.458       -1.945       36.254       30.007       22.031     1314.347      900.391      485.380        0.674        0.135      103.857       15.194        0.021      343.444       19.561      863.469
08/04/2014  19:36:00      -93.057      -54.553        1.258       42.526       41.569       21.721     1808.493     1727.988      471.818        0.782        0.200      107.868       16.611        0.024      343.431       19.536      863.474
08/04/2014  19:37:00     -105.971      -73.830       -0.353       50.694       40.570       21.203     2569.857     1645.910      449.559        1.067        0.233      129.154       24.947        0.037      343.423       19.523      863.490
08/04/2014  19:38:00      -99.090       -0.003       -3.742       38.395       32.419       24.113     1474.194     1051.018      581.433        0.647        0.155       99.090       23.155        0.055      343.394       19.477      863.493
08/04/2014  19:39:00      -56.793      -43.996       -2.774       34.242       25.171       18.966     1172.497      633.575      359.700        0.367        0.108       71.841       17.612        0.060      343.426       19.529      863.497
08/04/2014  19:40:00       -6.994      -55.516       10.003       51.755       48.150       24.832     2678.552     2318.457      616.636        0.442        0.281       55.955       26.254        0.220      343.444       19.559      863.487
08/04/2014  19:41:00      -83.338      -78.158        0.231       71.558       76.522       38.230     5120.506     5855.551     1461.495        1.274        0.622      114.254       32.844        0.083      343.427       19.528      863.487
08/04/2014  19:42:00     -145.157     -105.267       -6.930       66.169       50.696       34.102     4378.301     2570.051     1162.967        2.015        0.406      179.309       36.524        0.041      343.370       19.431      863.494
08/04/2014  19:43:00     -159.291     -104.273       -7.358       63.554       64.693       35.712     4039.162     4185.222     1275.316        2.290        0.475      190.385       37.889        0.040      343.352       19.401      863.493
08/04/2014  19:44:00      -60.655      -59.620        5.367       64.275       56.243       29.291     4131.285     3163.233      857.948        0.771        0.408       85.050       25.228        0.088      343.368       19.430      863.501
08/04/2014  19:45:00      -66.613      -26.689        3.933       32.878       35.521       20.218     1080.962     1261.731      408.764        0.396        0.138       71.760       19.161        0.071      343.368       19.431      863.496
08/04/2014  19:46:00      -93.794      -39.101       -6.483       51.401       33.185       25.263     2642.093     1101.272      638.204        0.737        0.219      101.618       25.723        0.064      343.344       19.388      863.499
08/04/2014  19:47:00      -85.227      -26.072        3.111       52.567       39.910       25.661     2763.339     1592.820      658.471        0.648        0.251       89.126       22.285        0.063      343.319       19.348      863.500
08/04/2014  19:48:00     -134.878      -18.219       -3.413       45.229       47.586       23.482     2045.639     2264.404      551.411        1.170        0.243      136.103       26.015        0.037      343.283       19.286      863.499
08/04/2014  19:49:00     -125.016        5.936       -4.936       32.190       29.799       17.873     1036.205      887.991      319.459        0.897        0.112      125.157       12.852        0.011      343.262       19.250      863.488
08/04/2014  19:50:00      -58.512      -20.688       -4.399       18.941       23.095       14.243      358.765      533.394      202.860        0.248        0.055       62.062        5.131        0.007      343.286       19.290      863.477
08/04/2014  19:51:00      -84.877      -30.568       -5.116       31.827       29.599       16.756     1012.968      876.072      280.766        0.517        0.108       90.214       16.460        0.033      343.339       19.381      863.460
08/04/2014  19:52:00     -123.088      -58.401      -13.347       27.008       28.966       20.333      729.424      839.058      413.436        1.036        0.099      136.240       13.126        0.009      343.339       19.379      863.455
08/04/2014  19:53:00     -102.909      -43.295       -0.900       42.326       28.510       22.496     1791.450      812.798      506.075        0.779        0.156      111.646       20.236        0.033      343.321       19.350      863.456
08/04/2014  19:54:00      -87.561      -31.920        2.757       38.604       28.854       21.748     1490.251      832.571      472.980        0.574        0.140       93.198       19.701        0.045      343.334       19.372      863.453
08/04/2014  19:55:00      -88.052      -21.713        6.466       45.321       35.964       24.920     2054.009     1293.424      621.006        0.612        0.198       90.689       24.838        0.075      343.384       19.457      863.435
08/04/2014  19:56:00      -92.809      -24.273      -13.829       20.809       26.126       13.063      433.020      682.550      170.638        0.534        0.064       95.931        9.137        0.009      343.367       19.428      863.437
08/04/2014  19:57:00      -68.854      -52.141        1.820       35.555       24.988       20.213     1264.153      624.401      408.571        0.488        0.115       86.368       20.418        0.056      343.392       19.470      863.432
08/04/2014  19:58:00      -75.684      -11.601       -0.930       28.959       22.929       18.172      838.605      525.727      330.211        0.378        0.085       76.568       18.428        0.058      343.384       19.459      863.435
08/04/2014  19:59:00      -46.712      -26.771       -4.048       23.669       19.878       12.443      560.219      395.147      154.836        0.201        0.056       53.839        5.473        0.010      343.414       19.507      863.422
08/04/2014  20:00:00      -31.027      -15.415        2.135       30.930       19.186       12.455      956.688      368.092      155.123        0.134        0.074       34.646       11.056        0.102      343.434       19.544      863.400
08/04/2014  20:01:00     -102.187      -39.814       -0.735       42.177       37.955       18.674     1778.864     1440.610      348.702        0.780        0.178      109.669        7.816        0.005      343.407       19.497      863.392
08/04/2014  20:02:00     -218.500      -50.291       -4.518       80.865       57.738       34.898     6539.168     3333.653     1217.891        3.069        0.555      224.213       33.764        0.023      343.394       19.471      863.389
08/04/2014  20:03:00     -166.125      -72.099       -1.325       74.780       37.928       26.289     5592.110     1438.564      691.121        2.026        0.386      181.096       29.668        0.027      343.353       19.403      863.382
08/04/2014  20:04:00     -104.587      -23.082       -4.838       36.402       38.803       19.108     1325.093     1505.659      365.109        0.734        0.160      107.104       18.311        0.029      343.348       19.394      863.375
08/04/2014  20:05:00     -114.551      -40.457       -7.216       36.389       27.223       18.657     1324.135      741.088      348.102        0.861        0.121      121.485       18.795        0.024      343.343       19.386      863.372
08/04/2014  20:06:00     -128.649      -50.208       -3.349       66.996       45.736       29.088     4488.444     2091.753      846.094        1.325        0.371      138.100       28.427        0.042      343.360       19.417      863.369
08/04/2014  20:07:00     -142.372      -21.190       -8.722       47.242       29.632       28.602     2231.829      878.039      818.049        1.236        0.196      143.940       22.497        0.024      343.372       19.438      863.373
08/04/2014  20:08:00      -81.892      -58.941       -5.753       45.978       38.137       21.031     2114.014     1454.452      442.290        0.711        0.201      100.898       23.174        0.053      343.338       19.379      863.374
08/04/2014  20:09:00     -142.838      -59.227       -0.699       53.332       41.370       25.413     2844.336     1711.499      645.828        1.456        0.260      154.630       25.406        0.027      343.342       19.385      863.374
08/04/2014  20:10:00     -139.655      -50.554       -9.249       38.050       30.259       22.352     1447.785      915.626      499.620        1.250        0.143      148.523       11.973        0.006      343.307       19.329      863.382
08/04/2014  20:11:00      -88.835      -24.703       -3.834       48.032       30.540       19.793     2307.086      932.690      391.750        0.607        0.182       92.205       19.675        0.046      343.258       19.243      863.389
08/04/2014  20:12:00      -91.996      -53.875       -4.716       26.856       27.601       18.232      721.266      761.795      332.404        0.660        0.091      106.611       16.205        0.023      343.250       19.229      863.396
08/04/2014  20:13:00     -139.042      -22.281      -11.081       33.279       34.411       19.955     1107.491     1184.085      398.213        1.132        0.134      140.816       17.320        0.015      343.271       19.263      863.405
08/04/2014  20:14:00     -152.425        1.950      -12.996       32.151       50.635       20.647     1033.655     2563.931      426.293        1.371        0.201      152.437       23.999        0.025      343.277       19.275      863.408
08/04/2014  20:15:00      -75.758      -21.753        1.957       47.609       35.368       21.175     2266.663     1250.880      448.370        0.509        0.198       78.820       22.144        0.079      343.281       19.281      863.413
08/04/2014  20:16:00     -121.057      -30.083       -6.399       31.538       38.678       22.019      994.630     1495.993      484.817        0.929        0.149      124.739       15.215        0.015      343.289       19.296      863.419
08/04/2014  20:17:00     -130.140      -34.286       -0.210       44.718       53.865       26.274     1999.677     2901.490      690.334        1.185        0.280      134.580       29.580        0.048      343.265       19.254      863.429
08/04/2014  20:18:00      -91.545      -10.268       -0.870       40.512       37.406       21.840     1641.202     1399.227      477.006        0.600        0.176       92.119       16.913        0.034      343.255       19.238      863.436
08/04/2014  20:19:00      -76.345       -6.149        3.305       31.612       27.891       18.167      999.307      777.881      330.029        0.399        0.105       76.592       15.508        0.041      343.265       19.254      863.440
08/04/2014  20:20:00      -68.330       -8.044       -5.132       22.843       22.341       14.696      521.825      499.118      215.985        0.300        0.062       68.802        9.864        0.021      343.258       19.242      863.451
08/04/2014  20:21:00      -85.956        9.534       -8.275       36.187       27.641       16.940     1309.474      764.019      286.970        0.495        0.118       86.483       18.934        0.048      343.245       19.220      863.456
08/04/2014  20:22:00      -36.843       25.661       -6.587       21.716       38.726       15.345      471.581     1499.673      235.474        0.213        0.110       44.899       11.892        0.070      343.229       19.193      863.452
08/04/2014  20:23:00      -73.502       15.645        3.231       46.134       26.138       22.042     2128.346      683.176      485.845        0.448        0.165       75.149       26.043        0.120      343.225       19.188      863.449
08/04/2014  20:24:00      -52.494       36.410       -5.198       25.850       21.050       15.040      668.231      443.114      226.190        0.272        0.067       63.885        9.815        0.024      343.220       19.180      863.453
08/04/2014  20:25:00      -36.536       67.704       -5.778       38.573       34.287       23.073     1487.847     1175.603      532.342        0.457        0.160       76.934       15.634        0.041      343.275       19.272      863.465
08/04/2014  20:26:00      -73.905       68.155      -17.673       22.934       22.364       17.797      525.946      500.162      316.727        0.588        0.067      100.534       13.583        0.018      343.277       19.276      863.484
08/04/2014  20:27:00      -69.302       49.800       -8.866       29.393       23.079       17.103      863.969      532.656      292.518        0.452        0.084       85.340       14.042        0.027      343.280       19.281      863.480
08/04/2014  20:28:00      -42.502       73.912       -2.541       35.189       33.622       23.811     1238.250     1130.422      566.955        0.511        0.147       85.261       20.099        0.056      343.333       19.370      863.478
08/04/2014  20:29:00      -40.595       65.045       -4.722       28.004       40.525       16.827      784.197     1642.273      283.144        0.430        0.135       76.673       15.110        0.039      343.357       19.410      863.488
08/04/2014  20:30:00      -68.620       23.779       -1.834       23.650       27.512       14.431      559.341      756.911      208.266        0.340        0.076       72.623       10.663        0.022      343.319       19.347      863.498
08/04/2014  20:31:00     -112.573       -7.456      -12.059       44.420       55.724       20.826     1973.143     3105.114      433.713        0.919        0.276      112.819       18.630        0.027      343.325       19.356      863.507
08/04/2014  20:32:00      -57.124       43.686      -12.409       45.063       37.261       34.659     2030.683     1388.415     1201.219        0.497        0.231       71.914       26.331        0.134      343.344       19.390      863.527
08/04/2014  20:33:00     -142.556       76.755      -24.518      102.978       84.601       38.202    10604.536     7157.313     1459.384        2.301        0.961      161.906       48.662        0.090      343.426       19.526      863.529
08/04/2014  20:34:00      -54.515        8.334        2.643       43.431       50.624       32.390     1886.235     2562.806     1049.125        0.427        0.275       55.149       27.784        0.254      343.331       19.366      863.532
08/04/2014  20:35:00      -92.416       56.845       -7.299       45.121       48.781       27.809     2035.897     2379.590      773.362        0.851        0.259      108.499       26.993        0.062      343.341       19.382      863.554
08/04/2014  20:36:00      -73.136      127.179      -17.824       37.339       56.229       26.876     1394.209     3161.659      722.293        1.356        0.264      146.708       23.758        0.026      343.555       19.748      863.560
08/04/2014  20:37:00      -67.761      113.759      -13.512       43.731       50.476       29.199     1912.416     2547.814      852.603        1.151        0.266      132.411       29.129        0.048      343.543       19.728      863.564
08/04/2014  20:38:00      -68.442      148.432      -15.247       44.781       66.249       31.772     2005.351     4388.964     1009.475        1.717        0.370      163.451       28.911        0.031      343.603       19.829      863.583
08/04/2014  20:39:00      -78.350      177.687      -23.436       51.431      107.203       32.577     2645.120    11492.405     1061.240        2.673        0.760      194.195       26.605        0.019      343.581       19.790      863.583
08/04/2014  20:40:00      -81.933       86.761       -9.423       51.368       53.377       35.838     2638.702     2849.052     1284.374        1.055        0.339      119.333       33.787        0.080      343.526       19.699      863.572
08/04/2014  20:41:00     -134.787      118.685      -25.726       71.768       59.898       40.422     5150.639     3587.760     1633.965        2.164        0.519      179.593       36.828        0.042      343.508       19.668      863.551
08/04/2014  20:42:00     -272.865      112.059      -48.351       99.103       98.311       52.066     9821.490     9665.064     2710.877        5.577        1.110      294.979       52.921        0.032      343.432       19.537      863.549
08/04/2014  20:43:00     -150.307      101.598      -20.679       91.420       95.701       59.456     8357.611     9158.757     3535.008        2.719        1.053      181.423       42.043        0.054      343.367       19.426      863.574
08/04/2014  20:44:00     -190.553       67.881      -15.438      111.960       63.961       48.281    12535.147     4090.981     2331.022        3.005        0.948      202.283       52.719        0.068      343.300       19.313      863.576
08/04/2014  20:45:00     -170.240       51.745      -22.999       76.581       62.677       38.786     5864.579     3928.454     1504.329        2.174        0.565      177.931       36.708        0.043      343.272       19.263      863.569
08/04/2014  20:46:00     -148.422      -25.827      -22.917       92.608       83.198       49.357     8576.266     6921.922     2436.106        2.057        0.897      150.652       17.056        0.013      343.278       19.275      863.567
08/04/2014  20:47:00     -179.308      -60.031      -20.368       78.390       73.575       35.147     6144.980     5413.347     1235.327        2.448        0.640      189.090       28.108        0.022      343.231       19.194      863.572
08/04/2014  20:48:00     -182.881      -23.664      -15.068       63.179       56.182       38.629     3991.595     3156.396     1492.230        2.143        0.432      184.405       37.980        0.042      343.221       19.179      863.595
08/04/2014  20:49:00      -83.954       -4.914        7.026       71.925       50.287       33.966     5173.186     2528.784     1153.690        0.799        0.443       84.098       40.111        0.227      343.170       19.092      863.605
08/04/2014  20:50:00      -77.630       21.491        1.403       67.122       71.658       32.734     4505.312     5134.801     1071.504        0.860        0.536       80.550       33.359        0.172      343.129       19.022      863.636
08/04/2014  20:51:00     -120.523      -10.546      -18.386       65.701       45.863       34.727     4316.576     2103.383     1205.995        1.130        0.381      120.983       32.352        0.072      343.130       19.025      863.662
08/04/2014  20:52:00     -144.078       71.581      -10.330       84.335       68.817       47.475     7112.384     4735.813     2253.885        2.004        0.705      160.880       35.538        0.049      343.112       18.994      863.670
08/04/2014  20:53:00     -105.075       47.255      -13.053       91.094       81.532       39.319     8298.147     6647.468     1545.966        1.496        0.825      115.212       46.935        0.166      343.109       18.989      863.679
08/04/2014  20:54:00     -182.875      156.160      -34.990       76.576      109.523       53.390     5863.917    11995.230     2850.519        3.988        1.035      240.477       50.391        0.044      343.168       19.086      863.695
08/04/2014  20:55:00     -163.717       93.383      -19.768       72.374       64.926       45.561     5237.947     4215.331     2075.760        2.372        0.576      188.477       43.301        0.053      343.151       19.059      863.724
08/04/2014  20:56:00     -110.722       66.666       -8.195       68.617       42.589       35.617     4708.225     1813.795     1268.581        1.228        0.390      129.243       37.676        0.085      343.122       19.011      863.741
08/04/2014  20:57:00      -88.298        9.653       -2.276       69.341       57.382       34.445     4808.228     3292.648     1186.478        0.859        0.464       88.824       38.864        0.191      343.120       19.009      863.748
08/04/2014  20:58:00     -100.191       20.556       -4.454       68.371       49.126       26.444     4674.644     2413.411      699.287        0.913        0.389      102.278       24.507        0.057      343.108       18.987      863.753
08/04/2014  20:59:00     -132.591       80.634      -12.316       46.786       38.720       26.101     2188.931     1499.266      681.283        1.430        0.218      155.185       18.067        0.014      343.114       18.997      863.762
08/04/2014  21:00:00      -72.186       64.975      -10.401       32.652       31.131       23.189     1066.130      969.133      537.726        0.606        0.129       97.122       16.300        0.028      343.104       18.982      863.786
08/04/2014  21:01:00     -117.627       36.898      -17.145       63.396       59.555       30.906     4019.079     3546.780      955.211        1.200        0.426      123.279       23.188        0.035      343.074       18.930      863.799
08/04/2014  21:02:00     -154.849       82.888      -27.675       85.748       85.005       40.475     7352.636     7225.864     1638.262        2.391        0.811      175.638       33.913        0.037      343.074       18.927      863.795
08/04/2014  21:03:00     -115.195        5.514        5.408       76.491       71.958       47.857     5850.870     5177.972     2290.265        1.332        0.666      115.327       36.654        0.101      343.036       18.864      863.779
08/04/2014  21:04:00      -83.156      135.221      -11.854       70.514       81.125       46.850     4972.241     6581.281     2194.948        1.954        0.687      158.744       34.438        0.047      343.018       18.833      863.780
08/04/2014  21:05:00      -93.615       30.878      -18.220       87.227       52.351       40.255     7608.503     2740.609     1620.487        1.101        0.598       98.576       35.410        0.129      343.003       18.808      863.770
08/04/2014  21:06:00     -180.883       33.106      -34.634       92.337       98.591       55.952     8526.047     9720.217     3130.584        2.819        1.069      183.887       55.059        0.090      343.006       18.812      863.754
08/04/2014  21:07:00     -200.136       24.220      -19.043       87.906       93.120       56.802     7727.461     8671.301     3226.467        3.031        0.981      201.596       44.361        0.048      342.964       18.739      863.742
08/04/2014  21:08:00      -99.973       25.987      -20.908       60.927       42.122       40.387     3712.155     1774.274     1631.128        0.911        0.356      103.295       17.632        0.029      342.923       18.672      863.740
08/04/2014  21:09:00      -74.293        2.024      -13.823       44.362       52.934       21.132     1967.999     2801.961      446.541        0.546        0.261       74.321       11.561        0.024      342.949       18.717      863.736
08/04/2014  21:10:00      -94.889       47.658       -7.897       63.748       43.313       41.928     4063.840     1876.024     1757.934        0.952        0.385      106.185       35.613        0.112      342.924       18.673      863.725
08/04/2014  21:11:00     -147.112       56.147      -24.187       65.689       65.484       32.282     4315.080     4288.155     1042.159        1.751        0.482      157.463       28.312        0.032      342.896       18.626      863.734
08/04/2014  21:12:00      -87.380        6.089      -16.031       59.360       78.004       31.501     3523.580     6084.658      992.344        0.926        0.530       87.592       30.608        0.122      342.880       18.598      863.755
08/04/2014  21:13:00     -107.269       61.404      -12.940       69.156       48.065       32.045     4782.619     2310.272     1026.867        1.178        0.406      123.601       36.629        0.088      342.882       18.602      863.770
08/04/2014  21:14:00     -117.958       57.856      -21.181       37.300       40.796       26.345     1391.258     1664.338      694.036        1.073        0.187      131.382       12.700        0.009      342.932       18.687      863.792
08/04/2014  21:15:00     -115.520       62.491      -11.447       52.124       46.976       28.336     2716.920     2206.711      802.903        1.155        0.286      131.339       27.422        0.044      342.934       18.691      863.795
08/04/2014  21:16:00     -173.308      111.626      -27.358       75.332       74.324       37.600     5674.850     5524.095     1413.747        2.793        0.631      206.146       40.886        0.039      342.975       18.758      863.806
08/04/2014  21:17:00     -185.317       93.971      -19.871       83.301       42.044       41.762     6939.134     1767.666     1744.070        2.701        0.523      207.781       35.184        0.029      342.937       18.692      863.809
08/04/2014  21:18:00     -174.260       63.208      -22.172       57.430       37.832       35.000     3298.225     1431.277     1225.004        2.040        0.298      185.369       31.947        0.030      342.927       18.677      863.807
08/04/2014  21:19:00     -162.561       76.024      -23.946       51.293       86.749       37.091     2630.991     7525.418     1375.714        2.215        0.577      179.460       35.712        0.040      342.957       18.729      863.799
08/04/2014  21:20:00      -77.512       77.564       -7.604       53.283       60.445       36.901     2839.120     3653.596     1361.671        0.997        0.393      109.655       29.444        0.072      342.952       18.721      863.780
08/04/2014  21:21:00     -117.338       94.615      -28.536       30.389       80.606       25.987      923.516     6497.322      675.338        1.581        0.405      150.732       19.308        0.016      342.992       18.789      863.797
08/04/2014  21:22:00      -80.268       90.420       -8.490       60.913       96.388       32.222     3710.334     9290.594     1038.271        1.436        0.702      120.908       42.319        0.123      343.019       18.834      863.794
08/04/2014  21:23:00     -106.030      136.318      -15.363       48.049       79.811       32.390     2308.671     6369.791     1049.128        1.989        0.486      172.699       28.495        0.027      343.076       18.932      863.814
08/04/2014  21:24:00      -84.455      130.304      -17.161       37.909       46.839       34.624     1437.084     2193.909     1198.790        1.462        0.241      155.280       24.130        0.024      343.136       19.034      863.819
08/04/2014  21:25:00      -76.364       88.108      -17.523       22.284       45.321       24.405      496.568     2053.979      595.604        0.852        0.157      116.595       16.619        0.020      343.071       18.924      863.825
08/04/2014  21:26:00      -48.385       55.830      -18.918       21.938       30.100       19.882      481.297      905.995      395.298        0.380        0.089       73.879       15.842        0.046      343.092       18.959      863.838
08/04/2014  21:27:00       -3.637      106.770      -17.760       25.134       32.806       15.643      631.717     1076.215      244.699        0.684        0.098      106.832       14.090        0.017      342.946       18.711      863.841
08/04/2014  21:28:00      -43.032      126.108      -19.677       42.168       38.078       18.598     1778.180     1449.913      345.887        1.086        0.179      133.248       10.260        0.006      342.934       18.690      863.857
08/04/2014  21:29:00      -40.935       96.083      -10.023       45.187       41.672       19.359     2041.859     1736.518      374.760        0.758        0.208      104.440       16.319        0.024      342.930       18.684      863.872
08/04/2014  21:30:00      -56.008       51.010       -7.225       33.923       24.841       19.079     1150.781      617.082      364.002        0.396        0.107       75.756        9.839        0.017      342.927       18.678      863.876
08/04/2014  21:31:00      -79.009       40.667       -5.119       27.411       32.873       15.582      751.360     1080.626      242.799        0.500        0.104       88.861       11.953        0.018      342.968       18.750      863.893
08/04/2014  21:32:00      -88.801       88.109      -26.766       42.064       49.392       24.898     1769.343     2439.547      619.891        1.060        0.241      125.095       30.497        0.059      342.968       18.749      863.908
08/04/2014  21:33:00      -37.579      163.800      -10.002       35.764       43.980       22.510     1279.087     1934.253      506.688        1.603        0.186      168.056       21.649        0.017      342.975       18.761      863.900
08/04/2014  21:34:00      -62.078      127.203      -15.619       39.777       43.253       28.032     1582.198     1870.780      785.783        1.226        0.212      141.542       23.537        0.028      342.968       18.750      863.904
08/04/2014  21:35:00      -48.599       82.208      -12.119       33.216       42.048       23.381     1103.285     1768.070      546.661        0.634        0.171       95.499       22.551        0.056      342.970       18.752      863.911
08/04/2014  21:36:00      -58.932       65.214       -9.796       41.702       46.230       25.595     1739.073     2137.211      655.106        0.618        0.227       87.897       27.342        0.097      342.973       18.757      863.905
08/04/2014  21:37:00      -60.303       63.063      -12.971       28.822       31.963       22.200      830.697     1021.642      492.857        0.506        0.117       87.255       19.904        0.052      342.982       18.773      863.893
08/04/2014  21:38:00      -88.346       90.029      -15.252       47.923       52.600       29.536     2296.644     2766.774      872.361        1.104        0.297      126.136       29.955        0.056      342.966       18.746      863.902
08/04/2014  21:39:00     -113.000      143.697      -27.526       36.101       61.529       25.215     1303.269     3785.838      635.785        1.995        0.286      182.806       21.055        0.013      343.008       18.817      863.908
08/04/2014  21:40:00     -120.111       85.467      -22.555       33.202       39.725       19.102     1102.346     1578.083      364.868        1.264        0.152      147.415       17.998        0.015      342.967       18.747      863.916
08/04/2014  21:41:00      -66.642       29.599       -9.082       50.691       25.885       22.857     2569.609      670.050      522.440        0.458        0.188       72.920       19.975        0.075      343.001       18.806      863.917
08/04/2014  21:42:00      -67.889      109.093       -7.936       53.367       55.355       32.886     2848.065     3064.133     1081.478        1.178        0.350      128.492       36.238        0.080      342.989       18.784      863.925
08/04/2014  21:43:00     -113.741       96.950      -19.616       49.634       50.216       30.896     2463.563     2521.641      954.552        1.433        0.297      149.454       27.452        0.034      342.968       18.749      863.936
08/04/2014  21:44:00      -74.170      154.674      -20.122       58.977       60.261       31.358     3478.295     3631.411      983.327        1.896        0.405      171.538       24.625        0.021      342.937       18.695      863.944
08/04/2014  21:45:00      -74.634       81.405      -10.250       43.786       42.306       28.159     1917.186     1789.769      792.933        0.840        0.225      110.440       23.014        0.043      342.887       18.611      863.944
08/04/2014  21:46:00      -87.479       93.258      -15.183       41.333       44.857       32.779     1708.426     2012.185     1074.439        1.069        0.240      127.866       24.657        0.037      342.881       18.602      863.958
08/04/2014  21:47:00      -56.854       64.689       -8.953       26.687       39.029       20.736      712.203     1523.294      429.964        0.508        0.133       86.122       13.370        0.024      342.812       18.483      863.952
08/04/2014  21:48:00      -62.295       53.774       -6.733       36.611       28.153       23.275     1340.377      792.617      541.738        0.475        0.134       82.294       19.601        0.057      342.805       18.472      863.963
08/04/2014  21:49:00      -53.585       60.421      -10.691       28.921       22.651       18.980      836.430      513.077      360.247        0.417        0.085       80.759       13.235        0.027      342.761       18.396      863.965
08/04/2014  21:50:00      -44.385       36.893       -5.690       26.261       27.642       17.493      689.660      764.106      305.988        0.256        0.088       57.716        6.738        0.014      342.686       18.270      863.987
08/04/2014  21:51:00       -7.193        9.872        2.916       25.187       18.441       12.508      634.395      340.071      156.438        0.064        0.057       12.215       12.737        1.087      342.641       18.191      863.978
08/04/2014  21:52:00      -14.165       64.610       -9.457       26.263       37.920       14.433      689.722     1437.912      208.306        0.340        0.117       66.145       16.527        0.062      342.603       18.128      863.981
08/04/2014  21:53:00      -53.721        2.596       -8.262       17.978       26.746       11.573      323.222      715.375      133.931        0.207        0.059       53.784       10.912        0.041      342.598       18.120      863.980
08/04/2014  21:54:00      -60.386      -25.954       -8.982       42.434       24.683       19.287     1800.671      609.263      372.006        0.359        0.139       65.727       19.532        0.088      342.412       17.805      863.987
08/04/2014  21:55:00      -70.328      -48.391        0.435       43.337       28.356       18.187     1878.099      804.055      330.767        0.515        0.151       85.369       18.784        0.048      342.332       17.667      863.995
08/04/2014  21:56:00      -81.354      -68.201       -3.080       38.117       41.891       20.834     1452.869     1754.891      434.036        0.746        0.182      106.160       15.622        0.022      342.290       17.598      864.013
08/04/2014  21:57:00      -60.056      -48.106        6.940       31.276       23.707       17.815      978.175      562.040      317.384        0.391        0.093       76.947       14.945        0.038      342.261       17.547      864.022
08/04/2014  21:58:00      -66.751      -31.229        6.997       38.025       24.104       18.765     1445.896      581.024      352.127        0.393        0.119       73.695       16.212        0.048      342.218       17.473      864.037
08/04/2014  21:59:00      -45.861      -60.010       -0.568       31.823       17.830       15.899     1012.683      317.913      252.791        0.364        0.079       75.528       13.879        0.034      342.316       17.639      864.026
08/04/2014  22:00:00      -38.649      -35.914        4.400       40.058       44.728       20.479     1604.630     2000.582      419.392        0.341        0.201       52.760       25.135        0.227      342.265       17.553      864.049
08/04/2014  22:01:00      -19.682       64.915       -2.968       26.889       38.715       21.323      723.016     1498.869      454.674        0.364        0.134       67.834       14.271        0.044      342.161       17.377      864.091
08/04/2014  22:02:00        0.208       15.608        5.080       11.192        9.680        9.053      125.260       93.697       81.955        0.029        0.015       15.610        5.562        0.127      342.110       17.291      864.097
08/04/2014  22:03:00        6.112       51.798       -8.242       11.328        7.509        7.205      128.317       56.392       51.915        0.151        0.012       52.157        3.085        0.003      342.054       17.194      864.114
08/04/2014  22:04:00      -47.936       71.142      -12.446       27.090       22.742       10.886      733.843      517.198      118.506        0.444        0.068       85.785       13.438        0.025      342.175       17.400      864.135
08/04/2014  22:05:00      -63.179       61.960      -15.288       22.070       18.619       13.397      487.072      346.653      179.480        0.454        0.051       88.490       13.141        0.022      342.205       17.451      864.156
08/04/2014  22:06:00      -70.836       38.693      -12.075       14.267       20.682       11.071      203.550      427.746      122.563        0.371        0.038       80.714        9.715        0.014      342.225       17.485      864.170
08/04/2014  22:07:00      -47.520        4.066       -1.326       20.188       18.776       13.988      407.574      352.523      195.662        0.162        0.048       47.693       13.109        0.076      342.195       17.436      864.178
08/04/2014  22:08:00      -69.256      -28.151       -3.004       18.280       27.572       12.192      334.155      760.234      148.654        0.342        0.062       74.758       10.044        0.018      342.095       17.265      864.184
08/04/2014  22:09:00      -38.084       -7.514        1.040       16.896       18.344       12.255      285.491      336.489      150.192        0.114        0.039       38.818       11.456        0.087      342.089       17.254      864.197
08/04/2014  22:10:00      -40.845       -4.922       -4.054       15.069       20.242        9.638      227.089      409.750       92.897        0.122        0.036       41.141        5.574        0.018      342.019       17.136      864.201
08/04/2014  22:11:00      -78.053        4.020       -8.611       14.296       19.744        8.404      204.372      389.830       70.625        0.342        0.033       78.157        8.122        0.011      342.035       17.166      864.225
08/04/2014  22:12:00      -55.613       -4.026       -6.557       31.074       13.437        8.970      965.582      180.555       80.456        0.219        0.061       55.759       12.148        0.047      342.070       17.223      864.228
08/04/2014  22:13:00      -10.238      -21.752        1.714       19.498       11.706        8.890      380.172      137.026       79.035        0.059        0.030       24.041       10.412        0.188      342.120       17.308      864.223
08/04/2014  22:14:00       -2.347       14.167        3.738       16.477       22.531       13.327      271.493      507.641      177.602        0.059        0.048       14.360        9.977        0.483      342.136       17.334      864.209
08/04/2014  22:15:00      -42.401       22.321       -7.357       48.289       21.668       12.632     2331.865      469.515      159.555        0.265        0.148       47.917        8.802        0.034      342.015       17.128      864.213
08/04/2014  22:16:00     -119.320        0.626      -13.200       27.975       23.090       17.722      782.596      533.132      314.082        0.802        0.081      119.322       13.124        0.012      341.783       16.734      864.231
08/04/2014  22:17:00      -73.952      -17.142        1.028       22.057       19.962       14.830      486.510      398.494      219.931        0.343        0.055       75.913       12.759        0.028      341.946       17.013      864.223
08/04/2014  22:18:00      -90.882      -37.651        2.235       27.985       28.018       17.013      783.144      785.009      289.438        0.577        0.093       98.373       16.005        0.026      341.894       16.922      864.235
08/04/2014  22:19:00      -84.775      -19.956       -1.128       31.049       25.790       20.897      964.044      665.127      436.705        0.483        0.103       87.092       22.315        0.066      341.779       16.728      864.256
08/04/2014  22:20:00      -64.576      -40.217        0.005       32.944       20.794       18.346     1085.303      432.386      336.573        0.382        0.093       76.075       16.850        0.049      341.764       16.702      864.261
08/04/2014  22:21:00      -58.094      -29.798        1.219       25.413       19.651       15.718      645.843      386.174      247.060        0.277        0.064       65.290       13.795        0.045      341.821       16.800      864.269
08/04/2014  22:22:00      -31.219      -10.412        0.381       30.559       10.338       10.834      933.870      106.878      117.385        0.112        0.058       32.910       10.312        0.098      341.847       16.842      864.273
08/04/2014  22:23:00       -6.084       -6.035        4.809       13.135       11.824       11.137      172.519      139.802      124.029        0.027        0.022        8.570       11.706        1.866      341.910       16.951      864.269
08/04/2014  22:24:00      -45.684        3.389       -5.718       25.799        6.511        7.305      665.582       42.400       53.357        0.145        0.038       45.809        9.206        0.040      341.871       16.884      864.254
08/04/2014  22:25:00      -68.079        5.589       -1.800       22.483       18.773       15.395      505.499      352.418      237.019        0.288        0.055       68.308       12.875        0.036      341.832       16.819      864.242
08/04/2014  22:26:00      -48.193      -12.478       -2.929       17.788       17.830       12.528      316.430      317.912      156.949        0.164        0.040       49.782        9.254        0.035      341.764       16.706      864.243
08/04/2014  22:27:00      -19.271      -31.113       -0.626       24.583        9.404        7.415      604.301       88.431       54.981        0.104        0.037       36.598        6.274        0.029      341.787       16.742      864.238
08/04/2014  22:28:00        2.660      -15.184       -9.189        7.960       11.871        7.071       63.355      140.919       50.004        0.029        0.013       15.415        3.084        0.040      341.879       16.898      864.234
08/04/2014  22:29:00      -11.911        0.338       -0.117        7.550        3.230        4.595       56.998       10.436       21.112        0.012        0.004       11.916        2.415        0.041      342.003       17.108      864.240
08/04/2014  22:30:00       -0.757        0.250        8.280        8.152        6.841        5.510       66.461       46.801       30.365        0.011        0.007        0.798        3.311       17.229      341.879       16.897      864.242
08/04/2014  22:31:00        5.686        6.543       16.195       11.183        8.848        5.077      125.070       78.287       25.777        0.028        0.011        8.668        3.144        0.132      341.805       16.773      864.244
08/04/2014  22:32:00      -17.747      -13.791        0.089        9.234       10.040        7.695       85.271      100.807       59.218        0.038        0.012       22.475        4.665        0.043      341.836       16.825      864.244
08/04/2014  22:33:00        2.281       16.386        7.040       19.412       13.619        7.767      376.813      185.485       60.330        0.047        0.031       16.544        4.673        0.080      341.835       16.825      864.249
08/04/2014  22:34:00        8.244       55.962      -10.859        9.469        8.595        6.844       89.663       73.874       46.837        0.176        0.011       56.566        5.963        0.011      341.797       16.757      864.266
08/04/2014  22:35:00       -8.956       93.452      -15.118       11.143       17.721        6.640      124.167      314.022       44.084        0.476        0.024       93.880        4.664        0.002      341.734       16.652      864.286
08/04/2014  22:36:00      -22.386      114.119      -17.447       12.288       19.449        6.479      151.003      378.282       41.978        0.720        0.029      116.294        5.107        0.002      341.696       16.588      864.290
08/04/2014  22:37:00      -16.995      129.180      -18.279       10.413       18.323        5.751      108.422      335.724       33.075        0.889        0.024      130.293        4.585        0.001      341.739       16.659      864.279
08/04/2014  22:38:00      -20.685       77.729       -7.945       17.636       33.704       14.567      311.023     1135.977      212.203        0.410        0.083       80.434       15.788        0.039      341.730       16.646      864.263
08/04/2014  22:39:00      -48.008       62.325       -6.495       23.774       30.170       16.619      565.193      910.251      276.199        0.399        0.088       78.672       16.043        0.042      341.717       16.625      864.246
08/04/2014  22:40:00      -67.144       67.395      -13.053       16.143       24.367       13.733      260.593      593.769      188.599        0.513        0.052       95.134       12.799        0.018      341.740       16.662      864.241
08/04/2014  22:41:00      -74.948       74.405      -19.180       19.719       19.030       12.758      388.838      362.136      162.776        0.622        0.046      105.609        6.205        0.003      341.725       16.639      864.234
08/04/2014  22:42:00      -48.432       80.796      -11.678       19.504       31.603       16.750      380.396      998.771      280.575        0.533        0.083       94.200       15.543        0.027      341.795       16.757      864.243
08/04/2014  22:43:00      -71.421       63.826      -12.870       37.478       27.475       17.603     1404.582      754.894      309.870        0.590        0.123       95.785       14.724        0.024      341.743       16.668      864.243
08/04/2014  22:44:00      -67.329       94.679      -13.585       27.002       34.225       22.537      729.094     1171.322      507.921        0.804        0.120      116.178       17.159        0.022      341.654       16.518      864.234
08/04/2014  22:45:00      -64.376       37.434       -9.370       29.748       20.750       17.828      884.921      430.543      317.845        0.363        0.082       74.469       16.211        0.047      341.681       16.564      864.217
08/04/2014  22:46:00      -69.771       23.674       -8.238       38.776       39.905       19.642     1503.545     1592.427      385.811        0.449        0.174       73.678       18.777        0.065      341.694       16.584      864.209
08/04/2014  22:47:00      -46.229        3.030       -5.962       16.498       19.765        9.958      272.195      390.646       99.170        0.147        0.038       46.328        4.161        0.008      341.722       16.633      864.200
08/04/2014  22:48:00      -41.665       10.881        3.992       36.801       23.781       15.880     1354.305      565.528      252.165        0.202        0.109       43.062       12.566        0.085      341.712       16.615      864.215
08/04/2014  22:49:00       -8.596       29.266        3.598       13.074       20.348       14.816      170.934      414.051      219.501        0.087        0.040       30.502       14.162        0.216      341.708       16.607      864.220
08/04/2014  22:50:00       -4.100       21.752        1.716       23.324       21.887       17.469      544.020      479.058      305.158        0.091        0.066       22.135       12.598        0.324      341.759       16.696      864.216
08/04/2014  22:51:00      -39.541       62.093      -14.826       38.775       36.596       16.374     1503.503     1339.288      268.093        0.437        0.156       73.614       21.505        0.085      341.711       16.613      864.225
08/04/2014  22:52:00      -14.622       54.064       -0.932       29.474       33.582       16.487      868.696     1127.779      271.830        0.270        0.113       56.006       16.771        0.090      341.745       16.671      864.229
08/04/2014  22:53:00      -13.431       15.957       -0.040       21.618       13.926       10.522      467.331      193.943      110.708        0.060        0.039       20.857       10.382        0.248      341.648       16.506      864.241
08/04/2014  22:54:00       -6.531       45.810       -4.286       22.994       21.052        9.973      528.739      443.200       99.451        0.162        0.054       46.273        9.673        0.044      341.668       16.541      864.244
08/04/2014  22:55:00        2.968       40.197        1.609       24.037       21.827       14.453      577.792      476.434      208.892        0.144        0.063       40.307       14.506        0.130      341.606       16.435      864.248
08/04/2014  22:56:00       14.311       46.527       -2.627       14.082       24.441       17.188      198.298      597.355      295.444        0.173        0.055       48.678       12.508        0.066      341.566       16.365      864.252
08/04/2014  22:57:00       13.350       11.014       -5.020        9.124       16.272       11.082       83.249      264.790      122.815        0.040        0.024       17.307        9.044        0.273      341.515       16.279      864.252
08/04/2014  22:58:00        9.446       14.698       -1.535       11.701       12.534        6.076      136.903      157.093       36.921        0.032        0.017       17.472        5.550        0.101      341.730       16.646      864.247
08/04/2014  22:59:00      -15.125       10.405       -8.530       11.793       15.777       12.281      139.065      248.924      150.813        0.047        0.027       18.359       10.605        0.334      341.712       16.617      864.245
08/04/2014  23:00:00      -26.821        9.749       -4.935       14.591       10.175       15.718      212.908      103.526      247.068        0.070        0.028       28.538       11.231        0.155      341.718       16.625      864.249
08/04/2014  23:01:00      -17.274       -8.387       -4.014        9.914        5.537        4.547       98.285       30.655       20.676        0.027        0.007       19.202        3.668        0.036      341.680       16.562      864.248
08/04/2014  23:02:00      -12.550       23.086        0.095       16.902       13.707       12.124      285.663      187.880      147.001        0.066        0.031       26.276        5.650        0.046      341.779       16.730      864.248
08/04/2014  23:03:00      -38.358        6.499       -2.984       16.642       20.715       12.925      276.960      429.091      167.048        0.120        0.044       38.904        9.839        0.064      341.740       16.663      864.251
08/04/2014  23:04:00       -6.215        6.482       15.867       15.907       10.197        8.469      253.032      103.969       71.720        0.038        0.021        8.980        9.705        1.168      341.659       16.525      864.256
08/04/2014  23:05:00      -10.927        6.696        6.511       13.936       13.528       10.965      194.213      183.017      120.235        0.035        0.025       12.815        5.505        0.185      341.530       16.305      864.250
08/04/2014  23:06:00        2.702       11.412        9.872       18.946       10.559       11.120      358.945      111.501      123.653        0.041        0.030       11.727       11.176        0.908      341.515       16.280      864.248
08/04/2014  23:07:00       14.778       29.708       -0.005       14.729       17.837       11.204      216.932      318.149      125.524        0.088        0.033       33.181        8.183        0.061      341.511       16.273      864.259
08/04/2014  23:08:00       15.924       39.177       -5.904       14.114       22.541       11.145      199.214      508.118      124.222        0.133        0.042       42.290        8.885        0.044      341.497       16.251      864.280
08/04/2014  23:09:00        2.530       47.513       -3.959       10.524       19.404       13.736      110.746      376.534      188.673        0.148        0.034       47.580       13.126        0.076      341.518       16.287      864.293
08/04/2014  23:10:00       24.869       52.434       -3.440       15.713       14.287       11.165      246.898      204.122      124.662        0.198        0.029       58.033        8.230        0.020      341.480       16.220      864.304
08/04/2014  23:11:00       13.583        8.219       -1.061        8.683       10.352        7.151       75.399      107.160       51.133        0.024        0.012       15.877        3.851        0.059      341.514       16.279      864.320
08/04/2014  23:12:00       13.343      -13.301       -6.737       10.683       14.440        7.229      114.116      208.525       52.256        0.039        0.019       18.840        4.001        0.045      341.529       16.302      864.334
08/04/2014  23:13:00      -21.826      -29.103       -5.859       17.421       14.920       11.455      303.493      222.598      131.217        0.101        0.033       36.378        4.133        0.013      341.607       16.437      864.340
08/04/2014  23:14:00      -19.046      -44.318        0.273       18.661       19.598       18.641      348.227      384.086      347.481        0.170        0.054       48.237        6.694        0.019      341.613       16.446      864.349
08/04/2014  23:15:00       -9.322       -6.468       13.885       19.853       23.140       13.248      394.123      535.454      175.503        0.071        0.055       11.346        7.826        0.476      341.530       16.305      864.363
08/04/2014  23:16:00       -7.332        5.923        4.423       24.342       24.126       20.263      592.517      582.053      410.602        0.085        0.079        9.426       19.005        4.066      341.437       16.149      864.373
08/04/2014  23:17:00       19.767       11.181       22.591       40.541       37.562       16.266     1643.599     1410.890      264.579        0.217        0.166       22.710       23.154        1.039      341.432       16.139      864.376
08/04/2014  23:18:00      -10.893      -59.796       -0.916       23.624       47.356       25.602      558.084     2242.626      655.455        0.357        0.173       60.780       27.970        0.212      341.532       16.308      864.369
08/04/2014  23:19:00       34.128      -61.603      -16.970       33.469       26.847       17.542     1120.144      720.779      307.733        0.370        0.107       70.424       11.736        0.028      341.584       16.397      864.354
08/04/2014  23:20:00        9.272      -41.278       -0.853       24.283       30.061       25.439      589.641      903.667      647.164        0.197        0.107       42.307       19.233        0.207      341.549       16.338      864.347
08/04/2014  23:21:00        2.305      -35.486       -3.822       24.001       26.340       21.109      576.058      693.795      445.593        0.150        0.086       35.561       14.136        0.158      341.569       16.373      864.335
08/04/2014  23:22:00      -27.388      -26.783        8.409       40.735       25.052       23.968     1659.344      627.599      574.458        0.220        0.143       38.307       22.883        0.357      341.541       16.321      864.337
08/04/2014  23:23:00      -20.595      -21.980        3.794       33.761       20.811       17.664     1139.816      433.117      312.021        0.140        0.094       30.121       16.586        0.303      341.519       16.285      864.331
08/04/2014  23:24:00      -14.282      -45.266        4.135       35.823       17.766       16.549     1283.288      315.622      273.884        0.207        0.094       47.465       13.107        0.076      341.520       16.290      864.338
08/04/2014  23:25:00      -55.629      -92.530       -1.414       33.737       37.485       21.905     1138.157     1405.160      479.812        0.734        0.151      107.965       17.234        0.025      341.516       16.283      864.345
08/04/2014  23:26:00      -38.654      -56.137      -14.359       23.013       32.405       16.931      529.594     1050.060      286.643        0.336        0.093       68.158       12.461        0.033      341.543       16.327      864.342
08/04/2014  23:27:00      -17.622      -36.500        9.784       33.331       23.815       16.235     1110.948      567.134      263.576        0.184        0.097       40.531        6.490        0.026      341.604       16.432      864.352
08/04/2014  23:28:00       -8.792      -47.655       11.183       24.563       30.117       29.825      603.328      907.044      889.559        0.244        0.120       48.459       16.899        0.122      341.576       16.385      864.350
08/04/2014  23:29:00       10.219      -38.860       18.591       34.600       70.218       39.777     1197.192     4930.535     1582.225        0.483        0.385       40.181       42.630        1.126      341.637       16.488      864.348
08/04/2014  23:30:00        5.996        3.644       53.878       25.496       32.360       21.100      650.056     1047.194      445.205        0.255        0.107        7.017       12.802        3.329      341.635       16.484      864.346
08/04/2014  23:31:00       12.458       11.565       57.248       28.231       57.022       35.256      796.978     3251.466     1242.979        0.443        0.265       16.998       37.373        4.834      341.734       16.653      864.351
08/04/2014  23:32:00       52.418      -81.729        5.754       47.074       42.801       23.624     2215.948     1831.954      558.108        0.703        0.230       97.095       19.746        0.041      341.506       16.264      864.365
08/04/2014  23:33:00       36.284      -40.003        5.084       35.952       35.826       32.800     1292.566     1283.535     1075.856        0.330        0.183       54.007       24.449        0.205      341.502       16.257      864.373
08/04/2014  23:34:00       30.186        0.107       39.073       33.890       27.780       24.309     1148.506      771.738      590.904        0.247        0.126       30.186       20.101        0.443      341.495       16.245      864.388
08/04/2014  23:35:00        3.797        2.984       40.583       18.679       20.770       14.288      348.898      431.383      204.141        0.133        0.049        4.830       10.611        4.827      341.527       16.301      864.401
08/04/2014  23:36:00        1.010       -6.043       27.513       22.059       25.216       26.659      486.621      635.857      710.712        0.131        0.092        6.127       17.504        8.161      341.599       16.422      864.406
08/04/2014  23:37:00      -24.997      -16.421       12.358       17.519       21.028       11.628      306.902      442.173      135.211        0.097        0.044       29.908        6.976        0.054      341.605       16.434      864.417
08/04/2014  23:38:00       -8.932        3.127       16.646       12.284       17.082       15.774      150.909      291.789      248.816        0.053        0.035        9.464       13.242        1.958      341.665       16.536      864.424
08/04/2014  23:39:00      -14.083      -10.347       10.169       10.370       14.321       14.287      107.543      205.103      204.119        0.046        0.026       17.475        9.788        0.314      341.685       16.568      864.437
08/04/2014  23:40:00      -12.814       14.521       33.752       14.059       20.768       20.282      197.652      431.323      411.351        0.128        0.052       19.366       17.444        0.811      341.726       16.639      864.438
08/04/2014  23:41:00      -19.836      -23.605       -2.471       25.538       22.694       16.309      652.169      515.012      265.979        0.119        0.072       30.833       11.865        0.148      341.687       16.573      864.435
08/04/2014  23:42:00      -34.026      -56.418        0.814       26.917       27.856       18.115      724.530      775.977      328.146        0.308        0.091       65.884       13.054        0.039      341.555       16.350      864.439
08/04/2014  23:43:00      -36.975      -58.201       -7.644       20.717       28.820       18.730      429.188      830.567      350.798        0.321        0.081       68.953       10.486        0.023      341.449       16.169      864.431
08/04/2014  23:44:00      -38.923      -94.043        2.635       22.454       33.406       13.718      504.187     1115.987      188.172        0.609        0.090      101.780       15.497        0.023      341.442       16.159      864.437
08/04/2014  23:45:00      -59.986      -37.281       -0.924       18.269       24.207       16.967      333.740      585.972      287.893        0.310        0.060       70.627        8.224        0.014      341.460       16.185      864.437
08/04/2014  23:46:00      -24.025      -15.254       11.715       15.765       32.496       11.628      248.546     1055.964      135.208        0.119        0.072       28.459       13.003        0.209      341.415       16.112      864.450
08/04/2014  23:47:00       -9.348      -42.169      -19.724       15.050       29.022       18.391      226.506      842.277      338.220        0.183        0.070       43.193        9.241        0.046      341.450       16.170      864.462
08/04/2014  23:48:00      -14.151      -33.987        5.329       16.888       21.816       24.776      285.211      475.936      613.829        0.138        0.069       36.815       12.143        0.109      341.431       16.138      864.482
08/04/2014  23:49:00       -9.245      -54.586       -7.433       24.419       28.638       15.635      596.302      820.122      244.447        0.239        0.083       55.363       10.161        0.034      341.450       16.172      864.503
08/04/2014  23:50:00      -10.721      -26.544        6.245       10.632       17.196       12.886      113.043      295.719      166.054        0.072        0.029       28.628       10.873        0.144      341.514       16.279      864.518
08/04/2014  23:51:00        4.245      -25.750        5.178       26.375       42.429       23.331      695.618     1800.211      544.338        0.187        0.152       26.098       18.202        0.486      341.482       16.226      864.533
08/04/2014  23:52:00       26.143       16.552       49.817       31.473       48.106       29.101      990.555     2314.181      846.890        0.379        0.208       30.942       31.432        1.032      341.401       16.088      864.531
08/04/2014  23:53:00       16.810       16.496       48.467       35.323       43.728       32.176     1247.680     1912.138     1035.273        0.355        0.210       23.552       36.134        2.354      341.478       16.218      864.535
08/04/2014  23:54:00       12.543       -7.000       38.598       25.566       38.369       24.823      653.608     1472.178      616.164        0.222        0.137       14.364       13.080        0.829      341.402       16.090      864.535
08/04/2014  23:55:00       20.901       17.100       44.160       27.592       20.738       18.172      761.303      430.076      330.219        0.210        0.076       27.005       12.225        0.205      341.418       16.117      864.545
08/04/2014  23:56:00        2.935        4.907       40.338       22.458       38.269       21.290      504.352     1464.485      453.247        0.204        0.121        5.717       20.136       12.404      341.407       16.098      864.563
08/04/2014  23:57:00       -8.542       -6.712       52.038       17.587       37.276       13.677      309.294     1389.530      187.072        0.236        0.094       10.863       11.771        1.174      341.498       16.251      864.577
08/04/2014  23:58:00        0.171       -1.164       42.750       16.283       27.798       14.417      265.134      772.730      207.840        0.154        0.062        1.176        9.132       60.249      341.523       16.293      864.583
08/04/2014  23:59:00        4.211      -81.380       19.513       26.545       31.320       29.749      704.627      980.938      885.020        0.480        0.129       81.489       22.576        0.077      341.473       16.209      864.579
